     2.11           OBSERVATION DATA    G (GPS)             RINEX VERSION / TYPE
teqc 2010Oct21 OPUS Account 20111028 15:11:41UTC            PGM / RUN BY / DATE
C 1527                                                      MARKER NAME
3064                                                        MARKER NUMBER
CSMIDDLETON NGS                                             OBSERVER / AGENCY
0440103897 TRIMBLE 5700 1.04                                REC # / TYPE / VERS
12299603 TRM41249.00 NONE                                   ANT # / TYPE
  -738031.6455 -5583873.5054  2982651.1293                  APPROX POSITION XYZ
        1.9990        0.0000        0.0000                  ANTENNA: DELTA H/E/N
     1     1                                                WAVELENGTH FACT L1/2
     5    L1    L2    C1    P1    P2                        # / TYPES OF OBSERV
    15                                                      LEAP SECONDS
  2011     8    22    16    57    0.0000000     GPS         TIME OF FIRST OBS
                                                            END OF HEADER
 11  8 22 16 57  0.0000000  0  8G03G07G08G11G13G19G23G28
     64933.28657     42084.07154  22637984.6174                   22637982.8834
   -418283.57658   -280610.31056  21116872.3914                   21116869.2464
   -495921.55757   -338563.95355  22672529.2664                   22672528.5824
   -514284.67457   -364955.57154  23172183.6094                   23172181.7234
    -60379.34458    -46400.52856  20620566.9844                   20620564.8364
   -135265.06858    -99311.68056  21158918.2974                   21158914.0274
     80428.46357     49358.68155  22046663.3134                   22046660.5474
   -424993.20057   -302805.19054  23417829.3054                   23417827.1094
 11  8 22 16 57 30.0000000  0 10G03G07G08G11G13G19G23G28G06G10
     85775.85047     58324.98444  22641950.7504                   22641949.4344
   -538475.81348   -374266.61546  21094000.4614                   21093997.7814
   -641889.73347   -452305.39745  22644753.1564                   22644751.9614
   -662996.41547   -480834.83044  23143884.0394                   23143883.3834
    -75838.97748    -58447.03446  20617625.0394                   20617622.7154
   -172323.85548   -128188.68146  21151866.1484                   21151862.0204
    105521.02847     68911.24545  22051439.0554                   22051435.8914
   -547747.82447   -398458.12444  23394470.0394                   23394468.7544
     39421.12956     22274.73153  24676203.5314                   24676203.8634
    -35255.21856    -27891.65653  24697866.4454                   24697866.6804
 11  8 22 16 58  0.0000000  0 10G03G07G08G11G13G19G23G28G06G10
    107434.94947     75202.15744  22646072.3524                   22646070.8984
   -657995.39848   -467398.77046  21071257.0004                   21071253.4574
   -787356.49947   -565656.13144  22617070.9224                   22617069.9104
   -811056.80847   -596206.57244  23115709.3054                   23115706.9534
    -90262.54048    -69686.21246  20614880.8914                   20614878.3094
   -208293.98348   -156217.39346  21145021.8444                   21145017.0274
    131420.44047     89092.52645  22056367.2814                   22056364.2154
   -669785.99947   -493552.79344  23371246.6094                   23371245.6644
     65773.33645     42808.84143  24681217.8284                   24681217.6914
    -57153.42146    -44955.37243  24693699.2194                   24693699.7194
 11  8 22 16 58 30.0000000  0 10G03G07G08G11G13G19G23G28G06G10
    129844.16647     92663.79844  22650336.2894                   22650336.2704
   -776903.48348   -560054.43646  21048629.5634                   21048626.3834
   -932383.62247   -678664.29545  22589473.3284                   22589472.1764
   -958525.47847   -711117.21044  23087646.8984                   23087645.2424
   -103714.43348    -80168.25346  20612320.4614                   20612318.3364
   -243240.03248   -183448.08246  21138371.7664                   21138366.5474
    158061.13947    109851.42445  22061436.7664                   22061433.8244
   -791171.26247   -588138.66044  23348148.1254                   23348146.9964
     92728.18645     63812.54343  24686347.0784                   24686347.5864
    -78420.78946    -61527.39043  24689652.6724                   24689653.6954
 11  8 22 16 59  0.0000000  0 10G03G07G08G11G13G19G23G28G06G10
    152963.15247    110678.53844  22654736.5394                   22654735.8164
   -895235.46048   -652261.19346  21026111.1484                   21026108.6564
  -1077007.01747   -791357.81445  22561952.7814                   22561951.6414
  -1105436.72447   -825593.48444  23059690.4224                   23059689.2034
   -116233.78048    -89923.64346  20609938.2974                   20609936.3874
   -277200.84047   -209911.08646  21131909.1094                   21131905.5164
    185402.78047    131156.50545  22066639.5084                   22066636.6684
   -911941.19847   -682245.07044  23325166.3134                   23325164.5004
    120245.64745     85254.71443  24691583.5864                   24691583.0044
    -99097.38846    -77639.18543  24685717.5164                   24685719.4574
 11  8 22 16 59 30.0000000  0 10G03G07G08G11G13G19G23G28G06G10
    176756.15747    129218.52944  22659263.3914                   22659262.5474
  -1013023.06848   -744043.74646  21003697.0164                   21003694.3094
  -1221259.05247   -903762.04045  22534502.7344                   22534500.3594
  -1251820.94947   -939659.10744  23031834.8524                   23031833.5594
   -127856.03048    -98979.98046  20607726.8054                   20607724.4064
   -310210.86847   -235633.21946  21125627.3204                   21125623.2074
    213409.08047    152979.50045  22071969.2664                   22071965.8484
  -1032129.85047   -775898.54744  23302294.7974                   23302293.8054
    148290.20245    107107.58643  24696919.2814                   24696919.6724
   -119219.26046    -93318.67943  24681888.5234                   24681889.8444
 11  8 22 17  0  0.0000000  0 10G03G07G08G11G13G19G23G28G06G10
    201190.82547    148258.42444  22663913.0784                   22663912.0634
  -1130294.35548   -835423.98046  20981381.0554                   20981378.7624
  -1365168.07447  -1015898.93945  22507117.2974                   22507115.9384
  -1397704.62047  -1053334.68844  23004073.7974                   23004072.2424
   -138612.55648   -107361.73446  20605679.9694                   20605677.5474
   -342301.36448   -260638.82346  21119521.0394                   21119516.2424
    242047.96347    175295.41845  22077419.4534                   22077415.5004
  -1151767.17247   -869122.39744  23279528.6334                   23279527.2664
    176829.86245    129345.96643  24702349.6094                   24702349.9344
   -138818.91947   -108591.29043  24678158.8834                   24678160.3594
 11  8 22 17  0 30.0000000  0 10G03G07G08G11G13G19G23G28G06G10
    226238.33047    167775.88943  22668679.6254                   22668678.8914
  -1247072.80648   -926420.19046  20959159.0554                   20959156.1174
  -1508758.38647  -1127787.49345  22479793.4144                   22479791.8364
  -1543110.36247  -1166637.85244  22976403.9844                   22976402.7424
   -148530.59148   -115090.11946  20603792.5864                   20603790.0824
   -373499.65548   -284949.22446  21113583.7894                   21113579.6334
    271290.67747    198081.83245  22082983.6954                   22082981.0594
  -1270879.69446   -961937.31144  23256862.4844                   23256861.0004
    205836.20155    151948.44952  24707870.0944                   24707868.7114
   -157924.78046   -123479.08643  24674524.1094                   24674525.0594
 11  8 22 17  1  0.0000000  0 10G03G07G08G11G13G19G23G28G06G10
    251872.99747    187750.88044  22673558.0234                   22673556.4844
  -1363379.62448  -1017048.89446  20937026.4224                   20937023.9344
  -1652051.66947  -1239444.58445  22452525.3754                   22452523.8404
  -1688057.93947  -1279583.97244  22948821.5234                   22948820.1914
   -157635.15448   -122184.63446  20602060.2894                   20602058.1764
   -403830.33348   -308583.55146  21107812.3204                   21107807.8484
    301111.86947    221319.04845  22088658.3204                   22088655.1994
  -1389490.68547  -1054361.43944  23234291.0704                   23234289.8794
    235284.19045    174894.84643  24713474.5394                   24713473.3324
   -176561.98846   -138001.70143  24670977.8054                   24670977.6994
 11  8 22 17  1 30.0000000  0 10G03G07G08G11G13G19G23G28G06G10
    278068.69047    208163.08344  22678543.1094                   22678541.9534
  -1479236.39348  -1107326.90846  20914979.8364                   20914977.2424
  -1795069.89547  -1350887.35845  22425309.5474                   22425308.3404
  -1832567.29047  -1392188.66144  22921321.8674                   22921321.2384
   -165951.12348   -128664.65546  20600477.8204                   20600475.4654
   -433317.88148   -331560.89046  21102201.0004                   21102196.9384
    331485.08747    244986.39445  22094438.7034                   22094435.0004
  -1507623.91347  -1146413.26144  23211811.1564                   23211810.3404
    265148.18246    198165.39843  24719157.1334                   24719156.7504
   -194756.58246   -152179.36743  24667513.8134                   24667516.3834
 11  8 22 17  2  0.0000000  0 10G03G07G08G11G13G19G23G28G06G10
    304801.36347    228993.64243  22683630.0864                   22683629.1374
  -1594662.66248  -1197269.47246  20893014.5944                   20893012.0634
  -1937833.11247  -1462131.42245  22398143.1254                   22398141.0234
  -1976656.88947  -1504466.24444  22893902.5394                   22893901.2734
   -173502.30148   -134548.72346  20599040.6884                   20599038.5044
   -461985.23148   -353899.10346  21096745.7504                   21096741.3634
    362386.58447    269065.39745  22100319.1094                   22100315.7194
  -1625301.29347  -1238109.88844  23189418.3204                   23189415.4414
    295404.30346    221741.65243  24724914.7814                   24724915.6564
   -212533.23846   -166031.46543  24664131.6644                   24664133.3834
 11  8 22 17  2 30.0000000  0 10G03G07G08G11G13G19G23G28G06G10
    332049.25147    250225.69444  22688815.6174                   22688814.4454
  -1709675.41348  -1286889.80146  20871128.3984                   20871125.7974
  -2080358.92848  -1573190.50245  22371021.7664                   22371019.7664
  -2120342.62047  -1616429.13344  22866559.9694                   22866558.6484
   -180309.16148   -139852.81246  20597745.7584                   20597743.1214
   -489853.08047   -375614.34946  21091442.7504                   21091438.7934
    393794.44447    293538.96845  22106296.4384                   22106292.9024
  -1742542.62447  -1329466.73644  23167107.4614                   23167105.9414
    326031.40346    245606.79343  24730743.1644                   24730742.1994
   -229913.38546   -179574.59343  24660824.5944                   24660826.2274
 11  8 22 17  3  0.0000000  0  9G03G07G08G11G13G19G23G28G10
    359788.06347    271840.29244  22694094.6564                   22694093.3484
  -1824294.51848  -1376203.39646  20849317.2194                   20849314.3284
  -2222667.67547  -1684080.40145  22343941.1564                   22343939.2234
  -2263642.78747  -1728091.58344  22839291.1254                   22839289.2504
   -186395.24748   -144595.25846  20596587.2584                   20596585.0474
   -516944.69548   -396724.72346  21086287.5004                   21086283.4104
    425684.35047    318388.15145  22112364.4384                   22112362.1334
  -1859369.75346  -1420500.85244  23144875.6334                   23144874.1914
   -246921.16146   -192827.53943  24657588.5084                   24657589.8594
 11  8 22 17  3 30.0000000  0  9G03G07G08G11G13G19G23G28G10
   1963420.18347   1521423.69944  22999255.3134                   22999253.3164
   -363107.83848   -237616.38546  21127372.0004                   21127369.2074
   -789346.79247   -567206.98645  22616692.9614                   22616691.2814
   -831143.14447   -611858.08044  23111886.6254                   23111885.9304
   1383644.15548   1078812.03046  20895356.1024                   20895353.9224
   1032145.58847    810358.59646  21381069.0944                   21381064.9654
   2033458.57647   1571199.15045  22418314.1954                   22418311.4064
   -400373.18247   -283620.37044  23422513.7894                   23422512.8594
   1311847.63546   1021797.39143  24954211.5634                   24954214.7074
 11  8 22 17  4  0.0000000  0  9G03G07G08G11G13G19G23G28G10
   1992096.68647   1543768.97144  23004711.9694                   23004710.5864
   -476969.42947   -326339.71346  21105704.6024                   21105701.9614
   -931252.67847   -677783.00045  22589689.4144                   22589687.1684
   -973698.64746   -722940.29344  23084759.7424                   23084758.1054
   1378958.33048   1075160.68646  20894464.4614                   20894462.7274
   1006566.16347    790426.55346  21376201.9144                   21376197.3594
   2066268.34447   1596765.09545  22424557.3444                   22424554.6844
   -516409.48647   -374038.23644  23400433.2194                   23400431.1954
   1295540.94046   1009090.73442  24951108.6484                   24951110.8554
 11  8 22 17  4 30.0000000  0  9G03G07G08G11G13G19G23G28G10
   2021216.97947   1566460.03744  23010253.2734                   23010253.2344
   -590470.38747   -414782.03046  21084106.0944                   21084103.5554
  -1072975.81147   -788216.59845  22562719.9144                   22562718.4534
  -1115898.08547   -833745.05244  23057699.7504                   23057697.8594
   1374948.13648   1072035.81546  20893701.3594                   20893699.0864
    981719.40047    771065.40846  21371473.7424                   21371469.7114
   2099513.09947   1622669.97945  22430883.6024                   22430880.8874
   -632072.11946   -464164.95144  23378423.2114                   23378421.4344
   1279559.86746    996637.84042  24948068.4534                   24948070.1374
 11  8 22 17  5  0.0000000  0  9G03G07G08G11G13G19G23G28G10
   2050763.57847   1589483.29644  23015875.6954                   23015875.2234
   -703623.55247   -502953.33346  21062573.5944                   21062571.2384
  -1214529.25347   -898517.98445  22535783.5084                   22535781.7974
  -1257752.56047   -944280.97844  23030705.7194                   23030704.1644
   1371597.56248   1069424.93646  20893063.5084                   20893061.4184
    957589.00147    752262.49346  21366881.9454                   21366877.1174
   2133175.23247   1648900.10645  22437289.6024                   22437286.8134
   -747375.91147   -554012.01644  23356481.4224                   23356480.0044
   1263887.11746    984425.20843  24945085.5314                   24945087.3404
 11  8 22 17  5 30.0000000  0  9G03G07G08G11G13G19G23G28G10
   2080716.61647   1612823.25044  23021575.3134                   23021575.1484
   -816444.06848   -590865.43446  21041105.0944                   21041102.7154
  -1355928.84747  -1008699.46445  22508875.4774                   22508873.6844
  -1399276.36547  -1054559.25344  23003774.7424                   23003772.3484
   1368887.50748   1067313.16146  20892547.9224                   20892545.8244
    934156.16547    734003.11246  21362422.8754                   21362418.8984
   2167234.82547   1675439.95745  22443770.7194                   22443767.8914
   -862338.76747   -643593.42844  23334604.4454                   23334603.3954
   1248502.96846    972437.39542  24942157.6254                   24942159.2734
 11  8 22 17  6  0.0000000  0 10G03G07G08G11G13G19G23G28G24G10
   2111057.58547   1636465.52044  23027349.3674                   23027349.1054
   -928945.90348   -678529.21346  21019696.7034                   21019693.8594
  -1497189.40547  -1118772.63945  22481995.0554                   22481993.2664
  -1540482.22347  -1164589.81544  22976904.3754                   22976901.6804
   1366800.03348   1065686.51946  20892151.0784                   20892148.6054
    911403.74747    716273.93046  21358092.8284                   21358089.3204
   2201673.62147   1702275.27145  22450324.3054                   22450321.7894
   -976977.11447   -732922.00144  23312789.9774                   23312788.1764
   1357898.32056   1081670.30053  24449941.0864                   24449943.9884
   1233388.65346    960659.91042  24939282.3674                   24939283.6954
 11  8 22 17  6 30.0000000  0 10G03G07G08G11G13G19G23G28G24G10
   2141766.85547   1660394.76044  23033193.5704                   23033192.5234
  -1041143.78148   -765956.14146  20998345.5474                   20998343.3914
  -1638326.06947  -1228749.24045  22455136.7504                   22455135.8094
  -1681383.84247  -1274383.28744  22950091.1174                   22950089.3984
   1365316.18548   1064530.22646  20891868.5704                   20891866.2854
    889312.56447    699060.01246  21353889.2974                   21353884.9654
   2236471.82047   1729390.64645  22456946.4924                   22456943.7384
  -1091308.63647   -822011.47044  23291032.8364                   23291031.9774
   1217177.38245    972017.64443  24423162.5234                   24423164.7624
   1218524.95446    949077.64142  24936454.6094                   24936455.7234
 11  8 22 17  7  0.0000000  0 10G03G07G08G11G13G19G23G28G24G10
   2172827.74946   1684597.99044  23039104.2664                   23039103.5864
  -1153049.60547   -853155.48146  20977050.7114                   20977048.1724
  -1779350.71447  -1338638.54745  22428300.8134                   22428299.5234
  -1821991.43547  -1383947.62844  22923335.2504                   22923332.7584
   1364420.25248   1063832.04246  20891698.0314                   20891696.1724
    867867.33347    682349.42846  21349808.5004                   21349804.0394
   2271612.79547   1756773.10745  22463634.1254                   22463631.6524
  -1205347.38147   -910872.80044  23269332.4614                   23269331.1374
   1076480.92345    862384.34243  24396387.7584                   24396392.1174
   1203895.38246    937677.86742  24933671.3054                   24933671.9734
 11  8 22 17  7 30.0000000  0 10G03G07G08G11G13G19G23G28G24G10
   2204231.20546   1709068.14544  23045079.6174                   23045079.7234
  -1264667.70847   -940130.64046  20955810.8204                   20955808.3634
  -1920268.37447  -1448444.52245  22401485.7734                   22401483.5354
  -1962308.27547  -1493285.40644  22896633.2424                   22896631.7034
   1364103.74548   1063585.36246  20891638.0474                   20891635.8014
    847060.03547    666135.93146  21345848.8134                   21345844.5434
   2307087.21447   1784415.39345  22470384.4384                   22470381.6414
  -1319100.13647   -999511.27444  23247685.8444                   23247684.1604
    935805.35545    752766.98343  24369619.7584                   24369621.8914
   1189490.80446    926453.35443  24930929.7664                   24930931.7704
 11  8 22 17  8  0.0000000  0 10G03G07G08G11G13G19G23G28G24G10
   2235967.37846   1733797.52743  23051119.3834                   23051117.9414
  -1376003.55747  -1026885.84346  20934624.3284                   20934621.8674
  -2061085.04647  -1558171.79245  22374688.9844                   22374687.2854
  -2102338.53147  -1602399.89244  22869986.2344                   22869984.7584
   1364357.44748   1063783.00246  20891686.4144                   20891684.1484
    826881.66247    650412.50646  21342009.4774                   21342005.1764
   2342885.25847   1812309.89745  22477196.1954                   22477194.0434
  -1432575.08547  -1087933.28344  23226092.3914                   23226090.6214
    795146.57945    643162.87943  24342853.1094                   24342856.4804
   1175301.47446    915396.58242  24928229.7504                   24928229.8054
 11  8 22 17  8 30.0000000  0 10G03G07G08G11G13G19G23G28G24G10
   2268029.28146   1758780.78343  23057220.8054                   23057219.6844
  -1487059.26847  -1113422.77146  20913490.8914                   20913488.6024
  -2201803.06747  -1667822.19245  22347911.6804                   22347910.0124
  -2242083.06747  -1711291.72244  22843393.7194                   22843392.0594
   1365175.40748   1064420.32046  20891841.8914                   20891839.8284
    807326.39847    635174.62746  21338287.8594                   21338283.9224
   2379000.15047   1840451.24145  22484068.9774                   22484066.5594
  -1545776.54047  -1176142.17644  23204550.6414                   23204549.2734
    654503.09646    533570.67443  24316089.3674                   24316091.8444
   1161320.70146    904502.37142  24925569.8054                   24925570.6214
 11  8 22 17  9  0.0000000  0 10G03G07G08G11G13G19G23G28G24G10
   2300409.10546   1784011.74343  23063381.6724                   23063381.5904
  -1597837.44947  -1199743.43146  20892410.2274                   20892407.9304
  -2342426.03147  -1777398.53045  22321151.5394                   22321149.7734
  -2381543.66747  -1819962.28044  22816855.0164                   22816853.7934
   1366550.20848   1065491.55246  20892103.7974                   20892101.5864
    788387.49747    620417.02046  21334683.8594                   21334680.0314
   2415424.27447   1868833.57245  22491000.2114                   22490997.9614
  -1658710.09447  -1264142.32044  23183060.0634                   23183058.1414
    513873.08546    423988.88243  24289328.2584                   24289330.6214
   1147540.83346    893764.66442  24922946.6024                   24922948.6884
 11  8 22 17  9 30.0000000  0  9G03G07G08G11G13G19G23G28G24
   2333095.60747   1809481.69944  23069602.9454                   23069601.9184
  -1708345.88848  -1285853.91146  20871381.6414                   20871379.1764
  -2482960.97647  -1886906.26145  22294408.1954                   22294406.9924
  -2520726.21247  -1928416.17644  22790369.3444                   22790368.5004
   1368470.80948   1066988.06746  20892468.9224                   20892466.6024
    770054.06847    606131.20046  21331195.4384                   21331191.5864
   2452145.74547   1897447.60745  22497989.3054                   22497985.6024
  -1771385.30147  -1351941.17044  23161619.1174                   23161617.2544
    373250.47346    314412.93743  24262568.6804                   24262570.8754
 11  8 22 17 10  0.0000000  0  9G03G07G08G11G13G19G23G28G24
   2366080.46647   1835184.13744  23075879.2814                   23075878.8484
  -1818587.54648  -1371756.49446  20850403.2974                   20850400.6804
  -2623411.99547  -1996348.61545  22267681.7114                   22267679.4804
  -2659633.22647  -2036655.35344  22763936.8914                   22763934.6524
   1370929.74848   1068904.06646  20892936.8984                   20892934.6294
    752318.73448    592311.45046  21327820.3914                   21327815.8674
   2489156.37947   1926286.96045  22505031.4924                   22505028.7504
  -1883808.54947  -1439543.65144  23140225.3134                   23140223.6294
    232632.30546    204840.37343  24235810.0084                   24235812.5204
 11  8 22 17 10 30.0000000  0  9G03G07G08G11G13G19G23G28G24
   2399363.74047   1861119.07644  23082212.7584                   23082212.3754
  -1928557.41448  -1457447.30746  20829477.0234                   20829474.1684
  -2763774.82647  -2105722.25245  22240971.0704                   22240969.6804
  -2798258.37047  -2144674.92544  22737557.1564                   22737555.3404
   1373927.40748   1071239.86046  20893507.6024                   20893505.4964
    735182.42448    578958.44946  21324559.5234                   21324555.2424
   2526455.94447   1955351.44245  22512129.6414                   22512126.5784
  -1995977.48347  -1526948.00344  23118880.3594                   23118878.0784
     92024.37546     95275.80443  24209053.3054                   24209055.4844
 11  8 22 17 11  0.0000000  0  9G03G07G08G11G13G19G23G28G24
   2432936.55346   1887279.63344  23088601.3134                   23088601.1334
  -2038260.31748  -1542930.10146  20808601.1024                   20808598.3984
  -2904054.00547  -2215030.68745  22214277.2114                   22214276.0164
  -2936604.63546  -2252477.13144  22711230.9144                   22711229.6884
   1377455.71948   1073989.13946  20894178.8204                   20894176.3984
    718637.21648    566066.05246  21321411.1414                   21321406.7584
   2564035.62547   1984634.21045  22519280.5944                   22519277.7974
  -2107898.73747  -1614159.31244  23097582.7424                   23097580.1564
    -48576.54146    -14283.29143  24182297.9224                   24182300.2934
 11  8 22 17 11 30.0000000  0  9G03G07G08G11G13G19G23G28G24
   2466791.84346   1913660.33844  23095044.2894                   23095043.4104
  -2147697.99848  -1628206.19846  20787775.7504                   20787773.1914
  -3044251.94247  -2324275.82345  22187598.3444                   22187596.5474
  -3074673.06747  -2360062.87444  22684956.5784                   22684956.1024
   1381508.32348   1077146.96246  20894950.1884                   20894948.3794
    702677.00848    553629.51046  21318374.1484                   21318369.4924
   2601888.67847   2014129.98945  22526483.6484                   22526481.6684
  -2219576.98347  -1701181.27744  23076330.3754                   23076328.9964
   -189171.35446   -123837.58143  24155544.2344                   24155545.8554
 11  8 22 17 12  0.0000000  0  9G03G07G08G11G13G19G23G28G24
   2500915.35647   1940250.03544  23101538.1024                   23101537.4224
  -2256879.85847  -1713282.97946  20766998.8834                   20766996.1134
  -3184378.34747  -2433465.21545  22160933.1414                   22160931.2894
  -3212471.97747  -2467438.61544  22658734.2664                   22658732.4224
   1386071.44548   1080702.58746  20895818.4614                   20895816.5274
    687288.55448    541638.48246  21315445.7424                   21315441.8244
   2640000.43947   2043827.31845  22533735.8594                   22533733.6054
  -2331024.50347  -1788023.45544  23055122.5634                   23055120.5984
   -329769.03546   -233394.15243  24128788.5944                   24128790.7734
 11  8 22 17 12 30.0000000  0  9G03G07G08G11G13G19G23G28G24
   2535299.64646   1967042.88144  23108080.6804                   23108080.4304
  -2365809.25448  -1798163.02546  20746270.4924                   20746268.1334
  -3324437.05047  -2542601.87245  22134280.6804                   22134278.8554
  -3350003.37647  -2574605.88444  22632563.4144                   22632561.7304
   1391137.60448   1084650.18846  20896783.1804                   20896780.2384
    672464.67747    530087.37346  21312624.8204                   21312620.2584
   2678363.06347   2073720.12545  22541036.1564                   22541034.3054
  -2442247.14747  -1874690.41244  23033957.7194                   23033956.7774
   -470371.75046   -342954.68943  24102032.8594                   24102035.3204
 11  8 22 17 13  0.0000000  0  9G03G07G08G11G13G19G23G28G24
   2569936.59246   1994032.65644  23114672.2424                   23114671.8444
  -2474489.05848  -1882848.59046  20725589.6724                   20725586.5514
  -3464431.13747  -2651688.15645  22107640.7344                   22107639.6524
  -3487269.09147  -2681566.15044  22606442.4774                   22606440.4144
   1396699.86148   1088984.36246  20897841.2274                   20897838.8404
    658198.44548    518970.79946  21309909.9144                   21309905.4964
   2716968.78647   2103802.36844  22548382.5784                   22548380.6024
  -2553250.43147  -1961186.46644  23012834.7424                   23012833.2154
   -610981.58947   -452520.73043  24075276.0554                   24075277.4964
 11  8 22 17 13 30.0000000  0  9G03G07G08G11G13G19G23G28G24
   2604817.30046   2021212.32444  23121309.9534                   23121309.3014
  -2582923.80448  -1967343.20346  20704955.0474                   20704952.2584
  -3604365.62847  -2760727.99945  22081012.2734                   22081010.4614
  -3624272.33447  -2788321.87544  22580371.6094                   22580369.6454
   1402749.26548   1093698.13546  20898992.1334                   20898990.3874
    644481.13648    508281.95246  21307299.6174                   21307295.5594
   2755808.72647   2134067.11645  22555774.1254                   22555771.8444
  -2664041.33047  -2047516.99244  22991751.9534                   22991750.0784
   -751602.13946   -562095.14243  24048516.1564                   24048518.1524
 11  8 22 17 14  0.0000000  0  9G03G07G08G11G13G19G23G28G24
   2639936.73146   2048578.01443  23127992.8204                   23127992.7464
  -2691114.03148  -2051647.29146  20684367.2974                   20684364.2234
  -3744241.22247  -2869721.97145  22054395.0864                   22054393.2774
  -3761012.30647  -2894872.47844  22554350.5234                   22554349.0594
   1409281.24348   1098787.93946  20900235.1334                   20900232.8794
    631308.80948    498017.76946  21304793.1334                   21304788.6054
   2794877.49647   2164510.19345  22563209.1174                   22563206.5394
  -2774622.91247  -2133684.45544  22970708.7344                   22970707.6254
   -892232.67346   -671677.32243  24021755.2734                   24021757.0084
 11  8 22 17 14 30.0000000  0  9G03G07G08G11G13G19G23G28G24
   2675287.20646   2076123.79243  23134720.2114                   23134719.2304
  -2799062.66748  -2135763.11946  20663825.3204                   20663822.6954
  -3884061.18747  -2978672.56245  22027788.0634                   22027786.2154
  -3897491.06147  -3001219.48644  22528379.4844                   22528377.3674
   1416288.58248   1104248.15846  20901568.6804                   20901566.4964
    618674.48048    488172.80446  21302389.0234                   21302384.6334
   2834166.69147   2195125.05945  22570685.7814                   22570683.0314
  -2885000.97247  -2219693.29444  22949704.4614                   22949702.0594
  -1032875.26346   -781268.92243  23994992.1884                   23994993.4494
 11  8 22 17 15  0.0000000  0  9G03G07G08G11G13G19G23G28G24
   4286285.61346   3331447.11844  23441282.8134                   23441282.4024
  -1331343.24148   -992085.64346  20943122.7664                   20943119.9694
  -2448398.90947  -1859974.66245  22300985.4144                   22300983.5204
  -2458280.12047  -1879756.39244  22802252.6254                   22802250.1134
   2999189.27448   2337677.19946  21202784.7814                   21202783.1994
   2181996.82147   1706346.02046  21599878.8284                   21599874.7894
   4449093.62847   3453509.55044  22877996.0554                   22877993.2704
  -1419751.72647  -1077940.59044  23228531.2584                   23228530.4264
    401898.34846    336736.50843  24268020.2584                   24268021.6484
 11  8 22 17 15 30.0000000  0  9G03G07G08G11G13G19G23G28G24
   4322087.29646   3359344.41944  23448096.0084                   23448095.4844
  -1438804.96147  -1075822.06446  20922673.6564                   20922670.9224
  -2588105.21247  -1968836.69345  22274400.3754                   22274398.0554
  -2594229.04946  -1985690.57744  22776382.2194                   22776380.1254
   3007137.86948   2343870.86046  21204297.1334                   21204295.4264
   2170429.32348   1697332.35546  21597677.8594                   21597673.6024
   4488814.10147   3484460.47144  22885554.7664                   22885551.1094
  -1529726.77247  -1163635.41544  23207604.6174                   23207602.9534
    261237.92146    227131.01543  24241252.9844                   24241253.3014
 11  8 22 17 16  0.0000000  0  9G03G07G08G11G13G19G23G28G24
   4358104.21446   3387409.48843  23454949.8594                   23454948.5474
  -1546026.48648  -1159371.31246  20902269.9304                   20902267.2704
  -2727758.39447  -2077657.34745  22247825.1254                   22247823.1094
  -2729914.69547  -2091419.61744  22750561.3834                   22750560.2074
   3015547.26248   2350423.59446  21205897.6024                   21205895.5274
   2159385.93748   1688727.10246  21595576.7274                   21595572.5904
   4528739.55247   3515571.10244  22893151.8284                   22893148.9964
  -1639507.91347  -1249179.14544  23186713.8134                   23186712.7154
    120566.70546    117517.14542  24214484.5784                   24214485.4534
 11  8 22 17 16 30.0000000  0  9G03G07G08G11G13G19G23G28G24
   4394334.35947   3415640.70744  23461843.7034                   23461843.5704
  -1653004.77148  -1242731.02146  20881912.9384                   20881910.1644
  -2867356.26847  -2186434.89245  22221260.2584                   22221258.6374
  -2865333.48247  -2196940.71444  22724792.1254                   22724790.6564
   3024415.83448   2357334.10546  21207585.2974                   21207583.4144
   2148865.35348   1680529.20746  21593574.4694                   21593570.9384
   4568867.85747   3546839.76644  22900788.6094                   22900785.3324
  -1749095.08647  -1334571.72944  23165859.8364                   23165858.4144
    -20111.43746      7897.84843  24187714.2814                   24187715.4964
 11  8 22 17 17  0.0000000  0  9G03G07G08G11G13G19G23G28G24
   4430775.93047   3444036.65943  23468778.8834                   23468778.0784
  -1759737.33748  -1325899.26846  20861602.0084                   20861599.0744
  -3006896.11247  -2295167.22645  22194706.6414                   22194705.0354
  -3000481.34947  -2302250.70544  22699074.7344                   22699073.1024
   3033741.76848   2364601.01046  21209360.3754                   21209358.0314
   2138865.97147   1672737.44746  21591671.9454                   21591667.9694
   4609196.91547   3578264.85744  22908462.6094                   22908459.7734
  -1858487.97047  -1419812.91744  23145042.8054                   23145041.4734
   -160793.07246   -101724.12542  24160942.1024                   24160944.5004
 11  8 22 17 17 30.0000000  0  9G03G07G08G11G13G19G23G28G24
   4467422.36047   3472592.26543  23475751.8834                   23475751.7624
  -1866226.74848  -1408878.02546  20841338.1094                   20841335.4534
  -3146380.87347  -2403856.65245  22168163.4144                   22168161.9494
  -3135359.25747  -2407350.34944  22673408.3674                   22673406.8674
   3043518.46148   2372219.15746  21211220.4064                   21211218.4144
   2129381.71147   1665347.09246  21589867.2814                   21589863.2114
   4649719.62147   3609840.88044  22916174.8674                   22916172.0084
  -1967691.57347  -1504906.58444  23124262.4774                   23124261.2154
   -301479.37846   -211349.73043  24134171.6334                   24134172.7584
 11  8 22 17 18  0.0000000  0  9G03G07G08G11G13G19G23G28G24
   4504269.74047   3501304.44543  23482763.5394                   23482762.8054
  -1972471.53348  -1491666.17646  20821120.3984                   20821117.5314
  -3285809.14847  -2512502.06045  22141631.6954                   22141629.6884
  -3269964.93247  -2512237.83044  22647793.5704                   22647791.6484
   3053742.95548   2380186.23146  21213166.7034                   21213164.5044
   2120409.76948   1658355.95246  21588159.7664                   21588155.5744
   4690432.39447   3641564.96445  22923921.8134                   22923919.4694
  -2076707.44547  -1589854.00444  23103517.7504                   23103515.7344
   -442168.17945   -320977.31643  24107399.4064                   24107400.9384
 11  8 22 17 18 30.0000000  0  9G03G07G08G11G13G19G23G28G24
   4541315.56047   3530171.25443  23489814.3134                   23489812.1094
  -2078469.56748  -1574262.05546  20800949.2274                   20800946.9614
  -3425179.05647  -2621101.95945  22115110.4384                   22115108.0944
  -3404294.61247  -2616910.30344  22622231.8834                   22622230.0394
   3064413.05248   2388500.52546  21215196.5864                   21215194.3834
   2111948.01547   1651762.36246  21586549.5474                   21586545.1684
   4731332.68647   3673435.17245  22931705.1484                   22931702.4924
  -2185535.89647  -1674655.36144  23082807.6564                   23082805.9574
   -582856.19145   -430604.32343  24080626.6414                   24080628.9024
 11  8 22 17 19  0.0000000  0  9G03G07G08G11G13G19G23G28G24
   4578554.45847   3559188.53943  23496900.2664                   23496899.2854
  -2184220.95348  -1656665.74246  20780825.7664                   20780823.0044
  -3564491.21847  -2729656.87545  22088599.8284                   22088597.5514
  -3538348.22047  -2721367.62344  22596722.1414                   22596720.6604
   3075523.59048   2397158.04046  21217311.0004                   21217308.9494
   2103991.74347   1645562.64546  21585035.3134                   21585031.6134
   4772415.04747   3705447.25845  22939523.2344                   22939520.8794
  -2294180.19247  -1759313.22544  23062133.0784                   23062131.6134
   -723542.87446   -540230.14143  24053855.0634                   24053856.3324
 11  8 22 17 19 30.0000000  0  9G03G07G08G11G13G19G23G28G24
   4615982.33646   3588353.00943  23504022.3754                   23504021.5594
  -2289725.84048  -1738877.35246  20760748.6954                   20760746.3284
  -3703745.64347  -2838166.81145  22062100.6094                   22062099.0274
  -3672124.50747  -2825608.85944  22571265.3674                   22571263.4734
   3087070.44048   2406155.52346  21219508.6414                   21219506.5554
   2096536.90747   1639753.65346  21583616.8674                   21583613.4844
   4813674.92447   3737597.68045  22947374.8364                   22947372.6174
  -2402642.94147  -1843829.62744  23041493.4064                   23041492.3204
   -864227.03346   -649854.12343  24027083.3444                   24027086.1884
 11  8 22 17 20  0.0000000  0  9G03G07G08G11G13G19G23G28G24
   4653595.98646   3617662.27943  23511179.7584                   23511179.4184
  -2394982.44248  -1820895.50446  20740719.2814                   20740716.6564
  -3842941.38747  -2946631.00445  22035612.9224                   22035610.8444
  -3805620.89347  -2929631.99545  22545861.9454                   22545860.0664
   3099050.51548   2415490.58846  21221788.3914                   21221786.4304
   2089580.51047   1634333.06646  21582293.4844                   21582289.2234
   4855108.93947   3769883.77845  22955258.8914                   22955256.5634
  -2510925.47347  -1928205.63144  23020888.3134                   23020886.9414
  -1004906.33046   -759474.29143  24000313.2114                   24000314.9694
 11  8 22 17 20 30.0000000  0  9G03G07G08G11G13G19G23G28G24
   4691389.88846   3647111.98843  23518372.2734                   23518371.4494
  -2499991.76048  -1902720.96046  20720736.4304                   20720733.7154
  -3982079.23747  -3055050.11645  22009135.5554                   22009133.2274
  -3938836.62747  -3033436.43644  22520511.5634                   22520509.7464
   3111458.77547   2425159.30446  21224149.6174                   21224147.3914
   2083118.00647   1629297.31546  21581063.2734                   21581059.5744
   4896711.67646   3802301.35044  22963175.7734                   22963174.0354
  -2619031.27947  -2012443.86844  23000316.1644                   23000315.1844
  -1145580.30846   -869090.29643  23973544.2894                   23973545.5744
 11  8 22 17 21  0.0000000  0  9G03G07G08G11G13G19G23G28G24
   4729358.76546   3676698.03743  23525596.9224                   23525597.1994
  -2604754.52748  -1984354.29346  20700801.0234                   20700798.0514
  -4121160.16547  -3163424.84045  21982669.6484                   21982667.8914
  -4071771.98247  -3137022.40145  22495214.8134                   22495213.3754
   3124289.51248   2435157.21646  21226591.2344                   21226588.6564
   2077144.15548   1624642.34246  21579926.3284                   21579922.4884
   4938477.10847   3834845.70244  22971123.4614                   22971121.6914
  -2726964.05547  -2096547.32344  22979777.7274                   22979776.3874
  -1286249.12247   -978702.29143  23946775.1804                   23946776.9964
 11  8 22 17 21 30.0000000  0  9G03G07G08G11G13G19G23G28G24
   4767499.27846   3706417.82843  23532854.8834                   23532855.5474
  -2709269.07448  -2065794.20246  20680912.5164                   20680909.3834
  -4260183.20847  -3271754.47945  21956214.4144                   21956211.8444
  -4204424.20947  -3240387.73045  22469972.0164                   22469969.9344
   3137540.07748   2445482.29246  21229112.3754                   21229110.7894
   2071656.31048   1620366.07446  21578882.0554                   21578878.2974
   4980401.79447   3867514.15644  22979102.0394                   22979099.6214
  -2834724.59247  -2180516.55244  22959271.4924                   22959269.6604
  -1426910.07646  -1088308.18043  23920009.1484                   23920010.2034
 11  8 22 17 22  0.0000000  0  9G03G07G08G11G13G19G23G28G24
   4805808.26346   3736268.88443  23540145.3444                   23540145.5704
  -2813534.06848  -2147039.68046  20661071.4064                   20661068.8164
  -4399146.74847  -3380037.75745  21929770.2664                   21929768.2544
  -4336790.37747  -3343530.18544  22444783.3594                   22444781.9264
   3151207.69548   2456132.32146  21231713.3674                   21231712.1524
   2066651.91148   1616466.52146  21577930.1414                   21577925.8984
   5022482.84947   3900304.44044  22987109.2114                   22987107.7114
  -2942314.22147  -2264352.62245  22938797.9534                   22938795.6454
  -1567560.58647  -1197905.92943  23893243.8914                   23893245.6684
 11  8 22 17 22 30.0000000  0  9G03G07G08G11G13G19G23G28G24
   4844277.79546   3766245.02543  23547466.3914                   23547465.6134
  -2917552.94148  -2228093.33746  20641277.1804                   20641274.7424
  -4538054.37347  -3488277.44845  21903337.1644                   21903334.8324
  -4468873.13547  -3446451.76744  22419648.8284                   22419647.5274
   3165283.82448   2467100.67045  21234391.6564                   21234389.8134
   2062122.96948   1612937.46346  21577068.4694                   21577063.7974
   5064712.01247   3933210.12044  22995145.8444                   22995143.2424
  -3049739.45647  -2348060.59544  22918354.8524                   22918353.3324
  -1708203.04946  -1307497.42744  23866479.9304                   23866482.3754
 11  8 22 17 23  0.0000000  0  9G03G07G08G11G13G19G23G28G24
   4882907.13746   3796345.73643  23554817.2274                   23554816.6724
  -3021321.36448  -2308951.86346  20621530.7034                   20621528.2194
  -4676902.37547  -3596470.69345  21876915.1884                   21876913.6454
  -4600667.57147  -3549148.69645  22394569.4924                   22394567.8874
   3179767.96447   2478386.95346  21237148.5704                   21237146.5784
   2058069.06647   1609778.56146  21576297.0784                   21576292.9774
   5107088.11847   3966230.31344  23003209.3054                   23003207.2854
  -3156998.78747  -2431639.28545  22897944.5704                   22897942.9454
  -1848832.61346  -1417078.81844  23839719.6954                   23839721.3324
 11  8 22 17 23 30.0000000  0  9G03G07G08G11G13G19G23G28G24
   4921690.92947   3826566.80944  23562197.1094                   23562197.4264
  -3124840.06448  -2389615.78846  20601831.5474                   20601828.9774
  -4815691.48247  -3704618.04745  21850504.3054                   21850502.2894
  -4732172.95247  -3651620.38745  22369544.2814                   22369543.1094
   3194655.28847   2489987.40046  21239981.5864                   21239979.9104
   2054485.30747   1606985.97146  21575614.9694                   21575611.2974
   5149605.81747   3999360.85445  23011300.7424                   23011298.7384
  -3264095.57047  -2515091.29144  22877565.2814                   22877563.1954
  -1989448.59546  -1526649.65543  23812960.3984                   23812962.8444
 11  8 22 17 24  0.0000000  0  9G03G07G08G11G13G19G23G28G24
   4960621.07046   3856901.86943  23569605.5944                   23569604.8554
  -3228112.89847  -2470088.13946  20582179.9844                   20582177.5044
  -4954425.28347  -3812722.29345  21824104.0474                   21824102.7854
  -4863391.74447  -3753868.75545  22344574.3524                   22344572.8204
   3209937.35447   2501895.44646  21242889.2664                   21242887.7814
   2051363.77148   1604553.59046  21575020.8594                   21575016.5594
   5192256.98447   4032595.37044  23019417.0554                   23019415.3594
  -3371036.30147  -2598421.71144  22857214.4454                   22857212.8874
  -2130053.48846  -1636211.82543  23786204.5004                   23786206.5594
 11  8 22 17 24 30.0000000  0  9G03G07G08G11G13G19G23G28G24
   4999696.70546   3887350.30643  23577042.2894                   23577041.3914
  -3331135.69048  -2550365.65246  20562575.3284                   20562572.2854
  -5093100.39147  -3920780.80545  21797715.5164                   21797713.6254
  -4994319.50147  -3855890.34545  22319659.9454                   22319657.2074
   3225613.34847   2514110.45345  21245872.7114                   21245870.7664
   2048703.77048   1602480.82946  21574514.7814                   21574510.3204
   5235039.86847   4065932.51244  23027557.5394                   23027557.1644
  -3477820.09447  -2681629.85544  22836894.1724                   22836892.6214
  -2270643.09947  -1745762.13343  23759451.4144                   23759453.3284
 11  8 22 17 25  0.0000000  0  9G03G07G08G11G13G19G23G28G24
   5038911.28446   3917907.09443  23584503.9144                   23584503.4344
  -3433910.97447  -2630450.29446  20543017.7664                   20543014.5944
  -5231718.76647  -4028795.11945  21771336.8594                   21771335.3404
  -5124956.84247  -3957685.66245  22294800.3444                   22294798.2274
   3241676.53847   2526627.16946  21248929.5084                   21248927.6374
   2046498.94448   1600762.74846  21574094.9534                   21574090.8954
   5277948.01847   4099367.27144  23035723.8754                   23035722.1524
  -3584451.56047  -2764719.29044  22816603.1414                   22816601.2034
  -2411217.92347  -1855300.89643  23732701.1174                   23732702.7624
 11  8 22 17 25 30.0000000  0  9G03G07G08G11G13G19G23G28G24
   5078264.67546   3948571.98543  23591992.8204                   23591992.6334
  -3536433.22047  -2710337.77146  20523508.3674                   20523505.3484
  -5370275.83247  -4136761.65145  21744970.6334                   21744969.2504
  -5255298.57747  -4059250.58845  22269997.0864                   22269994.9734
   3258127.22447   2539445.82945  21252059.6954                   21252058.3014
   2044750.13448   1599400.00546  21573762.5634                   21573758.9064
   5320981.56147   4132899.75244  23043912.8754                   23043911.2814
  -3690928.58747  -2847688.36145  22796341.5084                   22796339.5474
  -2551772.33047  -1964823.75943  23705954.6334                   23705956.1024
 11  8 22 17 26  0.0000000  0  9G03G07G08G11G13G19G23G28G24
   5117746.66546   3979337.13043  23599505.8984                   23599506.0554
  -3638708.60748  -2790032.88146  20504045.6024                   20504042.9574
  -5508777.36347  -4244684.91945  21718614.4224                   21718613.0594
  -5385348.84947  -4160588.40944  22245249.3754                   22245247.2504
   3274954.89647   2552558.24345  21255262.3444                   21255260.6024
   2043446.98048   1598384.51146  21573514.2344                   21573510.6724
   5364129.40446   4166521.28844  23052123.2664                   23052122.1374
  -3797259.87447  -2930543.89544  22776106.5314                   22776105.3054
  -2692311.13346  -2074334.45943  23679210.6644                   23679211.9414
 11  8 22 17 26 30.0000000  0  9G03G07G08G11G13G19G23G28G24
   6732774.42746   5237800.27543  23906835.0474                   23906835.8954
  -2165310.93048  -1641930.79546  20784424.0234                   20784421.6524
  -4071796.65248  -3124959.69745  21992062.8984                   21992061.1954
  -3939679.46947  -3034092.75045  22520350.6884                   22520348.8364
   4867577.31647   3793562.66645  21558328.0314                   21558326.6604
   3618007.75648   2825314.94346  21873143.4774                   21873140.0274
   6982808.59646   5427829.55844  23360147.4384                   23360146.9304
  -2328021.96247  -1785683.18445  23055693.7894                   23055691.8364
  -1257405.38246   -956226.04943  23952264.0784                   23952264.4614
 11  8 22 17 27  0.0000000  0  9G03G07G08G11G13G19G23G28G24
   6772505.10346   5268759.17743  23914395.6884                   23914395.0744
  -2267086.95548  -1721236.80846  20765056.8364                   20765054.1524
  -4210182.82847  -3232793.08645  21965728.7894                   21965726.9574
  -4069138.36347  -3134969.77445  22495715.1024                   22495713.4614
   4885150.81547   3807256.24045  21561671.8524                   21561670.5394
   3617587.99048   2824987.82546  21873063.9844                   21873059.9884
   7026176.64346   5461622.66944  23368401.5394                   23368399.2194
  -2434064.94047  -1868314.06845  23035514.4454                   23035512.6804
  -1397903.78646  -1065705.23343  23925527.6024                   23925529.9804
 11  8 22 17 27 30.0000000  0  9G03G07G08G11G13G19G23G28G24
   6812355.15946   5299811.00943  23921978.6484                   23921978.5704
  -2368611.30348  -1800346.69946  20745737.1254                   20745734.8364
  -4348508.99748  -3340579.70845  21939406.4384                   21939404.0864
  -4198298.47447  -3235613.96544  22471137.2194                   22471134.6644
   4903092.32348   3821236.56945  21565086.4064                   21565084.9884
   3617605.26947   2825001.24546  21873066.4064                   21873062.6844
   7069649.78347   5495497.66344  23376673.9454                   23376671.4774
  -2539965.69147  -1950834.09845  23015361.8754                   23015360.2074
  -1538378.67746  -1175166.17243  23898796.6414                   23898798.7974
 11  8 22 17 28  0.0000000  0  9G03G07G08G11G13G19G23G28G24
   6852318.78646   5330951.37043  23929584.3984                   23929584.1804
  -2469885.56348  -1879261.72846  20726465.5704                   20726463.0084
  -4486776.79547  -3448320.84345  21913094.9384                   21913093.1564
  -4327160.13247  -3336025.58345  22446615.5314                   22446614.2624
   4921395.23947   3835498.50245  21568568.9614                   21568567.6094
   3618053.45148   2825350.42746  21873152.5784                   21873148.2154
   7113221.09647   5529449.20944  23384965.2814                   23384963.8634
  -2645728.81147  -2033246.91445  22995236.1884                   22995234.8794
  -1678830.36946  -1284608.97043  23872068.6414                   23872070.1024
 11  8 22 17 28 30.0000000  0  9G03G07G08G11G13G19G23G28G24
   6892392.73946   5362177.87443  23937209.8834                   23937209.0704
  -2570907.96748  -1957980.48746  20707241.6254                   20707239.0434
  -4624985.20947  -3556015.70845  21886794.4384                   21886793.0864
  -4455720.74247  -3436202.65045  22422151.3594                   22422149.3554
   4940056.42447   3850039.61245  21572120.4534                   21572118.8984
   3618929.83448   2826033.31646  21873318.8594                   21873314.6804
   7156887.31247   5563474.64244  23393274.2814                   23393272.8754
  -2751355.42347  -2115553.33545  22975135.9774                   22975134.0044
  -1819256.03746  -1394031.56643  23845346.9534                   23845348.7114
 11  8 22 17 29  0.0000000  0  9G03G07G08G11G13G19G23G28G24
   6932572.53346   5393486.73043  23944856.5864                   23944855.6294
  -2671678.99048  -2036503.37846  20688065.4384                   20688062.8134
  -4763134.17347  -3663664.24645  21860505.5864                   21860503.6174
  -4583979.44447  -3536144.45545  22397744.3364                   22397742.7194
   4959071.34347   3864856.37445  21575738.7504                   21575737.3914
   3620229.63148   2827046.08845  21873566.6954                   21873562.5164
   7200643.61047   5597570.26344  23401601.4534                   23401600.0234
  -2856848.51947  -2197755.73545  22955061.3054                   22955059.2774
  -1959655.01846  -1503433.28243  23818630.6334                   23818632.2384
 11  8 22 17 29 30.0000000  0  9G03G07G08G11G13G19G23G28G24
   6972858.52046   5424878.34743  23952522.3594                   23952522.2154
  -2772193.09948  -2114826.08346  20668938.4304                   20668935.6884
  -4901218.51748  -3771262.43545  21834228.7584                   21834227.2584
  -4711930.21847  -3635846.31645  22373395.9694                   22373394.1294
   4978440.43348   3879949.10045  21579425.2034                   21579423.3014
   3621953.73247   2828389.49545  21873894.4454                   21873890.5354
   7244490.44447   5631736.48644  23409945.4454                   23409944.0944
  -2962206.02347  -2279852.47345  22935012.2424                   22935010.7974
  -2100021.07247  -1612809.39643  23791919.2894                   23791919.9774
 11  8 22 17 30  0.0000000  0  9G03G07G08G11G13G19G23G28G24
   7013247.31946   5456350.04843  23960208.7344                   23960207.8874
  -2872449.13748  -2192947.69646  20649859.8134                   20649857.7584
  -5039237.05148  -3878809.34245  21807965.2424                   21807963.3594
  -4839570.82047  -3735306.48145  22349107.1024                   22349105.2424
   4998159.92947   3895314.89645  21583177.5634                   21583176.1804
   3624098.81148   2830060.95846  21874302.6414                   21874299.2544
   7288424.04647   5665970.28744  23418305.8524                   23418305.0124
  -3067429.29247  -2361844.61145  22914988.7114                   22914987.2504
  -2240351.61947  -1722157.80543  23765214.4774                   23765216.4454
 11  8 22 17 30 30.0000000  0  9G03G07G08G11G13G19G23G28G24
   7053734.70146   5487898.59843  23967912.5474                   23967912.5664
  -2972446.62248  -2270867.81546  20630831.6094                   20630829.1764
  -5177189.21048  -3986304.52045  21781713.4924                   21781711.8874
  -4966900.03847  -3834524.03945  22324877.2344                   22324874.9224
   5018225.81347   3910950.58645  21586995.9144                   21586994.1524
   3626660.84748   2832057.31445  21874790.1804                   21874786.5664
   7332439.88447   5700268.13144  23426682.2894                   23426681.0864
  -3172520.66147  -2443733.96344  22894990.3594                   22894989.1294
  -2380645.39347  -1831477.60243  23738518.2734                   23738520.5314
 11  8 22 17 31  0.0000000  0  9G03G07G08G11G13G19G23G28G24
   7094324.52246   5519526.94643  23975636.6954                   23975636.4414
  -3072177.59648  -2348580.29446  20611853.0164                   20611850.6174
  -5315067.03748  -4093741.77445  21755475.8914                   21755474.6054
  -5093908.87747  -3933491.91945  22300708.2974                   22300706.0274
   5038640.93847   3926858.40345  21590881.2664                   21590879.6604
   3629643.30348   2834381.26945  21875357.4694                   21875354.0824
   7376541.48847   5734632.82344  23435074.5554                   23435073.1524
  -3277474.88847  -2525516.45445  22875018.1724                   22875016.8524
  -2520893.50847  -1940761.75343  23711829.2034                   23711831.5234
 11  8 22 17 31 30.0000000  0  9G03G07G08G11G13G19G23G28G24
   7135007.57846   5551227.93943  23983377.9924                   23983377.9024
  -3171646.77248  -2426088.75246  20592924.7734                   20592922.1764
  -5452875.10348  -4201124.67345  21729252.1174                   21729250.0594
  -5220600.82447  -4032212.89445  22276599.4844                   22276597.7114
   5059396.22248   3943031.27645  21594830.6724                   21594829.2704
   3633037.18147   2837025.81246  21876003.5084                   21876000.4064
   7420719.23447   5769056.84444  23443481.1884                   23443479.7624
  -3382299.55447  -2607198.02245  22855071.0314                   22855069.2934
  -2661098.85447  -2050012.66244  23685149.8834                   23685150.9224
 11  8 22 17 32  0.0000000  0  9G03G07G08G11G13G19G23G28G24
   7175786.80046   5583003.89243  23991138.3984                   23991138.9844
  -3270846.50948  -2503387.26546  20574047.9224                   20574045.1374
  -5590606.49448  -4308447.83445  21703042.7664                   21703040.5864
  -5346967.46747  -4130680.36945  22252552.5084                   22252550.6024
   5080494.35647   3959471.31345  21598845.6414                   21598844.0514
   3636845.05348   2839992.95046  21876728.3364                   21876724.4144
   7464975.73947   5803542.27244  23451902.9224                   23451901.6994
  -3486989.97547  -2688774.95045  22835149.0314                   22835147.2624
  -2801253.25947  -2159223.77043  23658479.3134                   23658480.3484
 11  8 22 17 32 30.0000000  0  9G03G07G08G11G13G19G23G28G24
   7216656.86846   5614850.63743  23998916.1644                   23998915.9924
  -3369777.57148  -2580476.42446  20555221.8204                   20555219.4694
  -5728261.48448  -4415711.45245  21676848.1334                   21676845.6764
  -5473008.72247  -4228894.32345  22228567.9694                   22228565.5984
   5101929.83647   3976174.20945  21602924.7504                   21602923.0434
   3641061.95347   2843278.80545  21877530.8834                   21877527.3674
   7509305.26847   5838084.56844  23460338.9924                   23460337.1524
  -3591549.80647  -2770250.13945  22815252.5084                   22815250.7704
  -2941356.11247  -2268394.70844  23631818.4064                   23631819.4304
 11  8 22 17 33  0.0000000  0  9G03G07G08G11G13G19G23G28G24
   7257616.85946   5646767.43043  24006710.3834                   24006709.8674
  -3468435.98648  -2657353.09846  20536447.8984                   20536445.2544
  -5865835.96648  -4522912.33645  21650668.2974                   21650667.2344
  -5598720.19547  -4326851.29345  22204645.4064                   22204643.4774
   5123701.87647   3993139.37545  21607067.5004                   21607066.5634
   3645686.92747   2846882.65845  21878410.8674                   21878407.4104
   7553707.20447   5872683.29744  23468788.1334                   23468786.6884
  -3695977.93747  -2851622.67645  22795379.6334                   22795378.1644
  -3081402.74447  -2377521.88143  23605168.7274                   23605169.5784
 11  8 22 17 33 30.0000000  0  9G03G07G08G11G13G19G23G28G24
   7298667.18046   5678754.64542  24014522.1564                   24014522.0984
  -3566816.94048  -2734013.60446  20517727.1884                   20517723.8914
  -6003325.62248  -4630047.12845  21624505.2424                   21624503.1564
  -5724095.48247  -4424546.30745  22180787.4534                   22180785.7074
   5145810.10647   4010366.49045  21611275.0704                   21611273.6254
   3650720.48247   2850804.87345  21879368.8134                   21879364.8914
   7598181.48946   5907338.40944  23477251.6414                   23477251.1294
  -3800272.51547  -2932891.15745  22775533.7344                   22775531.7584
  -3221387.02447  -2486600.46343  23578530.0314                   23578531.4104
 11  8 22 17 34  0.0000000  0  9G03G07G08G11G13G19G23G28G24
   7339805.36246   5710810.23743  24022349.5944                   24022350.1334
  -3664918.67748  -2810456.52446  20499058.9224                   20499056.1254
  -6140728.25548  -4737114.11845  21598357.8984                   21598356.3914
  -5849132.28247  -4521977.55345  22156993.5864                   22156991.7304
   5168251.61647   4027853.30845  21615545.5554                   21615543.4494
   3656159.73848   2855043.22845  21880403.9144                   21880399.5704
   7642725.11446   5942047.50644  23485728.7734                   23485727.5704
  -3904434.39147  -3014056.25444  22755712.0314                   22755710.4574
  -3361306.04046  -2595628.18543  23551904.0554                   23551905.4144
 11  8 22 17 34 30.0000000  0  9G03G07G08G11G13G19G23G28G24
   7381025.88146   5742930.05343  24030194.3364                   24030194.7584
  -3762741.97347  -2886682.47246  20480443.4694                   20480440.8754
  -6278044.52648  -4844113.80046  21572227.9224                   21572226.0354
  -5973830.71247  -4619145.13045  22133264.7584                   22133262.4774
   5191021.10047   4045595.70445  21619878.3594                   21619877.0274
   3661999.43447   2859593.60245  21881515.1174                   21881511.2584
   7687332.19846   5976806.11543  23494216.7034                   23494215.5594
  -4008467.44047  -3095120.94845  22735915.2504                   22735913.1564
  -3501159.61846  -2704604.92243  23525291.0394                   23525292.1334
 11  8 22 17 35  0.0000000  0  9G03G07G08G11G13G19G23G28G24
   7422325.89746   5775111.78143  24038053.6484                   24038053.6684
  -3860285.36847  -2962690.33746  20461881.4144                   20461878.7664
  -6415272.66548  -4951044.81945  21546113.8204                   21546112.3404
  -6098187.92947  -4716046.86045  22109599.7664                   22109597.4924
   5214115.21347   4063591.04245  21624272.6884                   21624271.7734
   3668236.45847   2864453.58745  21882702.1884                   21882698.2344
   7731999.70646   6011611.72144  23502716.9924                   23502715.7114
  -4112372.61947  -3176086.00945  22716143.0394                   22716141.1484
  -3640944.81947  -2813528.33743  23498691.0634                   23498692.3284
 11  8 22 17 35 30.0000000  0  9G03G07G08G11G13G19G23G28G24
   7463704.05746   5807354.52042  24045928.2424                   24045927.7624
  -3957545.75147  -3038477.65946  20443373.6094                   20443370.6174
  -6552410.26548  -5057905.27745  21520017.5004                   21520016.2194
  -6222200.19647  -4812679.76545  22086001.2974                   22085999.4264
   5237532.06147   4081837.85845  21628729.3134                   21628728.8634
   3674869.45747   2869622.11945  21883964.4454                   21883960.3364
   7776725.82146   6046463.02544  23511228.1334                   23511227.9304
  -4216149.87347  -3256951.37045  22696394.2344                   22696392.1334
  -3780657.53646  -2922395.30444  23472103.7974                   23472106.1214
 11  8 22 17 36  0.0000000  0  9G03G07G08G11G13G19G23G28G24
   7505156.90346   5839655.42843  24053816.0474                   24053814.5354
  -4054521.77848  -3114043.40446  20424919.2424                   20424917.1374
  -6689455.71748  -5164693.93945  21493938.5314                   21493936.7854
  -6345865.21547  -4909042.10545  22062468.4844                   22062467.0904
   5261268.54247   4100333.74145  21633245.8914                   21633244.8984
   3681894.82247   2875096.40945  21885301.4064                   21885297.6954
   7821507.18946   6081357.41244  23519750.0314                   23519749.2544
  -4319800.82347  -3337718.31045  22676670.4844                   22676668.9414
  -3920295.52646  -3031204.05644  23445531.4304                   23445533.7194
 11  8 22 17 36 30.0000000  0  8G07G08G11G13G19G23G28G24
  -4151215.27747  -3189388.98746  20406519.2034                   20406516.6804
  -6826410.47748  -5271411.92846  21467876.8284                   21467875.7704
  -6469184.08847  -5005134.72845  22039002.1254                   22038999.7774
   5285317.37947   4119073.01945  21637822.6414                   21637821.4534
   3689306.27047   2880871.52745  21886711.6484                   21886707.8094
   7866337.09446   6116289.57744  23528281.3364                   23528280.8094
  -4423329.99847  -3418390.39745  22656969.5864                   22656968.2074
  -4059859.46047  -3139955.06243  23418973.6414                   23418974.6484
 11  8 22 17 37  0.0000000  0  8G07G08G11G13G19G23G28G24
  -4247622.39347  -3264511.42646  20388173.7274                   20388171.0394
  -6963270.67148  -5378056.23246  21441833.5864                   21441832.1644
  -6592152.48347  -5100954.26745  22015601.5784                   22015599.7734
   5309677.52547   4138054.88645  21642458.3364                   21642457.4654
   3697102.87947   2886946.77645  21888195.2894                   21888191.6764
   7911214.20947   6151258.50944  23536821.0474                   23536820.9264
  -4526736.98847  -3498967.24545  22637291.5004                   22637289.9774
  -4199344.46746  -3248644.58843  23392430.3984                   23392431.5514
 11  8 22 17 37 30.0000000  0  8G07G08G11G13G19G23G28G24
  -4343732.82448  -3339402.68046  20369884.4454                   20369882.1174
  -7100025.65848  -5484618.55646  21415809.7664                   21415807.9574
  -6714758.90547  -5196491.71745  21992270.9384                   21992268.7034
   5334354.66847   4157283.75345  21647154.4144                   21647152.9614
   3705290.07847   2893326.36345  21889753.1094                   21889749.4534
   7956144.40946   6186268.85344  23545370.5234                   23545370.4654
  -4630013.64447  -3579442.56145  22617638.7894                   22617637.0354
  -4338738.91447  -3357263.58243  23365904.5394                   23365905.1604
 11  8 22 17 38  0.0000000  0  8G07G08G11G13G19G23G28G24
  -2864118.99647  -2186456.84646  20651445.3444                   20651442.9884
  -5661246.84748  -4363492.19346  21689600.5634                   21689598.6604
  -5261574.16947  -4064139.97345  22268802.4304                   22268800.6214
   6934767.68047   5404358.74845  21951702.6094                   21951700.9344
   5289287.78547   4127610.25145  22191178.3204                   22191174.0314
   9576545.84547   7448919.10244  23853723.3834                   23853722.8594
  -3157735.24647  -2432212.61745  22897804.3364                   22897802.0824
  -2902612.63046  -2238204.05643  23639190.3674                   23639190.9774
 11  8 22 17 38 30.0000000  0  8G07G08G11G13G19G23G28G24
  -2959629.55548  -2260880.67146  20633270.4064                   20633267.8634
  -5797784.98247  -4469885.54845  21663617.6564                   21663616.7304
  -5383447.54247  -4159106.22245  22245610.7194                   22245608.6094
   6960071.03847   5424075.57145  21956518.2424                   21956516.2424
   5298249.92147   4134593.71045  22192883.6024                   22192879.4344
   9621574.26147   7484005.98344  23862293.0864                   23862291.5904
  -3260753.79147  -2512486.77645  22878200.0554                   22878198.9064
  -3041815.81246  -2346673.99443  23612700.4924                   23612702.0554
 11  8 22 17 39  0.0000000  0  8G07G08G11G13G19G23G28G24
  -3054846.06148  -2335075.36346  20615150.8984                   20615149.0864
  -5934220.17648  -4576198.68045  21637655.4304                   21637653.4384
  -5504959.07647  -4253790.53345  22222487.8674                   22222486.0904
   6985674.15747   5444025.98845  21961389.7734                   21961388.4534
   5307586.03947   4141868.56845  22194660.0554                   22194656.8874
   9666639.12946   7519121.19643  23870867.2424                   23870868.0594
  -3363653.27847  -2592668.17945  22858618.7734                   22858616.9694
  -3180927.66746  -2455072.82443  23586228.0234                   23586230.0314
 11  8 22 17 39 30.0000000  0  8G07G08G11G13G19G23G28G24
  -3149765.10048  -2409038.26846  20597088.8204                   20597086.2854
  -6070548.92248  -4682428.87245  21611712.7194                   21611711.0514
  -5626104.65447  -4348189.65145  22199434.0234                   22199432.4844
   7011575.82247   5464209.01445  21966318.9534                   21966317.8404
   5317295.89647   4149434.64945  22196508.1954                   22196504.3324
   9711738.74246   7554263.50343  23879450.3284                   23879449.7854
  -3466433.26047  -2672756.45645  22839060.6644                   22839058.5234
  -3319943.59246  -2563396.83544  23559774.1024                   23559776.2734
 11  8 22 17 40  0.0000000  0  8G07G08G11G13G19G23G28G24
  -3244390.32348  -2482772.23446  20579082.5704                   20579079.5514
  -6206775.03848  -4788579.09845  21585789.7504                   21585788.1884
  -5746887.56547  -4442306.18845  22176449.9774                   22176448.1134
   7037767.16947   5484617.76545  21971302.6804                   21971301.7154
   5327370.48847   4157284.93045  22198425.5084                   22198421.3014
   9756864.64246   7589426.36943  23888038.1484                   23888036.2464
  -3569100.45947  -2752756.85745  22819523.6024                   22819521.9344
  -3458866.16847  -2671648.13743  23533338.8364                   23533338.5514
 11  8 22 17 40 30.0000000  0  8G07G08G11G13G19G23G28G24
  -3338721.07248  -2556276.72446  20561131.8364                   20561129.0904
  -6342897.52048  -4894648.57445  21559886.4144                   21559884.8594
  -5867305.84347  -4536138.62345  22153535.1414                   22153533.2934
   7064243.95747   5505248.97645  21976341.6174                   21976340.0864
   5337806.03747   4165416.49845  22200410.7894                   22200406.8054
   9802012.82146   7624606.55843  23896629.7894                   23896629.2304
  -3671656.86747  -2832670.94245  22800007.9844                   22800005.7304
  -3597693.42747  -2779825.19043  23506919.8444                   23506922.4384
 11  8 22 17 41  0.0000000  0  8G07G08G11G13G19G23G28G24
  -3432757.14248  -2629551.59646  20543237.4694                   20543234.6094
  -6478915.62948  -5000636.69245  21534002.9454                   21534001.1024
  -5987358.83247  -4629686.39545  22130689.9454                   22130687.7814
   7091001.54247   5526098.96245  21981433.4144                   21981431.9264
   5348598.01247   4173825.77245  22202464.7344                   22202461.4344
   9847178.61646   7659800.39543  23905224.4224                   23905224.5704
  -3774104.96347  -2912500.60445  22780512.4774                   22780510.4534
  -3736423.98047  -2887926.83444  23480520.5474                   23480521.9454
 11  8 22 17 41 30.0000000  0  9G17G07G08G11G13G19G23G28G24
   6033820.93756   4730725.14553  24672306.4844                   24672308.3014
  -3526501.56548  -2702599.21246  20525398.3674                   20525396.1174
  -6614832.33148  -5106545.82746  21508139.1884                   21508137.5084
  -6107048.01347  -4722950.68945  22107913.8524                   22107911.4734
   7118032.40747   5547161.90645  21986577.3204                   21986575.6524
   5359739.06947   4182507.06645  22204584.8674                   22204580.9654
   9892354.36546   7695002.02643  23913821.1094                   23913820.8284
  -3876450.66047  -2992250.47245  22761037.0784                   22761035.1994
  -3875059.48047  -2995954.43944  23454138.7734                   23454140.5204
 11  8 22 17 42  0.0000000  0  9G17G07G08G11G13G19G23G28G24
   5860538.10546   4595699.74043  24639330.6174                   24639333.4614
  -3619959.02248  -2775423.21946  20507614.1644                   20507611.8444
  -6750652.15048  -5212379.45046  21482293.3444                   21482292.0904
  -6226378.41647  -4815935.41845  22085205.8204                   22085204.0044
   7145326.67347   5568430.07445  21991771.2344                   21991769.7704
   5371219.38847   4191452.72145  22206769.3134                   22206765.1054
   9937530.31746   7730203.80644  23922418.0164                   23922418.2934
  -3978701.77647  -3071926.66745  22741579.5474                   22741577.3444
  -4013603.74647  -3103910.94344  23427775.4614                   23427776.5944
 11  8 22 17 42 30.0000000  0  9G17G07G08G11G13G19G23G28G24
   5687311.65146   4460718.21043  24606367.5554                   24606369.2544
  -3713134.88248  -2848027.79846  20489883.5864                   20489880.6764
  -6886380.58248  -5318141.86145  21456464.8284                   21456463.2114
  -6345354.45147  -4908644.00745  22062565.4534                   22062563.5204
   7172873.92947   5589895.38845  21997013.8204                   21997012.2304
   5383028.87247   4200654.86145  22209016.6884                   22209013.2424
   9982696.74246   7765398.18844  23931013.5084                   23931012.9224
  -4080866.62347  -3151535.59845  22722137.7894                   22722135.4884
  -4152060.95947  -3211799.57944  23401427.5864                   23401428.7344
 11  8 22 17 43  0.0000000  0  9G17G07G08G11G13G19G23G28G24
   5514144.38246   4325782.83443  24573414.2344                   24573417.0394
  -3806026.75248  -2920411.08746  20472206.7274                   20472203.7344
  -7022014.76448  -5423830.84346  21430654.7424                   21430653.1254
  -6463972.72847  -5001073.83345  22039992.9694                   22039991.4224
   7200672.00247   5611556.14045  22002303.1094                   22002301.6414
   5395165.62747   4210112.02745  22211326.3834                   22211323.1454
  10027851.48146   7800583.44143  23939605.9454                   23939605.7464
  -4182945.23547  -3231077.36345  22702712.4694                   22702711.0274
  -4290427.24646  -3319617.36843  23375097.0784                   23375098.6644
 11  8 22 17 43 30.0000000  0  9G17G07G08G11G13G19G23G28G24
   5341046.64646   4190901.66343  24540475.8364                   24540477.2734
  -3898624.82448  -2992565.43046  20454585.8834                   20454583.6684
  -7157544.02448  -5529438.04446  21404864.4774                   21404862.3594
  -6582222.40247  -5093216.41245  22017491.0944                   22017489.0824
   7228725.88247   5633416.21145  22007641.8914                   22007641.1604
   5407634.92147   4219828.30345  22213699.0084                   22213695.3204
  10072999.70747   7835763.61143  23948197.6334                   23948197.2894
  -4284930.49847  -3310546.37445  22683305.7734                   22683303.5044
  -4428691.58147  -3427355.71844  23348786.9844                   23348788.0824
 11  8 22 17 44  0.0000000  0  9G17G07G08G11G13G19G23G28G24
   5168021.88047   4056077.27944  24507549.4774                   24507552.1334
  -3990925.73448  -3064488.24346  20437021.5944                   20437019.0204
  -7292965.10448  -5634960.97646  21379094.4614                   21379092.7384
  -6700099.77647  -5185068.90745  21995060.0704                   21995058.1414
   7257033.86247   5655474.30245  22013028.6414                   22013027.9654
   5420435.35547   4229802.63845  22216134.8134                   22216131.1914
  10118139.86146   7870937.54444  23956787.8204                   23956788.1724
  -4386821.98447  -3389942.34345  22663916.2894                   22663914.3404
  -4566849.67446  -3535011.30943  23322495.0704                   23322497.0784
 11  8 22 17 44 30.0000000  0  9G17G07G08G11G13G19G23G28G24
   4995067.68947   3921307.95944  24474637.3984                   24474639.6644
  -4082932.00948  -3136181.45346  20419513.1174                   20419510.6454
  -7428280.13847  -5740401.25946  21353345.0784                   21353343.7384
  -6817606.55948  -5276632.63145  21972699.0634                   21972697.4144
   7285588.67047   5677724.69945  22018462.4304                   22018461.6524
   5433559.64547   4240029.29945  22218632.6804                   22218628.9344
  10163264.70146   7906099.48144  23965374.3834                   23965374.9614
  -4488625.14347  -3469269.44045  22644543.9534                   22644542.0554
  -4704902.75146  -3642585.03644  23296224.5704                   23296226.6334
 11  8 22 17 45  0.0000000  0  9G17G07G08G11G13G19G23G28G24
   4822186.36147   3786595.40744  24441739.2274                   24441741.8284
  -4174641.16748  -3207643.15046  20402061.7424                   20402059.5944
  -7563487.26747  -5845757.46446  21327616.1334                   21327614.1094
  -6934739.90047  -5367905.35745  21950409.1804                   21950407.2504
   7314387.29647   5700165.09945  22023943.3134                   22023941.6524
   5447005.00047   4250506.13945  22221191.0234                   22221187.6884
  10208371.68846   7941247.48044  23973958.8524                   23973957.8914
  -4590340.82847  -3548528.38245  22625188.2894                   22625186.7194
  -4842847.37346  -3750074.22044  23269974.4384                   23269976.2154
 11  8 22 17 45 30.0000000  0  9G17G07G08G11G13G19G23G28G24
   4649384.61947   3651944.88944  24408855.6804                   24408857.7584
  -4266047.03448  -3278868.51946  20384667.6884                   20384664.8914
  -7698579.38548  -5951024.03946  21301909.1644                   21301906.9144
  -7051492.84147  -5458881.68045  21928192.0704                   21928189.5004
   7343431.16247   5722796.59645  22029470.0234                   22029468.3484
   5460773.33447   4261234.66945  22223811.1484                   22223807.5744
  10253462.31046   7976382.75743  23982539.0394                   23982539.2074
  -4691965.18847  -3627716.17145  22605849.4534                   22605847.7894
  -4980676.04347  -3857473.09043  23243747.0004                   23243748.0594
 11  8 22 17 46  0.0000000  0  9G17G07G08G11G13G19G23G28G24
   4476659.79847   3517354.28144  24375987.4694                   24375989.2384
  -4357152.69248  -3349859.95846  20367331.0944                   20367328.3554
  -7833558.56348  -6056202.60346  21276223.1954                   21276221.5124
  -7167867.55148  -5549563.27145  21906046.6334                   21906044.6414
   7372712.65347   5745613.25545  22035041.9144                   22035040.9844
   5474857.49147   4272209.30845  22226491.5164                   22226487.9224
  10298529.43246   8011499.70243  23991115.5864                   23991115.4534
  -4793504.06947  -3706837.37345  22586527.3834                   22586525.9494
  -5118390.38947  -3964782.86644  23217540.5474                   23217542.2114
 11  8 22 17 46 30.0000000  0  9G17G07G08G11G13G19G23G28G24
   4304018.99346   3382829.15144  24343134.3674                   24343136.8134
  -4447951.32848  -3420612.14946  20350052.4064                   20350049.8754
  -7968417.70848  -6161287.64446  21250560.5084                   21250558.7894
  -7283856.73847  -5639944.46545  21883974.4534                   21883972.1604
   7402233.94347   5768616.77845  22040660.0314                   22040659.0354
   5489259.20547   4283431.37045  22229232.0314                   22229228.4574
  10343575.12146   8046600.00143  23999687.7664                   23999688.1524
  -4894953.87147  -3785889.14645  22567221.7734                   22567219.9774
  -5255982.34246  -4071997.26244  23191356.9304                   23191358.6024
 11  8 22 17 47  0.0000000  0  9G17G07G08G11G13G19G23G28G24
   4131465.07246   3248371.74043  24310297.5704                   24310300.6174
  -4538440.26548  -3491123.03446  20332833.1644                   20332830.2234
  -8103154.42448  -6266277.29246  21224920.6724                   21224918.9104
  -7399457.08148  -5730022.65045  21861976.9304                   21861974.8014
   7431992.21547   5791804.95845  22046322.5084                   22046321.2504
   5503976.40547   4294899.26645  22232032.5634                   22232028.8364
  10388597.03246   8081681.74243  24008255.5234                   24008255.5944
  -4996314.10547  -3864871.13445  22547933.8444                   22547932.1374
  -5393448.05547  -4179113.31744  23165198.9844                   23165200.2154
 11  8 22 17 47 30.0000000  0  9G17G07G08G11G13G19G23G28G24
   3959000.71246   3113984.21043  24277478.1644                   24277481.2704
  -4628616.70948  -3561390.40846  20315672.5234                   20315670.4454
  -8237765.28048  -6371168.86846  21199305.3284                   21199303.6724
  -7514664.86747  -5819794.94745  21840053.3204                   21840050.6254
   7461985.70847   5815176.40245  22052030.1254                   22052029.2894
   5519007.37247   4306611.65145  22234893.3054                   22234889.2154
  10433593.78446   8116743.83543  24016817.7584                   24016818.3524
  -5097585.05347  -3943783.55245  22528662.8284                   22528660.1414
  -5530783.41647  -4286127.78744  23139064.7504                   23139066.0004
 11  8 22 17 48  0.0000000  0  9G17G07G08G11G13G19G23G28G24
   3786627.79046   2979667.65143  24244677.5234                   24244678.9104
  -4718479.16448  -3631413.12246  20298572.3914                   20298570.5234
  -8372248.42148  -6475960.92646  21173713.8134                   21173712.0474
  -7629478.07047  -5909259.78645  21818205.3284                   21818203.2664
   7492210.96247   5838728.46145  22057781.9844                   22057780.2734
   5534348.85347   4318566.02145  22237812.3364                   22237808.8014
  10478562.04146   8151783.68043  24025374.4614                   24025374.6254
  -5198768.14747  -4022627.50745  22509408.5394                   22509406.3054
  -5667985.85347  -4393038.68544  23112956.2114                   23112956.5164
 11  8 22 17 48 30.0000000  0  9G17G07G08G11G13G19G23G28G24
   3614348.83446   2845424.49642  24211893.8754                   24211894.2464
  -4808025.61548  -3701189.59446  20281532.2424                   20281530.1024
  -8506601.61648  -6580651.71946  21148147.2344                   21148145.6414
  -7743894.35748  -5998415.34745  21796432.6954                   21796430.7974
   7522665.14947   5862458.88845  22063577.2114                   22063576.0904
   5549998.07847   4330760.16245  22240790.0944                   22240786.7424
  10523498.96446   8186799.27943  24033926.5084                   24033926.6294
  -5299864.04047  -4101403.51145  22490169.9694                   22490167.9264
  -5805052.02847  -4499843.39044  23086872.5394                   23086874.0864
 11  8 22 17 49  0.0000000  0  9G17G07G08G11G13G19G23G28G24
   3442165.31446   2711255.69843  24179128.6724                   24179130.0354
  -4897254.81348  -3770718.85646  20264552.8284                   20264550.1054
  -8640823.27948  -6685240.02246  21122605.6484                   21122603.7664
  -7857911.31647  -6087259.74245  21774735.2974                   21774733.8244
   7553344.75247   5886364.98845  22069415.3134                   22069414.2344
   5565952.02747   4343191.76145  22243825.9694                   22243822.0784
  10568401.75446   8221788.09543  24042471.6024                   24042471.4804
  -5400874.11447  -4180112.64545  22470948.6254                   22470946.7074
  -5941979.25147  -4606539.83943  23060816.1884                   23060816.8484
 11  8 22 17 49 30.0000000  0  9G17G07G08G11G13G19G23G28G24
   4845503.48747   3804766.07344  24446175.4844                   24446177.1804
  -3410743.37248  -2612398.27446  20547426.6094                   20547424.1054
  -7199487.97448  -5562121.59546  21396882.6334                   21396880.7074
  -6396104.51747  -4948189.50045  22052908.3054                   22052906.4104
   9159664.08147   7138042.27545  22375087.8834                   22375087.3164
   7157625.63447   5583456.87945  22546711.4844                   22546708.1914
  12188684.32146   9484345.68643  24350802.2344                   24350801.8834
  -3926377.74147  -3031154.40745  22751535.7584                   22751534.4344
  -4503341.68247  -3485523.44743  23334579.4774                   23334580.9384
 11  8 22 17 50  0.0000000  0  9G17G07G08G11G13G19G23G28G24
   4673513.98947   3670748.39944  24413446.0944                   24413448.0984
  -3499335.09048  -2681430.79446  20530568.3524                   20530565.8164
  -7333441.90248  -5666501.28446  21371392.3594                   21371390.5904
  -6509318.80147  -5036408.40845  22031363.4304                   22031362.3554
   9190782.31547   7162290.15645  22381009.6484                   22381008.6604
   7174177.39647   5596354.30945  22549861.5474                   22549858.0004
  12233507.33746   9519272.42143  24359331.6644                   24359331.3984
  -4027222.11347  -3109734.43045  22732346.0084                   22732343.4694
  -4639984.89347  -3591998.56244  23308577.6334                   23308577.8954
 11  8 22 17 50 30.0000000  0  9G17G07G08G11G13G19G23G28G24
   4501618.66747   3536804.13944  24380736.2114                   24380738.1094
  -3587611.70348  -2750217.78646  20513769.8754                   20513767.3094
  -7467264.86748  -5770778.90646  21345926.7664                   21345924.4264
  -6622134.30348  -5124316.59845  22009896.5554                   22009894.3634
   9222109.41547   7186700.80045  22386971.0864                   22386970.4064
   7191017.88147   5609476.70345  22553066.6334                   22553062.6844
  12278280.15646   9554160.07643  24367851.5084                   24367852.7464
  -4127990.80247  -3188255.47745  22713170.2814                   22713168.2704
  -4776487.37347  -3698364.03244  23282602.5084                   23282603.2974
 11  8 22 17 51  0.0000000  0  9G17G07G08G11G13G19G23G28G24
   4329828.31947   3402941.67544  24348044.8284                   24348047.4804
  -3675562.03048  -2818750.51847  20497033.3984                   20497031.2074
  -7600945.29848  -5874945.47046  21320488.0084                   21320486.1334
  -6734539.42847  -5211904.99645  21988506.4224                   21988503.9184
   9253650.91547   7211278.47645  22392973.5234                   22392972.7384
   7208153.18947   5622828.86445  22556326.6724                   22556323.0124
  12323009.15146   9589013.52043  24376363.6094                   24376364.0434
  -4228676.04547  -3266711.48645  22694010.6724                   22694008.5744
  -4912836.84747  -3804610.31644  23256655.0864                   23256656.0864
 11  8 22 17 51 30.0000000  0  9G17G07G08G11G13G19G23G28G24
   4158143.30646   3269161.29644  24315374.4454                   24315376.4264
  -3763186.43248  -2887029.28546  20480359.0864                   20480356.3204
  -7734483.01448  -5979000.83346  21295076.7344                   21295074.5084
  -6846533.93548  -5299173.43745  21967194.1254                   21967192.5704
   9285401.98747   7236019.47745  22399015.5394                   22399014.8954
   7225578.35147   5636406.87045  22559642.9144                   22559639.8204
  12367689.34446   9623828.92943  24384865.7114                   24384867.5164
  -4329280.89247  -3345104.85545  22674865.9224                   22674864.0704
  -5049032.61347  -3910736.80744  23230738.3754                   23230740.0204
 11  8 22 17 52  0.0000000  0  9G17G07G08G11G13G19G23G28G24
   3986565.12046   3135464.20544  24282723.3204                   24282726.0274
  -3850483.46048  -2955052.95047  20463747.0784                   20463744.9184
  -7867876.26347  -6082943.61246  21269692.6334                   21269690.4884
  -6958115.78847  -5386120.33345  21945960.9384                   21945959.1484
   9317359.25847   7260921.14745  22405096.8984                   22405095.9064
   7243290.27947   5650208.32145  22563013.8834                   22563009.8714
  12412318.01046   9658604.19344  24393358.5554                   24393359.8244
  -4429806.46947  -3423436.44945  22655736.6884                   22655734.2424
  -5185071.81647  -4016741.27344  23204850.7814                   23204851.9804
 11  8 22 17 52 30.0000000  0  9G17G07G08G11G13G19G23G28G24
   3815101.25246   3001856.20844  24250094.7194                   24250097.3674
  -3937445.74948  -3022815.78746  20447198.8204                   20447196.4924
  -8001116.92148  -6186767.50146  21244337.7814                   21244335.5084
  -7069277.19348  -5472739.58145  21924807.5784                   21924806.1174
   9349525.04147   7285985.28245  22411217.4454                   22411217.5904
   7261291.40747   5664235.13345  22566438.9144                   22566435.1954
  12456897.58546   9693341.13243  24401841.6484                   24401843.6094
  -4530248.24847  -3501702.76145  22636623.4694                   22636620.5354
  -5320945.88047  -4122617.11344  23178994.3594                   23178995.8244
 11  8 22 17 53  0.0000000  0  9G17G07G08G11G13G19G23G28G24
   3643753.38546   2868338.58043  24217487.8914                   24217490.1484
  -4024072.05448  -3090316.81446  20430714.2194                   20430711.8834
  -8134203.36447  -6290471.22146  21219012.2034                   21219010.7464
  -7180016.25847  -5559029.75545  21903734.8524                   21903732.7384
   9381895.78347   7311209.13845  22417377.4844                   22417376.7154
   7279578.54047   5678484.79945  22569918.5944                   22569915.5084
  12501425.21846   9728037.69643  24410315.7584                   24410316.5784
  -4630607.80647  -3579904.99845  22617525.3674                   22617523.6524
  -5456652.16747  -4228362.18944  23153170.7114                   23153171.8094
 11  8 22 17 53 30.0000000  0  9G17G07G08G11G13G19G23G28G24
   3472528.49346   2734916.79444  24184905.6724                   24184907.5744
  -4110356.15348  -3157551.17646  20414295.1094                   20414292.4414
  -8267128.54548  -6394049.26546  21193717.5394                   21193715.7034
  -7290325.77847  -5644985.22245  21882743.0864                   21882741.3404
   9414473.31447   7336594.11145  22423576.8284                   22423576.6644
   7298154.04647   5692959.18145  22573453.6414                   22573450.5594
  12545903.26446   9762695.58243  24418779.5234                   24418780.8874
  -4730881.15647  -3658040.03345  22598443.8524                   22598441.9964
  -5592182.78347  -4333970.39644  23127380.1644                   23127380.3484
 11  8 22 17 54  0.0000000  0  9G17G07G08G11G13G19G23G28G24
   3301427.33746   2601591.38744  24152345.6954                   24152348.1334
  -4196297.21348  -3224518.24946  20397940.7114                   20397938.3594
  -8399891.13048  -6497500.62446  21168453.0554                   21168451.5004
  -7400204.61147  -5730605.06445  21861833.8204                   21861832.1604
   9447253.39047   7362136.91345  22429815.1484                   22429814.5004
   7317013.78347   5707655.02145  22577041.9694                   22577038.9694
  12590327.42946   9797311.42943  24427234.4144                   24427234.9104
  -4831070.23247  -3736109.43545  22579378.4844                   22579377.1254
  -5727535.66547  -4439440.09744  23101623.3204                   23101623.3984
 11  8 22 17 54 30.0000000  0  9G17G07G08G11G13G19G23G28G24
   3130455.34947   2468366.59643  24119810.9924                   24119812.3094
  -4281889.76348  -3291213.74946  20381653.1954                   20381650.8054
  -8532485.54248  -6600820.94446  21143221.6724                   21143220.1214
  -7509647.20147  -5815884.97645  21841008.3524                   21841006.1174
   9480236.40447   7387837.84444  22436091.4534                   22436090.2814
   7336158.05747   5722572.59345  22580685.8754                   22580682.0984
  12634698.38646   9831885.87542  24435677.3674                   24435678.6524
  -4931172.69547  -3814111.32345  22560329.5234                   22560328.0474
  -5862704.35847  -4544766.31044  23075901.2344                   23075902.4224
 11  8 22 17 55  0.0000000  0  9G17G07G08G11G13G19G23G28G24
   2959614.24947   2335243.76043  24087300.7504                   24087302.7304
  -4367132.31848  -3357636.53646  20365431.8524                   20365429.3874
  -8664909.43748  -6704008.39646  21118022.3134                   21118020.7974
  -7618651.25547  -5900823.18845  21820265.2894                   21820263.0744
   9513418.96147   7413694.29545  22442405.8284                   22442405.8404
   7355584.00947   5737709.64745  22584382.3444                   22584378.8914
  12679013.20946   9866416.54443  24444110.7114                   24444112.3324
  -5031189.72647  -3892046.68845  22541296.8444                   22541295.0944
  -5997686.22747  -4649946.95944  23050215.2664                   23050215.1374
 11  8 22 17 55 30.0000000  0  8G17G07G08G11G13G19G28G24
   2788912.97847   2202229.88343  24054817.8284                   24054818.6214
  -4452016.55948  -3423780.10346  20349279.0474                   20349276.9774
  -8797153.77448  -6807055.92846  21092857.0864                   21092855.2734
  -7727208.19747  -5985413.00445  21799607.5554                   21799605.3874
   9546804.42247   7439708.83444  22448759.0784                   22448758.4104
   7375295.38347   5753069.11245  22588132.8674                   22588130.0594
  -5131115.56347  -3969910.94545  22522281.4144                   22522280.0554
  -6132471.63747  -4754974.50244  23024566.2974                   23024566.7194
 11  8 22 17 56  0.0000000  0  8G17G07G08G11G13G19G28G24
   2618351.60647   2069325.03744  24022360.6334                   24022362.6844
  -4536542.53548  -3489644.51346  20333194.2344                   20333192.2234
  -8929218.34448  -6909963.39046  21067726.2424                   21067724.3364
  -7835317.34748  -6069653.87245  21779035.1024                   21779032.5594
   9580387.75147   7465877.56244  22455150.0084                   22455149.5204
   7395287.49147   5768647.32545  22591937.7894                   22591934.2934
  -5230953.25147  -4047706.51645  22503283.0554                   22503281.3984
  -6267059.09247  -4859847.80144  22998954.3984                   22998955.3714
 11  8 22 17 56 30.0000000  0  8G17G07G08G11G13G19G28G24
   2447942.41547   1936538.78044  23989933.0634                   23989933.6644
  -4620698.33748  -3555220.47646  20317180.2114                   20317177.8204
  -9061090.17248  -7012720.65346  21042631.2814                   21042630.1914
  -7942966.03947  -6153535.96045  21758549.8284                   21758547.9614
   9614176.95147   7492206.69745  22461580.1334                   22461578.8014
   7415567.97247   5784450.25845  22595797.1884                   22595793.9024
  -5330692.86647  -4125425.70345  22484303.4844                   22484302.0084
  -6401435.02347  -4964556.26844  22973384.4304                   22973385.1054
 11  8 22 17 57  0.0000000  0  8G17G07G08G11G13G19G28G24
   2277694.87447   1803878.46944  23957535.7194                   23957535.8874
  -4704474.58748  -3620500.69146  20301237.9384                   20301235.4924
  -9192759.72647  -7115320.30046  21017575.4384                   21017573.5124
  -8050144.95847  -6237051.95545  21738154.0394                   21738152.2194
   9648175.89047   7518699.27244  22468049.7114                   22468049.3094
   7436141.34447   5800481.41345  22599712.0004                   22599709.0554
  -5430328.09247  -4203063.50345  22465343.3594                   22465341.4774
  -6535589.20146  -5069091.94544  22947854.9534                   22947856.7464
 11  8 22 17 57 30.0000000  0  8G17G07G08G11G13G19G28G24
   2107609.51547   1671344.54044  23925169.6954                   23925170.6174
  -4787871.43348  -3685485.26446  20285368.0164                   20285365.3834
  -9324226.18547  -7217761.69046  20992558.5864                   20992556.5004
  -8156853.44847  -6320201.42545  21717848.6884                   21717846.8484
   9682380.00747   7545351.72445  22474559.1414                   22474558.1564
   7457003.30946   5816737.42145  22603682.1644                   22603678.9494
  -5529861.54447  -4280622.03245  22446402.8284                   22446401.5634
  -6669519.87246  -5173453.47344  22922369.3834                   22922369.2344
 11  8 22 17 58  0.0000000  0  8G17G07G08G11G13G19G28G24
   1937692.26347   1538941.61044  23892835.4694                   23892835.9184
  -4870882.71748  -3750169.40146  20269571.5554                   20269568.8984
  -9455482.83347  -7320039.61246  20967581.5004                   20967579.3164
  -8263085.12247  -6402979.31745  21697633.2274                   21697631.4144
   9716790.57847   7572165.02945  22481106.2814                   22481106.2814
   7478155.06947   5833219.26645  22607706.8594                   22607702.7734
  -5629289.69447  -4358098.50045  22427482.5554                   22427480.3554
  -6803219.89246  -5277635.24843  22896926.5554                   22896926.9454
 11  8 22 17 58 30.0000000  0  9G17G07G08G11G13G19G26G28G24
   1767939.06547   1406666.51144  23860531.7974                   23860533.1214
  -4953513.09948  -3814556.71247  20253847.3054                   20253845.1414
  -9586533.34848  -7422156.89346  20942643.0084                   20942641.4064
  -8368844.02848  -6485388.83545  21677508.1254                   21677506.3634
   9751398.00347   7599131.72444  22487692.5084                   22487692.8244
   7499587.26447   5849919.64345  22611785.5864                   22611782.2194
   7634253.44056   5975173.53953  24142210.2584                   24142210.1414
  -5728619.81447  -4435498.58645  22408580.7274                   22408578.8404
  -6936692.42846  -5381639.77943  22871527.6564                   22871528.0354
 11  8 22 17 59  0.0000000  0  9G17G07G08G11G13G19G26G28G24
   1598348.04846   1274517.74344  23828259.8444                   23828261.5044
  -5035764.82948  -3878648.97446  20238195.3914                   20238192.8714
  -9717379.53148  -7524114.96246  20917744.1564                   20917741.7814
  -8474131.96147  -6567431.34545  21657472.3134                   21657470.1054
   9786195.36547   7626246.43544  22494314.2734                   22494313.9614
   7521293.47547   5866833.52045  22615915.8444                   22615913.1454
   7477524.46646   5853047.14843  24112386.3594                   24112385.8484
  -5827857.22747  -4512826.43545  22389696.0704                   22389694.3244
  -7069938.33646  -5485467.77343  22846171.5004                   22846171.0274
 11  8 22 17 59 30.0000000  0  9G17G07G08G11G13G19G26G28G24
   1428913.19646   1142490.72144  23796017.2814                   23796018.4184
  -5117644.09948  -3942451.02746  20222614.1884                   20222612.1484
  -9848026.92448  -7625918.12746  20892882.3284                   20892880.8554
  -8578954.81847  -6649111.46945  21637525.6334                   21637523.3874
   9821171.95047   7653500.79144  22500970.0234                   22500969.3794
   7543263.09347   5883952.63145  22620096.7734                   22620093.6564
   7321164.49646   5731208.26243  24082631.1484                   24082632.1294
  -5927010.35947  -4590088.59245  22370828.2424                   22370825.6484
  -7202962.51346  -5589122.91943  22820858.5234                   22820858.1564
 11  8 22 18  0  0.0000000  0  9G17G07G08G11G13G19G26G28G24
   1259642.66546   1010591.74944  23763806.1644                   23763807.9454
  -5199142.78648  -4005956.52346  20207105.7194                   20207103.3204
  -9978466.93947  -7727559.68446  20868060.3054                   20868058.8094
  -8683304.33847  -6730422.76045  21617668.4064                   21617666.0594
   9856330.32447   7680896.80244  22507660.2974                   22507660.7384
   7565499.21347   5901279.42945  22624328.2734                   22624324.7774
   7165182.13846   5609663.68343  24052948.6254                   24052949.3244
  -6026073.87047  -4667280.91745  22351977.1954                   22351975.1214
  -7335755.45046  -5692597.87444  22795588.2974                   22795589.3094
 11  8 22 18  0 30.0000000  0  9G17G07G08G11G13G19G26G28G24
   1090547.03146    878829.03344  23731628.5234                   23731629.4264
  -5280251.10348  -4069157.80846  20191671.5704                   20191668.9494
 -10108688.57848  -7829031.09746  20843280.2974                   20843278.6804
  -8787169.83547  -6811356.89445  21597903.5864                   21597901.3164
   9891676.08247   7708438.84044  22514387.6414                   22514385.7074
   7588007.18347   5918818.07345  22628611.8204                   22628608.1024
   7009588.80946   5488422.13943  24023340.4454                   24023340.4534
  -6125040.25647  -4744397.56645  22333143.5784                   22333141.9304
  -7468305.99746  -5795883.97944  22770364.9454                   22770365.8244
 11  8 22 18  1  0.0000000  0  9G17G07G08G11G13G19G26G28G24
   2497054.27246   1974808.84644  23999277.6254                   23999279.1684
  -3785544.24948  -2904451.19147  20476104.5164                   20476102.2974
  -8663264.75648  -6702726.80246  21118334.9304                   21118333.3634
  -7315125.27648  -5664309.15845  21878024.0234                   21878022.2114
  11502625.60747   8963724.09044  22820940.5784                   22820939.6884
   9186204.64847   7164166.67445  22932738.3834                   22932735.8444
   8429812.91146   6595090.31143  24293600.5164                   24293600.4844
  -4648486.69647  -3593836.34345  22614122.9064                   22614120.7664
  -6025186.10247  -4671374.92444  23044981.4614                   23044982.3834
 11  8 22 18  1 30.0000000  0  9G17G07G08G11G13G19G26G28G24
   2328316.97347   1843325.32344  23967167.8754                   23967168.8094
  -3865863.81348  -2967037.87547  20460820.2274                   20460817.7704
  -8793039.60747  -6803850.06646  21093639.9224                   21093638.3834
  -7418014.08847  -5744482.23845  21858445.3984                   21858442.5354
  11538339.79847   8991553.22444  22827737.1644                   22827736.2384
   9209251.53947   7182125.22245  22937123.7194                   22937120.8524
   8275008.41646   6474463.51242  24264141.2584                   24264142.3404
  -4747258.81447  -3670801.61645  22595326.9844                   22595325.0984
  -6157239.78246  -4774273.87144  23019853.0634                   23019852.1724
 11  8 22 18  2  0.0000000  0  9G17G07G08G11G13G19G26G28G24
   2159768.67347   1711989.06444  23935094.2504                   23935095.8364
  -3945779.62648  -3029309.95747  20445612.8444                   20445610.1454
  -8922580.44147  -6904790.97946  21068989.1564                   21068987.4694
  -7520404.28848  -5824266.80645  21838960.9144                   21838958.6294
  11574240.66947   9019527.81144  22834568.5944                   22834567.6294
   9232570.47947   7200295.76345  22941561.5864                   22941558.5744
   8120609.66346   6354152.79943  24234760.9304                   24234760.3554
  -4845928.13347  -3747686.79945  22576550.8204                   22576549.3634
  -6289033.24646  -4876970.03244  22994773.1094                   22994773.9064
 11  8 22 18  2 30.0000000  0  9G17G07G08G11G13G19G26G28G24
   1991410.80246   1580801.22644  23903056.6804                   23903058.2464
  -4025290.65548  -3091266.60447  20430482.7114                   20430480.3984
  -9051885.54248  -7005548.19646  21044383.6024                   21044381.9494
  -7622294.88947  -5903662.06945  21819571.9774                   21819569.7234
  11610324.26647   9047644.81244  22841435.0004                   22841435.0744
   9256158.04047   7218675.64145  22946050.2114                   22946047.1994
   7966618.55646   6234159.82443  24205457.3444                   24205457.5784
  -4944496.60247  -3824493.37645  22557794.0084                   22557792.0394
  -6420564.21047  -4979461.67644  22969743.8444                   22969744.1644
 11  8 22 18  3  0.0000000  0  9G17G07G08G11G13G19G26G28G24
   1823241.50047   1449760.29344  23871055.2344                   23871055.6254
  -4104399.33248  -3152909.74246  20415428.5314                   20415425.7384
  -9180956.59948  -7106123.05046  21019821.8054                   21019820.0394
  -7723687.70347  -5982669.46445  21800277.3914                   21800274.9144
  11646583.26947   9075898.45644  22848335.2344                   22848334.6454
   9280007.45747   7237259.51845  22950588.3364                   22950585.8054
   7813033.52846   6114483.16643  24176230.8674                   24176230.6844
  -5042968.75347  -3901224.91545  22539055.5394                   22539053.8204
  -6551834.05247  -5081749.81644  22944763.8204                   22944764.3324
 11  8 22 18  3 30.0000000  0  9G17G07G08G11G13G19G26G28G24
   1655265.60346   1318870.05744  23839089.9144                   23839092.1954
  -4183100.64148  -3214235.44347  20400452.2664                   20400450.2074
  -9309787.57547  -7206510.82546  20995305.9144                   20995304.6914
  -7824577.81147  -6061285.12545  21781078.1024                   21781076.1024
  11683018.35247   9104289.30844  22855268.0314                   22855268.4264
   9304118.85747   7256047.57045  22955176.9774                   22955173.5314
   7659860.80746   5995127.82743  24147083.1644                   24147083.6254
  -5141342.41047  -3977879.69545  22520335.2114                   22520333.5744
  -6682836.19646  -5183829.36245  22919835.0004                   22919835.6374
 11  8 22 18  4  0.0000000  0  9G17G07G08G11G13G19G26G28G24
   1487487.38847   1188133.86344  23807163.1484                   23807164.0474
  -4261390.70748  -3275240.69947  20385554.1804                   20385551.8164
  -9438373.82247  -7306707.90346  20970836.8054                   20970835.2344
  -7924960.61747  -6139505.49245  21761975.7664                   21761973.5474
  11719628.46147   9132816.56144  22862235.3204                   22862234.8404
   9328492.17347   7275039.71445  22959815.2194                   22959811.7894
   7507105.33747   5876097.68543  24118015.0944                   24118014.4844
  -5239615.86447  -4054456.40845  22501635.0314                   22501633.0984
  -6813565.18347  -5285696.08344  22894957.6484                   22894958.8484
 11  8 22 18  4 30.0000000  0  9G17G07G08G11G13G19G26G28G24
   1319912.90346   1057556.42144  23775274.4694                   23775274.6724
  -4339264.18748  -3335921.35147  20370735.1804                   20370733.0784
  -9566709.19147  -7406709.49146  20946415.3364                   20946413.8984
  -8024830.05047  -6217325.83345  21742972.0234                   21742969.4224
  11756414.54347   9161480.93644  22869235.5944                   22869235.1254
   9353128.36247   7294236.68945  22964502.9614                   22964500.2734
   7354773.82446   5757397.82543  24089026.5704                   24089026.9304
  -5337786.22747  -4130952.78045  22482953.7344                   22482951.4964
  -6944014.23247  -5387344.64444  22870134.0234                   22870135.1334
 11  8 22 18  5  0.0000000  0  9G17G07G08G11G13G19G26G28G24
   1152539.81446    927135.93544  23743424.5164                   23743424.7504
  -4416723.46048  -3396279.24047  20355995.2584                   20355993.2704
  -9694794.98648  -7506516.60846  20922041.5314                   20922039.8874
  -8124188.72047  -6294748.18345  21724064.4694                   21724062.0204
  11793369.50447   9190276.88344  22876268.0554                   22876266.9884
   9378020.05947   7313632.76145  22969239.9454                   22969236.4804
   7202864.56446   5639027.02543  24060119.9614                   24060118.6524
  -5435858.55147  -4207372.77445  22464290.8754                   22464288.2624
  -7074184.52346  -5488775.98844  22845363.2894                   22845363.8484
 11  8 22 18  5 30.0000000  0  9G17G07G08G11G13G19G26G28G24
    985372.10346    796875.45644  23711613.5634                   23711614.5274
  -4493765.19448  -3456311.77546  20341334.8594                   20341332.6374
  -9822627.39648  -7606126.27546  20897715.5474                   20897713.9024
  -8223032.96047  -6371769.66345  21705254.8054                   21705253.0354
  11830492.09147   9219203.46644  22883331.5554                   22883332.0664
   9403167.12947   7333227.82244  22974025.5704                   22974021.8794
   7051382.29746   5520988.96143  24031292.9694                   24031294.2894
  -5533831.77347  -4283715.52345  22445647.1174                   22445645.5354
  -7204070.96646  -5589986.18444  22820646.4614                   22820647.2624
 11  8 22 18  6  0.0000000  0  9G17G07G08G11G13G19G26G28G24
    818416.92347    666780.60544  23679843.2974                   23679843.5984
  -4570382.27248  -3516013.41247  20326755.2034                   20326752.7584
  -9950197.95748  -7705531.91046  20873439.3364                   20873438.1804
  -8321355.30447  -6448384.48845  21686544.9224                   21686543.7034
  11867784.82947   9248262.59744  22890428.8754                   22890428.6914
   9428571.62347   7353023.49344  22978859.8754                   22978856.1374
   6900335.15446   5403289.92343  24002548.9614                   24002550.8754
  -5631701.51647  -4359977.67245  22427022.9774                   22427021.6024
  -7333664.95846  -5690968.45744  22795986.0554                   22795987.0044
 11  8 22 18  6 30.0000000  0  9G17G07G08G11G13G19G26G28G24
    651676.32747    536852.95644  23648112.7584                   23648113.8164
  -4646573.13048  -3575382.94147  20312256.3914                   20312254.3874
 -10077504.35248  -7804731.69546  20849214.3834                   20849212.2894
  -8419153.61947  -6524590.96245  21667934.1254                   21667932.4304
  11905244.58547   9277451.87044  22897557.3984                   22897557.3594
   9454230.89647   7373017.67444  22983742.5864                   22983739.5554
   6749725.72346   5285931.91843  23973890.2664                   23973889.7624
  -5729468.52847  -4436159.73745  22408418.4694                   22408416.5824
  -7462963.56346  -5791720.59944  22771380.8834                   22771382.1954
 11  8 22 18  7  0.0000000  0  9G17G07G08G11G13G19G26G28G24
    485152.28546    407094.06144  23616424.8444                   23616425.6884
  -4722336.26648  -3634419.17246  20297839.2584                   20297836.9224
 -10204544.52647  -7903724.03646  20825039.3594                   20825037.2424
  -8516426.39547  -6600387.93645  21649423.9384                   21649422.5084
  11942868.21547   9306768.87144  22904717.0474                   22904716.9734
   9480142.18247   7393208.22144  22988673.1804                   22988670.8594
   6599556.61546   5168917.16443  23945313.2344                   23945313.3874
  -5827133.60747  -4512262.38645  22389833.5394                   22389831.7234
  -7591963.71446  -5892240.13144  22746833.0394                   22746833.6954
 11  8 22 18  7 30.0000000  0  9G17G07G08G11G13G19G26G28G24
    318848.96946    277507.13844  23584777.5084                   23584779.0664
  -4797667.81948  -3693119.09647  20283503.9924                   20283501.9344
 -10331313.08648  -8002504.72946  20800916.1724                   20800914.5944
  -8613169.38847  -6675772.07345  21631014.3054                   21631012.7624
  11980654.96147   9336212.93144  22911908.2194                   22911907.0824
   9506305.10147   7413594.82545  22993651.6024                   22993648.6334
   6449832.74346   5052249.14542  23916821.2114                   23916821.2384
  -5924695.18447  -4588284.38945  22371268.4224                   22371266.6644
  -7720660.18846  -5992523.08844  22722343.6174                   22722344.1294
 11  8 22 18  8  0.0000000  0  9G17G07G08G11G13G19G26G28G24
    152768.50546    148093.88944  23553173.9614                   23553175.0824
  -4872565.71248  -3751481.10947  20269251.7814                   20269249.2854
 -10457807.31548  -8101071.65746  20776845.1094                   20776843.5004
  -8709380.73647  -6750741.97245  21612706.2194                   21612704.6454
  12018602.06847   9365781.95844  22919129.0234                   22919128.5744
   9532717.01347   7434175.51544  22998678.2344                   22998674.9734
   6300556.87646   4935930.31843  23888415.9534                   23888415.8484
  -6022154.02047  -4664226.32745  22352722.6564                   22352720.0984
  -7849049.85947  -6092566.94544  22697911.4064                   22697912.4574
 11  8 22 18  8 30.0000000  0  9G17G07G08G11G13G19G26G28G24
    -13084.51446     18857.81644  23521612.6804                   23521613.7704
  -4947026.17348  -3809502.26847  20255082.2974                   20255079.6254
 -10584022.35048  -8199421.03346  20752826.9774                   20752825.8714
  -8805055.71947  -6825293.89645  21594499.8594                   21594498.1134
  12056709.34347   9395475.84244  22926380.9924                   22926380.0904
   9559378.00047   7454950.24645  23003751.0554                   23003749.0744
   6151734.58546   4819964.92143  23860095.7274                   23860096.9494
  -6119508.22847  -4740086.73345  22334196.6094                   22334194.7114
  -7977127.01147  -6192367.28144  22673539.0634                   22673539.2894
 11  8 22 18  9  0.0000000  0  9G17G07G08G11G13G19G26G28G24
   -178705.34947   -110197.27644  23490096.0394                   23490097.2194
  -5021044.55548  -3867178.94947  20240997.2114                   20240994.7464
 -10709953.18947  -8297548.95646  20728863.2424                   20728861.7034
  -8900189.93247  -6899424.45045  21576396.2344                   21576394.1334
  12094976.00947   9425293.87544  22933661.9224                   22933661.9264
   9586287.70247   7475918.77445  23008872.2344                   23008869.4964
   6003371.06946   4704357.11943  23831863.4534                   23831863.6764
  -6216755.97947  -4815864.17245  22315691.4064                   22315689.0904
  -8104885.65047  -6291919.42544  22649227.4454                   22649228.5434
 11  8 22 18  9 30.0000000  0  9G17G07G08G11G13G19G26G28G24
   -344091.90947   -239069.83444  23458624.1644                   23458625.3594
  -5094619.42248  -3924510.04146  20226996.0004                   20226993.8834
 -10835596.38347  -8395452.75246  20704954.1174                   20704952.4344
  -8994781.61647  -6973132.25345  21558396.0314                   21558394.0864
  12133399.46847   9455234.14144  22940974.0554                   22940974.1414
   9613443.47447   7497079.06744  23014039.8594                   23014036.7934
   5855469.08346   4589108.78843  23803719.0944                   23803718.4654
  -6313897.94347  -4891559.20045  22297205.9064                   22297203.6884
  -8232322.76746  -6391221.02744  22624977.3284                   22624977.3364
 11  8 22 18 10  0.0000000  0  9G17G07G08G11G13G19G26G28G24
   -509242.48947   -367758.51044  23427197.3364                   23427198.0784
  -5167749.36748  -3981494.43446  20213079.9924                   20213077.8054
 -10960949.44947  -8493130.45946  20681100.6334                   20681098.9774
  -9088828.94447  -7046415.88545  21540499.4384                   21540497.9024
  12171976.96847   9485294.37943  22948315.0704                   22948314.7074
   9640843.15447   7518429.38744  23019254.0164                   23019251.1914
   5708031.12947   4474222.06243  23775662.0234                   23775661.1374
  -6410934.92547  -4967172.43045  22278740.1254                   22278738.5554
  -8359435.41047  -6490269.80744  22600787.7504                   22600788.5124
 11  8 22 18 10 30.0000000  0  9G17G07G08G11G13G19G26G28G24
   -674156.75647   -496263.04444  23395814.1254                   23395815.7194
  -5240434.42848  -4038132.15746  20199248.5084                   20199246.0984
 -11086012.06447  -8590581.83546  20657301.8204                   20657300.2814
  -9182331.88247  -7119275.30445  21522706.6334                   21522704.6134
  12210703.35047   9515470.63344  22955684.5474                   22955685.1454
   9668481.85847   7539965.98645  23024513.4384                   23024510.7664
   5561057.95346   4359697.55843  23747694.8914                   23747693.5554
  -6507869.36247  -5042705.71845  22260294.1954                   22260292.0864
  -8486222.36847  -6589064.77444  22576661.2734                   22576661.4064
 11  8 22 18 11  0.0000000  0  9G17G07G08G11G13G19G26G28G24
   -838829.61447   -624579.47044  23364478.8364                   23364479.3594
  -5312669.74248  -4094419.43446  20185502.9614                   20185500.0664
 -11210777.93748  -8687801.99146  20633559.9774                   20633557.7384
  -9275285.45347  -7191706.64745  21505017.4304                   21505016.0824
  12249579.20847   9545763.38044  22963082.1724                   22963083.0124
   9696360.17347   7561689.28945  23029818.6644                   23029815.2034
   5414555.84847   4245540.09543  23719815.5084                   23719815.4104
  -6604698.98647  -5118157.35445  22241867.9304                   22241865.6024
  -8612677.27246  -6687601.01344  22552597.8524                   22552598.3554
 11  8 22 18 11 30.0000000  0  9G17G07G08G11G13G19G26G28G24
  -1003257.56447   -752705.04044  23333189.2194                   23333189.5824
  -5384452.35648  -4150353.96147  20171842.7034                   20171840.6454
 -11335243.33048  -8784788.00146  20609874.8674                   20609872.8794
  -9367686.59347  -7263707.51345  21487434.8054                   21487432.8834
  12288603.02247   9576171.36944  22970509.4144                   22970509.6024
   9724476.96647   7583598.40544  23035169.6414                   23035165.6054
   5268528.48047   4131752.54643  23692027.2504                   23692027.9184
  -6701423.01247  -5193526.71545  22223462.1024                   22223459.7384
  -8738795.95347  -6785875.24844  22528597.6414                   22528598.6644
 11  8 22 18 12  0.0000000  0  9G17G07G08G11G13G19G26G28G24
    407983.63647    346963.50244  23601739.1884                   23601740.0124
  -3880361.82048  -2978335.37846  20458061.3754                   20458059.3014
  -9883984.72148  -7653937.12746  20886039.9384                   20886038.5664
  -7884113.68048  -6107676.64945  21769749.2114                   21769746.9344
  13903187.32247  10834288.84244  23277754.2114                   23277754.7304
  11328245.21447   8833287.90244  23340356.2974                   23340353.4774
   6698400.18347   5245938.32943  23964123.0634                   23964122.8954
  -5222621.97647  -4041214.19745  22504868.5784                   22504866.2074
  -7289154.09347  -5656284.12344  22804455.6884                   22804456.0984
 11  8 22 18 12 30.0000000  0  9G17G07G08G11G13G19G26G28G24
    244044.36647    219218.70444  23570542.2894                   23570542.7234
  -3951241.65947  -3033566.44346  20444573.9844                   20444571.8054
 -10007848.06248  -7750454.01346  20862469.8054                   20862468.0744
  -7975411.54847  -6178817.82645  21752375.4064                   21752373.4064
  13942491.39147  10864915.24744  23285233.5474                   23285234.2624
  11356823.95747   8855556.97144  23345794.2424                   23345791.5354
   6553323.56747   5132891.65044  23936515.6954                   23936516.3444
  -5319143.74147  -4116425.96745  22486501.1024                   22486498.9024
  -7414597.32147  -5754032.03844  22780585.0704                   22780585.3054
 11  8 22 18 13  0.0000000  0  9G17G07G08G11G13G19G26G28G24
     80352.88247     91667.00144  23539392.6954                   23539393.9654
  -4021667.09048  -3088443.41346  20431172.0314                   20431170.0234
 -10131406.04548  -7846732.96346  20838957.1564                   20838955.8094
  -8066154.31748  -6249526.47345  21735107.9304                   21735105.9734
  13981931.53747  10895647.68744  23292739.2894                   23292739.1684
  11385630.50647   8878003.56344  23351276.5554                   23351273.1414
   6408726.67647   5020218.84143  23909000.0784                   23908999.6024
  -5415565.05647  -4191559.44945  22468152.7584                   22468149.8324
  -7539697.64346  -5851512.75344  22756778.3594                   22756779.4774
 11  8 22 18 13 30.0000000  0  9G17G07G08G11G13G19G26G28G24
    -83088.39447    -35689.77644  23508291.4774                   23508291.4304
  -4091636.24648  -3142964.83646  20417857.6804                   20417855.4384
 -10254655.23848  -7942771.28646  20815503.8754                   20815502.3164
  -8156340.47647  -6319801.34645  21717945.6414                   21717944.1214
  14021505.39947  10926484.30444  23300270.0164                   23300270.2384
  11414662.29847   8900625.70744  23356800.6564                   23356797.7154
   6264612.72747   4907922.25644  23881575.6564                   23881575.9144
  -5511885.89747  -4266614.63545  22449823.1334                   22449821.3244
  -7664452.01846  -5948723.89944  22733039.0004                   22733039.3524
 11  8 22 18 14  0.0000000  0  9G17G07G08G11G13G19G26G28G24
   -246273.22947   -162846.68344  23477237.7974                   23477238.6684
  -4161143.32548  -3197126.22347  20404630.8284                   20404628.6054
 -10377588.90548  -8038563.75746  20792110.4844                   20792108.6024
  -8245963.73348  -6389637.63245  21700891.3984                   21700889.1954
  14061214.53147  10957426.33544  23307826.4384                   23307826.5004
  11443921.38847   8923424.93744  23362368.7504                   23362365.5864
   6120988.47747   4796007.30844  23854245.4694                   23854245.4344
  -5608102.42447  -4341588.54945  22431513.9694                   22431511.5124
  -7788852.84747  -6045659.54944  22709366.1564                   22709366.7034
 11  8 22 18 14 30.0000000  0  9G17G07G08G11G13G19G26G28G24
   -409203.05947   -289804.91044  23446233.1174                   23446234.2854
  -4230189.94248  -3250928.79246  20391491.6954                   20391489.9344
 -10500208.00848  -8134111.09646  20768776.8674                   20768775.0594
  -8335025.99848  -6459036.77245  21683942.8364                   21683940.8244
  14101052.55447  10988468.79743  23315406.7194                   23315407.3914
  11473401.54647   8946396.42844  23367978.5474                   23367975.6954
   5977852.94847   4684473.18144  23827007.0554                   23827007.5394
  -5704219.21647  -4416484.73745  22413223.5634                   22413221.1214
  -7912900.68947  -6142320.13644  22685759.7504                   22685760.9344
 11  8 22 18 15  0.0000000  0  9G17G07G08G11G13G19G26G28G24
   -571875.02947   -416562.19644  23415277.6644                   23415277.7194
  -4298774.23947  -3304371.10747  20378440.7814                   20378438.3754
 -10622508.53148  -8229410.20746  20745503.5004                   20745501.6524
  -8423524.82548  -6527996.86645  21667102.5944                   21667100.0234
  14141017.18946  11019609.87543  23323012.0704                   23323012.3634
  11503100.81747   8969538.63944  23373629.4144                   23373626.8324
   5835209.51447   4573322.49743  23799862.9774                   23799863.7734
  -5800235.70747  -4491302.76645  22394952.3834                   22394949.8404
  -8036591.55347  -6238702.55544  22662222.6954                   22662223.8484
 11  8 22 18 15 30.0000000  0  9G17G07G08G11G13G19G26G28G24
   -734292.91947   -543121.50444  23384370.8524                   23384371.3284
  -4366900.50648  -3357456.52447  20365476.8754                   20365474.4024
 -10744493.86248  -8324463.70646  20722290.2894                   20722288.7424
  -8511464.21848  -6596521.07045  21650368.0004                   21650365.9804
  14181099.84247  11050842.92143  23330639.3594                   23330639.9884
  11533011.49347   8992845.60744  23379322.3754                   23379318.7274
   5693055.03346   4462552.78943  23772811.1334                   23772811.8094
  -5896158.89147  -4566048.09445  22376698.2734                   22376696.6334
  -8159928.01947  -6334808.81744  22638752.5864                   22638753.8284
 11  8 22 18 16  0.0000000  0  9G17G07G08G11G13G19G26G28G24
   -896449.62147   -669477.30344  23353513.0784                   23353513.4574
  -4434561.34848  -3410179.27347  20352601.1024                   20352598.9454
 -10866155.93748  -8419265.32446  20699139.2274                   20699137.2894
  -8598837.41948  -6664604.05445  21633741.2584                   21633739.1374
  14221303.16547  11082170.08743  23338290.6644                   23338290.4104
  11563136.01147   9016319.23644  23385054.8754                   23385051.7504
   5551397.31946   4352170.14943  23745854.7344                   23745855.7734
  -5991983.34547  -4640716.50045  22358463.8134                   22358461.9144
  -8282901.85747  -6430632.52744  22615351.3674                   22615351.8204
 11  8 22 18 16 30.0000000  0  9G17G07G08G11G13G19G26G28G24
  -1058346.66847   -795630.72844  23322705.3444                   23322706.2814
  -4501759.14647  -3462541.21347  20339813.9224                   20339812.1484
 -10987495.05547  -8513815.27946  20676048.8364                   20676046.9774
  -8685646.13747  -6732247.20345  21617222.4384                   21617219.9104
  14261620.98447  11113586.36843  23345963.1024                   23345963.4064
  11593468.33946   9039954.75444  23390826.0474                   23390824.5704
   5410235.86546   4242174.17443  23718993.2664                   23718993.4104
  -6087713.58047  -4715311.47245  22340247.2344                   22340244.3444
  -8405513.29946  -6526173.83444  22592019.2974                   22592019.5594
 11  8 22 18 17  0.0000000  0  9G17G07G08G11G13G19G26G28G24
  -1219979.49447   -921578.33244  23291947.1884                   23291947.6884
  -4568489.98247  -3514539.27347  20327115.2664                   20327113.3834
 -11108506.50448  -8608109.91846  20653021.5164                   20653019.7894
  -8771886.55248  -6799447.52445  21600811.1254                   21600808.9964
  14302052.98447  11145091.65344  23353657.3364                   23353657.0474
  11624008.48146   9063752.20544  23396637.5234                   23396635.8094
   5269575.44046   4132568.64443  23692226.2664                   23692226.7704
  -6183347.69347  -4789831.53545  22322048.6334                   22322046.0124
  -8527756.96947  -6621428.59344  22568756.5554                   22568757.6484
 11  8 22 18 17 30.0000000  0  9G17G07G08G11G13G19G26G28G24
  -1381349.87547  -1047321.39444  23261239.5944                   23261240.0864
  -4634755.77348  -3566174.96847  20314505.5474                   20314503.5474
 -11229190.95148  -8702149.74546  20630055.8134                   20630053.8754
  -8857560.90848  -6866206.75745  21584507.9614                   21584505.6764
  14342592.62947  11176680.81244  23361372.0944                   23361371.8404
  11654750.25846   9087706.78744  23402487.9614                   23402484.8674
   5129414.98446   4023352.75743  23665554.5864                   23665554.8094
  -6278889.95047  -4864280.03445  22303867.1954                   22303865.4224
  -8649633.57547  -6716397.31244  22545564.5234                   22545565.0274
 11  8 22 18 18  0.0000000  0  9G17G07G08G11G13G19G26G28G24
  -1542455.29547  -1172858.01544  23230582.3674                   23230582.8554
  -4700554.78148  -3617446.93347  20301984.4924                   20301982.2854
 -11349544.99748  -8795932.10846  20607153.1414                   20607151.4144
  -8942666.66248  -6932522.92845  21568312.8364                   21568310.7854
  14383237.52947  11208352.01644  23369105.7734                   23369106.9304
  11685691.58846   9111816.83744  23408376.5554                   23408373.0664
   4989757.66446   3914529.01343  23638978.3204                   23638979.0704
  -6374340.47447  -4938657.05945  22285703.3834                   22285701.3594
  -8771139.61647  -6811077.29344  22522442.6884                   22522443.0274
 11  8 22 18 18 30.0000000  0  9G17G07G08G11G13G19G26G28G24
  -1703297.44347  -1298189.45745  23199975.2584                   23199975.3444
  -4765888.94848  -3668356.69846  20289551.4384                   20289549.4104
 -11469570.30448  -8889458.31846  20584312.8524                   20584311.3014
  -9027206.15248  -6998397.85345  21552225.6254                   21552223.7504
  14423981.35847  11240100.24144  23376859.6804                   23376860.1604
  11716826.38246   9136077.70144  23414301.3284                   23414298.8594
   4850602.18447   3806096.27844  23612499.0944                   23612498.3164
  -6469703.40147  -5012965.79945  22267556.7504                   22267555.0124
  -8892275.35447  -6905468.73644  22499391.1334                   22499391.5864
 11  8 22 18 19  0.0000000  0  9G17G07G08G11G13G19G26G28G24
  -1863872.26547  -1423312.60245  23169418.2584                   23169419.5634
  -4830755.04348  -3718901.71447  20277208.1174                   20277205.8134
 -11589261.76248  -8982724.39946  20561536.4534                   20561534.6174
  -9111175.73848  -7063828.69945  21536246.5944                   21536244.5394
  14464823.23047  11271924.92443  23384632.1414                   23384632.4574
  11748154.38446   9160489.05944  23420262.9694                   23420260.4804
   4711952.99846   3698058.00243  23586113.7734                   23586113.4264
  -6564977.06647  -5087204.99345  22249426.9694                   22249424.7974
  -9013035.86547  -6999567.80144  22476411.4224                   22476410.6724
 11  8 22 18 19 30.0000000  0  9G17G07G08G11G13G19G26G28G24
  -2024179.10147  -1548226.94745  23138913.1484                   23138913.1564
  -4895152.43248  -3769081.51847  20264953.7894                   20264951.4924
 -11708617.62748  -9075728.96746  20538823.8054                   20538821.7504
  -9194575.20648  -7128815.29345  21520376.1644                   21520374.5474
  14505759.46747  11303823.06143  23392421.8284                   23392422.7424
  11779671.96946   9185048.16644  23426260.2974                   23426257.3404
   4573811.56946   3590415.31343  23559826.1564                   23559824.6994
  -6660163.41547  -5161376.15445  22231313.4144                   22231310.9144
  -9133419.20847  -7093372.99844  22453503.3524                   22453503.5314
 11  8 22 18 20  0.0000000  0  9G17G07G08G11G13G19G26G28G24
  -2184218.23447  -1672932.69545  23108458.2664                   23108458.8954
  -4959082.01648  -3818896.79246  20252788.5704                   20252786.4104
 -11827637.24347  -9168471.52546  20516175.1884                   20516173.7194
  -9277405.29348  -7193358.22445  21504614.0864                   21504612.2464
  14546785.01846  11335790.83443  23400228.3204                   23400229.4454
  11811373.99646   9209750.99744  23432292.8204                   23432289.8444
   4436178.09747   3483168.51143  23533635.4224                   23533635.5664
  -6755265.04847  -5235481.30445  22213216.2344                   22213214.1954
  -9253424.94146  -7186883.91744  22430666.5784                   22430666.8674
 11  8 22 18 20 30.0000000  0  9G17G07G08G11G13G19G26G28G24
  -2343986.38247  -1797427.29245  23078055.2194                   23078056.1484
  -5022541.33148  -3868345.62547  20240712.2034                   20240709.7814
 -11946316.73248  -9260949.05146  20493591.1484                   20493589.4654
  -9359663.52148  -7257455.54045  21488961.4774                   21488958.7894
  14587898.31547  11367826.96543  23408052.3674                   23408053.2074
  11843259.62846   9234596.85444  23438360.3054                   23438358.5044
   4299056.30547   3376320.39043  23507542.3754                   23507540.8794
  -6850281.40648  -5309520.01445  22195135.0554                   22195132.8524
  -9373048.60347  -7280097.13244  22407903.4064                   22407903.8204
 11  8 22 18 21  0.0000000  0  9G17G07G08G11G13G19G26G28G24
  -2503481.07447  -1921708.77845  23047705.3674                   23047705.3364
  -5085528.48248  -3917426.54046  20228726.5634                   20228723.7974
 -12064653.06448  -9353159.18346  20471072.5784                   20471070.8134
  -9441347.74848  -7321105.57845  21473417.5394                   21473414.9104
  14629096.95447  11399929.65843  23415892.6334                   23415893.2544
  11875327.07147   9259584.41944  23444463.7424                   23444460.5514
   4162449.17347   3269873.27343  23481546.9064                   23481546.5744
  -6945212.48647  -5383492.27245  22177070.1564                   22177068.1294
  -9492286.59947  -7373009.85845  22385212.9534                   22385212.6724
 11  8 22 18 21 30.0000000  0  9G17G07G08G11G13G19G26G28G24
  -2662706.40747  -2045780.40545  23017405.2274                   23017405.6994
  -5148047.91648  -3966142.98846  20216829.3284                   20216826.8874
 -12182649.08648  -9445104.13246  20448618.6414                   20448617.0664
  -9522462.62148  -7384311.97545  21457981.1724                   21457979.5984
  14670372.52647  11432092.25043  23423747.4924                   23423748.0594
  11907567.61846   9284706.85144  23450599.0004                   23450596.0554
   4026353.11647   3163824.40243  23455648.7584                   23455648.0124
  -7040064.74047  -5457403.11245  22159020.1954                   22159018.3834
  -9611141.97746  -7465624.43044  22362595.9454                   22362595.1684
 11  8 22 18 22  0.0000000  0  9G17G07G08G11G13G19G26G28G24
  -2821664.70247  -2169643.92645  22987155.9614                   22987157.1914
  -5210102.11748  -4014496.92446  20205020.9534                   20205018.6054
 -12300306.22948  -9536785.01746  20426229.2894                   20426227.5394
  -9603010.57048  -7447076.59345  21442653.5474                   21442651.6024
  14711718.23146  11464309.48843  23431615.1884                   23431615.6684
  11939975.22246   9309959.45444  23456764.7194                   23456762.6724
   3890766.74747   3058172.70244  23429847.0234                   23429847.2304
  -7134842.76448  -5531256.10145  22140984.6174                   22140982.2814
  -9729615.97547  -7557941.81544  22340050.5004                   22340050.4304
 11  8 22 18 22 30.0000000  0  9G17G07G08G11G13G19G26G28G24
  -2980358.94647  -2293301.72645  22956957.7814                   22956958.0664
  -5271694.94248  -4062491.35546  20193299.5704                   20193297.8914
 -12417626.62748  -9628203.51346  20403903.7894                   20403901.9804
  -9682995.58848  -7509402.57145  21427433.1334                   21427430.8444
  14753126.15047  11496575.21543  23439495.3594                   23439495.0394
  11972542.32546   9335336.33344  23462962.0084                   23462960.1414
   3755687.22047   2952915.93243  23404142.5704                   23404143.1764
  -7229551.77348  -5605055.30945  22122962.0784                   22122960.1644
  -9847710.50047  -7649963.48144  22317577.9694                   22317577.7584
 11  8 22 18 23  0.0000000  0  9G17G07G08G11G13G19G26G28G24
  -3138786.74647  -2416751.88145  22926810.0084                   22926810.1724
  -5332824.54448  -4110124.81546  20181667.6644                   20181665.4694
 -12534607.47948  -9719357.42446  20381643.0004                   20381641.9804
  -9762415.76548  -7571288.41545  21412319.8444                   21412317.9804
  14794593.80346  11528887.53843  23447386.1644                   23447386.9264
  12005266.51846   9360835.64144  23469189.2114                   23469186.6374
   3621117.35647   2848056.34844  23378535.0004                   23378535.4804
  -7324192.31048  -5678801.16545  22104952.9384                   22104950.3364
  -9965422.18447  -7741686.87544  22295178.3284                   22295178.5084
 11  8 22 18 23 30.0000000  0  9G17G07G08G11G13G19G26G28G24
  -1721521.36347  -1312389.17245  23196506.4924                   23196506.3204
  -3818068.04948  -2929795.09446  20469915.9924                   20469914.0204
 -11075822.31648  -8582641.71046  20659240.6414                   20659239.1414
  -8265847.49147  -6405131.31945  21697107.6094                   21697105.2734
  16411537.10246  12788843.13143  23755080.2344                   23755081.9024
  13613564.15246  10614054.47144  23775238.4614                   23775235.9494
   5062483.78047   3971199.03244  23652818.2344                   23652818.1414
  -5843341.88447  -4524891.74445  22386748.9144                   22386746.9384
  -8507324.61347  -6605506.90244  22572645.0314                   22572644.8554
 11  8 22 18 24  0.0000000  0  9G17G07G08G11G13G19G26G28G24
  -1879416.15247  -1435424.01145  23166460.1484                   23166460.3794
  -3878272.98348  -2976708.04847  20458459.3444                   20458457.3014
 -11192120.68848  -8673263.82146  20637109.9064                   20637108.4964
  -8344139.70548  -6466138.23845  21682208.5784                   21682206.6564
  16453111.22647  12821238.30043  23762991.8364                   23762993.2624
  13646590.53846  10639789.23244  23781523.3754                   23781520.8634
   4928934.97547   3867135.04444  23627404.1024                   23627404.1214
  -5937852.06547  -4598536.03045  22368764.4144                   22368762.6564
  -8624267.63547  -6696631.29644  22550391.1334                   22550391.6804
 11  8 22 18 24 30.0000000  0  9G17G07G08G11G13G19G26G28G24
  -2037044.94147  -1558251.58645  23136464.1334                   23136465.3284
  -3938016.93648  -3023261.78546  20447090.4844                   20447088.4344
 -11308077.32848  -8763619.64446  20615044.0554                   20615042.9534
  -8421869.61048  -6526706.99645  21667417.2344                   21667414.9884
  16494730.92946  12853669.09843  23770911.7814                   23770913.0124
  13679760.84246  10665636.20344  23787836.0084                   23787832.7074
   4795896.59547   3763468.83143  23602088.5004                   23602088.6094
  -6032301.24048  -4672132.77345  22350791.3914                   22350789.0864
  -8740825.42647  -6787455.49544  22528210.9614                   22528211.3134
 11  8 22 18 25  0.0000000  0  9G17G07G08G11G13G19G26G28G24
  -2194405.99347  -1680870.51045  23106519.6174                   23106519.2584
  -3997298.46548  -3069455.19446  20435809.7974                   20435807.1644
 -11423689.06948  -8853706.71746  20593043.6174                   20593042.2934
  -8499035.75247  -6586836.45745  21652733.0164                   21652731.3754
  16536393.77646  12886133.40243  23778839.5164                   23778841.6954
  13713072.69246  10691593.41943  23794175.2274                   23794171.6454
   4663371.15546   3660202.30643  23576868.1484                   23576868.8484
  -6126689.73147  -4745682.22945  22332829.8134                   22332827.3714
  -8856994.77947  -6877977.06245  22506104.9534                   22506105.0124
 11  8 22 18 25 30.0000000  0  9G17G07G08G11G13G19G26G28G24
  -2351500.53047  -1803281.76845  23076625.2814                   23076625.4024
  -4056119.32448  -3115289.65046  20424616.5314                   20424614.1214
 -11538955.94448  -8943525.05646  20571109.2734                   20571107.5704
  -8575639.86848  -6646527.97945  21638155.9534                   21638153.3754
  16578093.87646  12918626.78343  23786775.5634                   23786777.0784
  13746521.11146  10717657.08144  23800540.0634                   23800536.6134
   4531357.96346   3557334.92643  23551747.0084                   23551747.4104
  -6221021.30048  -4819187.33845  22314879.2424                   22314876.6334
  -8972775.84147  -6968196.02644  22484072.0634                   22484072.7814
 11  8 22 18 26  0.0000000  0  9G17G07G08G11G13G19G26G28G24
  -2508320.66347  -1925479.19245  23046783.6174                   23046783.5554
  -4114472.40648  -3160759.60046  20413512.3284                   20413510.1294
 -11653869.39748  -9033067.99846  20549241.7584                   20549240.4534
  -8651674.99048  -6705776.12345  21623686.7274                   21623684.5124
  16619834.48446  12951151.69043  23794718.3444                   23794720.3244
  13780109.41146  10743829.70844  23806931.7584                   23806928.6914
   4399865.47046   3454873.23643  23526725.3754                   23526725.8014
  -6315290.18748  -4892643.61145  22296939.9614                   22296937.8754
  -9088159.59547  -7058105.40944  22462115.3364                   22462115.6954
 11  8 22 18 26 30.0000000  0  9G17G07G08G11G13G19G26G28G24
  -2664872.22347  -2047467.35445  23016992.1094                   23016993.1334
  -4172364.18448  -3205870.09947  20402496.2664                   20402494.0164
 -11768434.99148  -9122339.87746  20527440.7424                   20527439.3954
  -8727147.59048  -6764585.94145  21609324.9454                   21609322.8134
  16661605.17547  12983700.07043  23802668.2034                   23802669.4574
  13813827.59446  10770103.57744  23813347.8834                   23813345.2974
   4268887.74446   3352812.73844  23501801.0084                   23501801.2704
  -6409504.52147  -4966057.37845  22279012.0634                   22279009.5514
  -9203151.20847  -7147709.23144  22440233.7974                   22440234.0204
 11  8 22 18 27  0.0000000  0  9G17G07G08G11G13G19G26G28G24
  -2821148.80747  -2169241.22345  22987254.6564                   22987253.4964
  -4229788.61948  -3250616.41947  20391568.3054                   20391565.6174
 -11882645.31448  -9211334.93046  20505707.4224                   20505705.9574
  -8802051.97048  -6822952.98145  21595070.8134                   21595068.7734
  16703408.14747  13016273.59243  23810623.1254                   23810624.3954
  13847677.70147  10796480.25644  23819789.4924                   23819786.9454
   4138431.89346   3251158.86244  23476976.5704                   23476976.6254
  -6503660.26048  -5039425.46345  22261094.4534                   22261092.8874
  -9317742.96347  -7237001.47345  22418427.1804                   22418427.6684
 11  8 22 18 27 30.0000000  0  9G17G07G08G11G13G19G26G28G24
  -2977151.86647  -2290801.96545  22957566.7814                   22957567.3554
  -4286748.32548  -3295000.63146  20380729.3914                   20380727.0124
 -11996500.54848  -9300053.28946  20484041.7034                   20484039.6054
  -8876390.54348  -6880879.12445  21580924.6884                   21580922.8404
  16745236.87747  13048867.24943  23818582.9384                   23818583.8714
  13881654.11446  10822955.33444  23826254.6644                   23826252.2424
   4008496.55546   3149910.60544  23452250.9924                   23452250.4454
  -6597761.52547  -5112751.10745  22243187.5864                   22243185.5004
  -9431935.45047  -7325982.63244  22396696.9694                   22396697.1094
 11  8 22 18 28  0.0000000  0  9G17G07G08G11G13G19G26G28G24
  -3132884.15347  -2412151.74645  22927932.7504                   22927932.5944
  -4343246.13648  -3339024.92146  20369978.1174                   20369975.7274
 -12110002.27448  -9388496.18346  20462443.0234                   20462441.0204
  -8950166.28848  -6938366.70345  21566885.8914                   21566883.3874
  16787084.87446  13081475.87443  23826545.9064                   23826547.6294
  13915750.23346  10849523.68844  23832742.9064                   23832740.5704
   3879080.13847   3049066.67144  23427623.5634                   23427624.0204
  -6691812.83548  -5186037.81545  22225290.4614                   22225288.1884
  -9545730.28447  -7414653.87445  22375042.1334                   22375042.5664
 11  8 22 18 28 30.0000000  0  9G17G07G08G11G13G19G26G28G24
  -3288347.13847  -2533291.65545  22898348.7584                   22898349.3834
  -4399284.26048  -3382691.01646  20359314.8054                   20359312.6334
 -12223151.27948  -9476664.24546  20440911.1174                   20440909.3714
  -9023381.66647  -6995417.63945  21552953.0634                   21552951.1524
  16828946.19446  13114094.86143  23834511.7344                   23834514.1484
  13949960.52746  10876181.02444  23839253.3834                   23839250.7734
   3750180.88947   2948625.74044  23403094.2814                   23403094.1214
  -6785817.74947  -5259288.38145  22207401.9144                   22207399.4344
  -9659128.24447  -7503015.88544  22353462.9924                   22353463.4534
 11  8 22 18 29  0.0000000  0  9G17G07G08G11G13G19G26G28G24
  -3443540.50247  -2654221.46245  22868817.0634                   22868816.8244
  -4454863.03348  -3425999.17946  20348738.1334                   20348735.7194
 -12335946.29948  -9564556.46446  20419447.2814                   20419445.4414
  -9096037.14548  -7052032.27245  21539127.3674                   21539125.4534
  16870816.24446  13146720.57343  23842480.3914                   23842481.5944
  13984281.04746  10902924.21644  23845784.1024                   23845782.3834
   3621799.68646   2848588.41844  23378664.2584                   23378664.0944
  -6879778.52648  -5332504.55045  22189521.8984                   22189520.0124
  -9772127.72447  -7591067.39644  22331960.2504                   22331959.9574
 11  8 22 18 29 30.0000000  0  9G17G07G08G11G13G19G26G28G24
  -3598462.77647  -2774940.02245  22839335.8134                   22839335.2274
  -4509981.58648  -3468948.71746  20338249.8284                   20338248.1054
 -12448384.94648  -9652170.99746  20398050.9224                   20398049.0594
  -9168132.49548  -7108210.45845  21525408.1954                   21525406.2074
  16912691.88946  13179350.74343  23850449.6564                   23850450.2344
  14018708.80046  10929750.91644  23852335.7814                   23852333.4144
   3493938.37647   2748956.25843  23354333.3444                   23354333.4534
  -6973695.96747  -5405686.95845  22171649.9384                   22171647.6684
  -9884726.46847  -7678806.64644  22310533.4304                   22310534.1414
 11  8 22 18 30  0.0000000  0  9G17G07G08G11G13G19G26G28G24
  -3753115.19147  -2895448.32345  22809905.9144                   22809906.2624
  -4564641.69448  -3511541.03947  20327848.2114                   20327846.0594
 -12560467.33448  -9739507.91646  20376722.2814                   20376720.5004
  -9239668.71048  -7163952.95545  21511795.5474                   21511793.7344
  16954568.20446  13211981.42843  23858418.0634                   23858419.4024
  14053239.25546  10956657.73244  23858907.0554                   23858904.1414
   3366596.11847   2649728.51944  23330100.3054                   23330100.6524
  -7067573.17147  -5478837.99845  22153785.3054                   22153783.5514
  -9996924.34047  -7766233.55445  22289182.6254                   22289183.3714
 11  8 22 18 30 30.0000000  0  9G17G07G08G11G13G19G26G28G24
  -3907500.63547  -3015748.59845  22780527.5474                   22780528.4534
  -4618847.02148  -3553778.96846  20317533.1724                   20317531.1764
 -12672195.56448  -9826568.87246  20355460.8204                   20355459.4384
  -9310649.88447  -7219262.94645  21498287.8204                   21498285.3554
  16996437.61246  13244606.74243  23866385.2814                   23866387.8014
  14087865.18446  10983638.92343  23865495.5864                   23865493.7114
   3239770.45647   2550903.34843  23305966.5944                   23305965.4694
  -7161415.22547  -5551961.67745  22135927.9614                   22135925.6564
 -10108723.37947  -7853349.64544  22267908.7504                   22267908.4344
 11  8 22 18 31  0.0000000  0  9G17G07G08G11G13G19G26G28G24
  -4061617.08447  -3135839.26545  22751200.0164                   22751200.3094
  -4672596.14848  -3595661.43146  20307305.3914                   20307302.8094
 -12783566.65748  -9913351.53946  20334267.6094                   20334266.2074
  -9381075.03447  -7274139.66445  21484886.4454                   21484884.0354
  17038297.72046  13277224.75043  23874351.3444                   23874354.0984
  14122584.50346  11010692.85544  23872102.9534                   23872100.7774
   3113463.70547   2452482.52044  23281931.3834                   23281931.1914
  -7255222.44947  -5625058.18445  22118076.5234                   22118074.3404
 -10220120.58647  -7940152.63145  22246709.8134                   22246710.0004
 11  8 22 18 31 30.0000000  0  9G17G07G08G11G13G19G26G28G24
  -4215464.91947  -3255720.60345  22721924.0394                   22721924.8284
  -4725890.44248  -3637189.46446  20297163.5704                   20297161.4104
 -12894579.92648  -9999855.37946  20313142.3284                   20313141.1214
  -9450945.68247  -7328584.30545  21471590.7584                   21471588.6414
  17080143.52246  13309831.61343  23882314.1804                   23882316.1484
  14157392.55746  11037815.90244  23878727.3054                   23878724.7734
   2987675.65546   2354465.85244  23257995.5084                   23257994.6804
  -7348997.38747  -5698129.55445  22100232.3594                   22100229.9454
 -10331115.16147  -8026641.87045  22225588.8524                   22225588.6684
 11  8 22 18 32  0.0000000  0  9G17G07G08G11G13G19G26G28G24
  -4369042.55247  -3375391.42045  22692698.8914                   22692699.5474
  -4778728.69748  -3678362.15446  20287108.8444                   20287106.5394
 -13005232.85548 -10086078.43546  20292086.2194                   20292084.2504
  -9520260.56747  -7382595.89045  21458400.5084                   21458398.1374
  17121972.61846  13342425.46043  23890274.2274                   23890277.1254
  14192287.13746  11065006.39244  23885366.8834                   23885364.4844
   2862408.24346   2256854.89843  23234157.2034                   23234155.9574
  -7442740.16647  -5771175.86245  22082393.5474                   22082390.9774
 -10441704.65447  -8112815.46445  22204544.2194                   22204544.7704
 11  8 22 18 32 30.0000000  0  9G17G07G08G11G13G19G26G28G24
  -4522354.62247  -3494855.30145  22663524.1644                   22663524.1994
  -4831115.93748  -3719183.40046  20277139.8444                   20277137.9534
 -13115528.87348 -10172023.37746  20271097.3444                   20271095.8754
  -9589025.48147  -7436178.94145  21445314.8444                   21445312.1954
  17163776.04746  13374999.31743  23898228.7194                   23898231.6644
  14227259.88847  11092257.79944  23892022.8594                   23892019.9064
   2737657.41946   2159646.46543  23210417.0394                   23210416.4064
  -7536457.97248  -5844202.71045  22064559.5474                   22064556.8674
 -10551892.63847  -8198676.22345  22183576.5784                   22183576.3714
 11  8 22 18 33  0.0000000  0  9G17G07G08G11G13G19G26G28G24
  -4675400.03147  -3614111.39045  22634401.1094                   22634401.0474
  -4883052.02048  -3759653.10246  20267256.6334                   20267254.6914
 -13225466.05548 -10257688.70646  20250176.6564                   20250175.1804
  -9657240.23647  -7489333.28445  21432333.9384                   21432331.6414
  17205550.28546  13407550.42743  23906179.5554                   23906180.8164
  14262307.52647  11119567.63243  23898691.9064                   23898688.4264
   2613424.05547   2062841.20243  23186777.6094                   23186775.5944
  -7630151.66047  -5917210.75745  22046730.0634                   22046727.9734
 -10661677.19847  -8284222.61645  22162685.2034                   22162685.1954
 11  8 22 18 33 30.0000000  0  9G17G07G08G11G13G19G26G28G24
  -4828176.41947  -3733157.88445  22605328.4064                   22605328.7584
  -4934535.38048  -3799770.02746  20257459.7664                   20257457.4964
 -13335041.08348 -10343071.85146  20229325.4534                   20229323.8164
  -9724903.23548  -7542057.69345  21419458.0944                   21419456.6214
  17247293.56346  13440077.40343  23914123.2664                   23914125.6054
  14297428.81447  11146934.81543  23905375.1564                   23905372.1884
   2489711.27746   1966441.65043  23163233.5394                   23163235.3324
  -7723820.94647  -5990199.79945  22028905.4614                   22028902.7974
 -10771055.11447  -8369452.12345  22141870.9144                   22141871.3444
 11  8 22 18 34  0.0000000  0  9G17G07G08G11G13G19G26G28G24
  -4980684.78447  -3851995.49045  22576307.3054                   22576307.0394
  -4985567.54148  -3839535.36846  20247748.6094                   20247746.8594
 -13444253.81548 -10428172.67446  20208542.8914                   20208541.2894
  -9792016.24947  -7594353.55345  21406687.1254                   21406684.9344
  17289000.72446  13472576.28142  23922058.9844                   23922062.0984
  14332618.60847  11174355.40743  23912071.9694                   23912068.7424
   2366518.24546   1870447.06643  23139791.5084                   23139791.6484
  -7817468.68747  -6063172.06645  22011085.5864                   22011082.7154
 -10880026.13647  -8454364.57545  22121134.3134                   22121134.5824
 11  8 22 18 34 30.0000000  0  9G17G07G08G11G13G19G26G28G24
  -5132925.19247  -3970624.32445  22547336.5784                   22547336.1254
  -5036149.48248  -3878949.89646  20238123.4384                   20238121.3634
 -13553103.67748 -10512990.74546  20187829.7114                   20187828.0434
  -9858580.53847  -7646221.82345  21394019.7734                   21394018.2114
  17330667.39646  13505043.56243  23929989.1484                   23929991.3914
  14367872.89947  11201826.21844  23918780.4614                   23918777.3524
   2243844.84646   1774857.43443  23116447.6644                   23116446.8914
  -7911097.30248  -6136129.41045  21993267.9924                   21993266.0434
 -10988589.73347  -8538959.54445  22100475.0474                   22100475.4574
 11  8 22 18 35  0.0000000  0  9G17G07G08G11G13G19G26G28G24
  -3709473.72347  -2861441.28745  22818210.5634                   22818210.7934
  -3510861.20648  -2690413.60346  20528376.0554                   20528374.0474
 -12086166.63448  -9369922.91846  20466978.4774                   20466977.2704
  -8349175.88947  -6470062.36245  21681250.0474                   21681248.1254
  18947706.61046  14765073.84743  24237701.2424                   24237704.4574
  15978605.71347  12456942.66343  24225293.1804                   24225289.4884
   3697114.39046   2907275.26543  23392995.8054                   23392995.8284
  -6429286.66848  -4981471.76545  22275247.4454                   22275245.0204
  -9521322.18747  -7395634.15945  22379686.9144                   22379687.3834
 11  8 22 18 35 30.0000000  0  9G17G07G08G11G13G19G26G28G24
  -3861180.77047  -2979654.50045  22789341.7034                   22789341.2274
  -3560547.09448  -2729129.90446  20518921.0004                   20518918.9574
 -12194289.51048  -9454174.51646  20446403.2814                   20446401.5084
  -8414648.05747  -6521079.64145  21668791.4534                   21668789.2194
  18989276.78046  14797465.86743  24245612.3204                   24245614.4024
  16013975.12947  12484503.26843  24232023.3524                   24232019.8164
   3575478.84747   2812494.34044  23369850.0314                   23369849.5044
  -6522885.36348  -5054405.80545  22257435.7664                   22257434.1724
  -9629070.03347  -7479593.47845  22359183.4774                   22359183.5084
 11  8 22 18 36  0.0000000  0  9G17G07G08G11G13G19G26G28G24
  -4012624.10547  -3097662.23345  22760522.5864                   22760522.5394
  -3609789.17748  -2767500.38446  20509550.4384                   20509548.2544
 -12302050.37048  -9538144.01546  20425896.9384                   20425895.0514
  -8479578.70848  -6571674.95745  21656435.3984                   21656433.2974
  19030789.45446  14829813.18843  24253511.0864                   24253514.8674
  16049393.26546  12512101.76143  24238762.7034                   24238760.5164
   3454359.36947   2718115.56044  23346801.4304                   23346801.4534
  -6616475.23148  -5127332.95945  22239626.4534                   22239623.6174
  -9736411.83547  -7563236.43945  22338756.6644                   22338757.0354
 11  8 22 18 36 30.0000000  0  9G17G07G08G11G13G19G26G28G24
  -4163801.76047  -3215462.93945  22731755.0004                   22731754.5274
  -3658585.96747  -2805523.88446  20500265.0634                   20500263.0664
 -12409446.02048  -9621828.93646  20405460.4774                   20405458.8914
  -8543966.59847  -6621847.35445  21644182.6884                   21644180.1454
  19072242.54446  14862114.03343  24261400.4454                   24261403.0354
  16084858.39146  12539736.85344  24245512.1644                   24245509.1914
   3333758.50847   2624140.83744  23323852.1174                   23323852.6334
  -6710056.01247  -5200253.03245  22221818.0784                   22221816.5204
  -9843344.47147  -7646560.53345  22318408.0084                   22318408.2704
 11  8 22 18 37  0.0000000  0  9G17G07G08G11G13G19G26G28G24
  -4314711.86647  -3333055.13545  22703037.2814                   22703037.4184
  -3706936.29747  -2843199.50146  20491064.3674                   20491062.4264
 -12516473.92148  -9705227.30646  20385093.5944                   20385092.1134
  -8607810.94348  -6671596.19645  21632034.0084                   21632031.7034
  19113633.52146  14894366.51043  24269276.3054                   24269280.4224
  16120368.36346  12567406.83543  24252269.8204                   24252267.1214
   3213678.15946   2530571.72544  23301001.3204                   23301001.2194
  -6803627.88148  -5273166.18345  22204012.1564                   22204010.7704
  -9949865.11047  -7729563.60845  22298137.7504                   22298137.8834
 11  8 22 18 37 30.0000000  0  9G17G07G08G11G13G19G26G28G24
  -4465356.40147  -3450440.42445  22674370.1414                   22674369.8954
  -3754843.03748  -2880529.45646  20481947.8674                   20481946.2114
 -12623134.90248  -9788339.76646  20364797.1094                   20364795.4694
  -8671114.59647  -6720923.72545  21619987.3984                   21619985.2114
  19154956.23946  14926565.67543  24277140.3134                   24277144.7854
  16155917.69046  12595107.51444  24259033.8984                   24259031.9344
   3094116.55547   2437406.83744  23278249.9224                   23278249.6054
  -6897194.68448  -5346075.36145  22186207.7814                   22186205.1094
 -10055974.86547  -7812246.50245  22277945.8754                   22277945.8754
 11  8 22 18 38  0.0000000  0  9G17G07G08G11G13G19G26G28G24
  -4615732.92947  -3567616.87045  22645754.4384                   22645754.5704
  -3802304.51847  -2917512.45746  20472916.6024                   20472914.3874
 -12729425.09247  -9871163.29546  20344570.5704                   20344568.5514
  -8733876.35847  -6769828.97845  21608044.2274                   21608042.1054
  19196209.26046  14958710.62343  24284991.8834                   24284994.1884
  16191505.13546  12622837.88344  24265806.7584                   24265803.4064
   2975076.26447   2344648.22144  23255596.6564                   23255597.8594
  -6990755.69047  -5418980.03845  22168403.1724                   22168400.8954
 -10161670.37147  -7894606.62245  22257832.3754                   22257832.6414
 11  8 22 18 38 30.0000000  0  9G17G07G08G11G13G19G26G28G24
  -4765847.91547  -3684589.50545  22617188.5704                   22617188.7384
  -3849327.90347  -2954154.07846  20463968.1644                   20463966.3754
 -12835350.38247  -9953702.47646  20324413.7734                   20324411.9414
  -8796103.81247  -6818317.88745  21596203.0084                   21596200.4844
  19237382.11946  14990793.10743  24292826.7114                   24292828.9064
  16227120.02747  12650589.69944  24272583.3524                   24272580.9924
   2856551.01847   2252290.89744  23233042.0394                   23233042.8754
  -7084319.68647  -5491887.03345  22150598.4064                   22150596.2544
 -10266957.22447  -7976648.28945  22237797.3594                   22237796.8094
 11  8 22 18 39  0.0000000  0  9G17G07G08G11G13G19G26G28G24
  -4915698.94947  -3801356.47245  22588672.8524                   22588672.8134
  -3895911.58247  -2990453.07446  20455103.7114                   20455101.4184
 -12940907.26948 -10035954.60646  20304326.9384                   20304324.6804
  -8857795.62748  -6866389.42645  21584463.4774                   21584461.7424
  19278472.75046  15022811.50443  24300645.1724                   24300649.1914
  16262761.54446  12678362.22644  24279365.8594                   24279363.7034
   2738543.35247   2160336.88444  23210585.5944                   23210586.0824
  -7177885.92548  -5564795.78645  22132793.8834                   22132791.2034
 -10371831.90547  -8058368.78645  22217840.4614                   22217840.0704
 11  8 22 18 39 30.0000000  0  9G17G07G08G11G13G19G26G28G24
  -5065286.94647  -3917918.46845  22560207.0784                   22560206.7344
  -3942057.08947  -3026410.63746  20446322.5554                   20446320.4104
 -13046095.45148 -10117919.43546  20284310.1334                   20284308.4224
  -8918953.51847  -6914044.91945  21572825.2194                   21572823.5164
  19319476.45046  15054762.15843  24308447.5554                   24308452.7704
  16298424.94447  12706151.82344  24286152.7814                   24286149.6684
   2621052.72147   2068785.76244  23188228.0784                   23188228.0234
  -7271457.28448  -5637708.52045  22114987.5394                   22114985.3054
 -10476294.44647  -8139768.12845  22197961.4454                   22197960.7664
 11  8 22 18 40  0.0000000  0  9G17G07G08G11G13G19G26G28G24
  -5214610.73847  -4034274.58645  22531791.8914                   22531791.6804
  -3987764.34447  -3062026.70946  20437625.0634                   20437622.8164
 -13150912.63347 -10199595.16346  20264363.9384                   20264362.2234
  -8979577.47647  -6961284.34545  21561288.6334                   21561286.0474
  19360390.35246  15086642.74343  24316234.1484                   24316238.1884
  16334107.73147  12733956.50644  24292942.8054                   24292940.6994
   2504080.33447   1977638.48044  23165969.1954                   23165969.3874
  -7365033.98448  -5710625.41745  22097180.4064                   22097178.1764
 -10580342.90247  -8220844.80745  22178161.7344                   22178161.5944
 11  8 22 18 40 30.0000000  0  9G17G07G08G11G13G19G26G28G24
  -5363669.05347  -4150423.85445  22503426.6094                   22503427.2154
  -4033032.51347  -3097300.63146  20429010.2894                   20429008.1764
 -13255356.66047 -10280980.11746  20244488.6644                   20244487.3714
  -9039667.51348  -7008107.74445  21549854.2974                   21549852.1994
  19401211.77146  15118451.33642  24324002.8524                   24324006.4384
  16369807.33547  12761774.34444  24299735.9534                   24299733.9774
   2387627.38147   1886895.91744  23143808.7274                   23143809.2544
  -7458616.77448  -5783547.06945  22079372.1414                   22079369.7234
 -10683975.03346  -8301597.09744  22158441.1334                   22158441.2034
 11  8 22 18 41  0.0000000  0  9G17G07G08G11G13G19G26G28G24
  -5512459.98647  -4266364.76945  22475113.0944                   22475112.5744
  -4077860.71148  -3132231.71146  20420479.8914                   20420477.6174
 -13359424.70548 -10362072.09746  20224685.3914                   20224684.1564
  -9099222.93547  -7054514.56345  21538520.5164                   21538518.8404
  19441938.20846  15150185.89142  24331753.1334                   24331756.6134
  16405521.77846  12789603.68444  24306532.8444                   24306530.2194
   2271695.73747   1796559.57344  23121748.2344                   23121747.9924
  -7552205.87748  -5856473.62545  22061562.6254                   22061560.7934
 -10787188.08047  -8382022.81145  22138800.3834                   22138800.1454
 11  8 22 18 41 30.0000000  0  9G17G07G08G11G13G19G26G28G24
  -5660981.82747  -4382095.98745  22446850.1254                   22446849.6884
  -4122247.86948  -3166819.13746  20412033.2344                   20412031.1094
 -13463113.69048 -10442868.71046  20204954.3984                   20204952.7704
  -9158243.02648  -7100504.23945  21527290.2584                   21527288.0744
  19482567.47046  15181844.77443  24339485.3284                   24339487.6684
  16441249.33446  12817443.29643  24313331.7194                   24313329.2424
   2156287.75847   1706631.28644  23099786.5004                   23099786.8244
  -7645801.32948  -5929405.13345  22043752.0314                   22043749.9884
 -10889979.31047  -8462119.82845  22119240.2034                   22119239.9024
 11  8 22 18 42  0.0000000  0  9G17G07G08G11G13G19G26G28G24
  -5809228.94347  -4497613.14945  22418639.2894                   22418639.4104
  -4166189.45447  -3201059.35446  20403671.4614                   20403669.5084
 -13566416.96347 -10523364.77146  20185295.8444                   20185294.6374
  -9216723.36248  -7146073.33945  21516161.4384                   21516159.6484
  19523101.01046  15213429.02143  24347198.3834                   24347202.0084
  16476992.22646  12845294.84043  24320133.5164                   24320130.4654
   2041408.52647   1617115.01344  23077925.4144                   23077925.6994
  -7739399.16848  -6002338.49445  22025940.8444                   22025938.9654
 -10992342.46446  -8541883.30244  22099760.5634                   22099760.8014
 11  8 22 18 42 30.0000000  0  9G17G07G08G11G13G19G26G28G24
  -5957204.07047  -4612918.37045  22390480.7194                   22390480.8204
  -4209688.98048  -3234955.10946  20395393.7344                   20395391.6804
 -13669336.14348 -10603561.53446  20165711.4534                   20165709.9064
  -9274667.94548  -7191224.95645  21505135.0634                   21505132.3634
  19563532.44946  15244933.75543  24354892.5394                   24354895.7584
  16512744.11646  12873153.46943  24326936.5864                   24326933.1524
   1927055.59347   1528008.83744  23056165.1174                   23056164.6724
  -7833003.98648  -6075277.31945  22008128.8054                   22008126.2424
 -11094279.48646  -8621314.73445  22080362.5634                   22080362.5234
 11  8 22 18 43  0.0000000  0  9G17G07G08G11G13G19G26G28G24
  -6104906.25847  -4728010.91345  22362373.9534                   22362373.7704
  -4252746.18748  -3268506.19846  20387200.4144                   20387198.4224
 -13771869.30348 -10683457.50646  20146200.3134                   20146198.3244
  -9332076.88847  -7235959.21245  21494210.5084                   21494208.6844
  19603858.83146  15276356.52843  24362566.9144                   24362569.9184
  16548502.54646  12901017.15343  24333740.8984                   24333738.4494
   1813230.25747   1439313.75544  23034504.8204                   23034505.3054
  -7926615.97448  -6148221.73245  21990314.9774                   21990312.6024
 -11195788.20947  -8700412.41945  22061046.5394                   22061046.2854
 11  8 22 18 43 30.0000000  0  9G17G07G08G11G13G19G26G28G24
  -6252333.76047  -4842889.41145  22334319.1884                   22334319.2504
  -4295359.95347  -3301711.74546  20379091.0864                   20379089.3164
 -13874013.39248 -10763050.29946  20126762.6724                   20126761.2304
  -9388949.50048  -7280275.53045  21483387.3204                   21483385.6414
  19644077.92646  15307695.79643  24370220.8284                   24370224.3524
  16584265.61946  12928884.44443  24340545.8594                   24340543.8014
   1699934.01547   1351030.95144  23012945.8834                   23012944.6024
  -8020235.32848  -6221171.87045  21972499.5234                   21972497.0554
 -11296866.14447  -8779174.41545  22041811.6334                   22041812.1644
 11  8 22 18 44  0.0000000  0  9G17G07G08G11G13G19G26G28G24
  -6399488.75147  -4957555.56645  22306316.4454                   22306316.6564
  -4337533.54447  -3334574.30646  20371065.8834                   20371063.5554
 -13975769.86448 -10842341.05846  20107399.0944                   20107396.9774
  -9445289.48447  -7324176.85045  21472666.7734                   21472664.3014
  19684183.52646  15338946.64543  24377853.0474                   24377856.8874
  16620027.49446  12956750.71943  24347351.4454                   24347350.4144
   1587164.54147   1263158.63744  22991485.8054                   22991485.6994
  -8113866.45448  -6294131.18645  21954681.9144                   21954679.9774
 -11397514.80447  -8857601.91445  22022658.9144                   22022659.3014
 11  8 22 18 44 30.0000000  0  9G17G07G08G11G13G19G26G28G24
  -6546364.84847  -5072004.39345  22278366.8204                   22278366.0124
  -4379261.29547  -3367089.45346  20363125.8054                   20363123.4694
 -14077131.21648 -10921323.93646  20088110.8284                   20088109.0744
  -9501091.35948  -7367658.81345  21462047.8204                   21462046.0554
  19724178.15646  15370110.96443  24385463.8054                   24385467.5594
  16655791.14846  12984618.45743  24354156.3674                   24354154.2814
   1474928.80747   1175702.22944  22970128.4844                   22970128.4414
  -8207504.20548  -6367095.66145  21936863.4144                   21936861.3324
 -11497726.63647  -8935689.03145  22003589.0634                   22003590.0204
 11  8 22 18 45  0.0000000  0  9G17G07G08G11G13G19G26G28G24
  -6692962.20047  -5186236.03345  22250469.9534                   22250469.5274
  -4420544.52647  -3399258.22446  20355269.5554                   20355267.7154
 -14178096.58348 -10999998.25146  20068897.4454                   20068895.5784
  -9556356.59647  -7410722.64945  21451531.1024                   21451529.3954
  19764057.92446  15401185.78043  24393052.7974                   24393055.8284
  16691553.10246  13012484.82143  24360962.3134                   24360959.5824
   1363226.14147   1088661.20044  22948872.0784                   22948871.7664
  -8301150.13448  -6440066.51845  21919043.5474                   21919040.9924
 -11597501.16047  -9013435.40645  21984602.5704                   21984603.1524
 11  8 22 18 45 30.0000000  0  9G17G07G08G11G13G19G26G28G24
  -6839282.17947  -5300251.52445  22222626.7034                   22222626.1294
  -4461385.59747  -3431082.46746  20347497.7584                   20347495.6294
 -14278665.72547 -11078363.83146  20049759.9774                   20049758.3674
  -9611088.18547  -7453370.65745  21441116.0864                   21441113.7344
  19803817.25946  15432166.72643  24400619.2584                   24400622.9344
  16727308.15046  13040345.87244  24367767.0004                   24367765.1804
   1252055.16947   1002034.44544  22927717.0784                   22927716.8874
  -8394807.80948  -6513046.51245  21901220.7894                   21901218.7114
 -11696839.04146  -9090841.51345  21965699.8284                   21965699.3404
 11  8 22 18 46  0.0000000  0  9G17G07G08G11G13G19G26G28G24
  -5409898.85447  -4186446.26845  22494629.0234                   22494628.4734
  -2926362.09148  -2234960.27346  20639602.9064                   20639601.1724
 -12803413.17648  -9928816.37846  20330491.1334                   20330489.7154
  -8089864.22147  -6268001.33545  21730595.5474   21730593.1134   21418872.44046
  16690650.93243                  24707953.6024                   24707958.8324
  18338473.08346  14295799.04843  24674360.4224                   24674359.1524
   2716840.87847   2143425.90244  23206456.2114                   23206455.3794
  -6913054.42448  -5358433.47245  22183189.4614                   22183187.2624
 -10220314.75647  -7940303.09245  22246672.3134                   22246672.9654
 11  8 22 18 46 30.0000000  0  9G17G07G08G11G13G19G26G28G24
  -5555660.42948  -4300026.64845  22466891.1644                   22466891.4454
  -2966316.91048  -2266093.92646  20631999.5314                   20631997.4064
 -12903183.10748 -10006559.18546  20311505.3364                   20311503.7034
  -8143528.20848  -6309817.42545  21720383.8674   21720381.5904   21458383.88446
  16721438.71843                  24715473.9384                   24715477.1024
  18374208.16046  14323644.53643  24681161.8134                   24681160.5434
   2606737.36647   2057630.93744  23185504.2194                   23185503.5824
  -7006736.32448  -5431432.33645  22165361.6884                   22165359.8714
 -10318772.99447  -8017023.75045  22227936.4144                   22227936.3164
 11  8 22 18 47  0.0000000  0  9G17G07G08G11G13G19G26G28G24
  -5701141.25347  -4413388.25845  22439206.8054                   22439206.8054
  -3005828.54847  -2296882.23546  20624481.0784                   20624478.8954
 -13002550.63948 -10083988.43746  20292596.6724                   20292594.8134
  -8196658.72147  -6351217.81345  21710272.8754   21710271.2974   21497766.98946
  16752126.56043                  24722967.5164                   24722971.6374
  18409929.68046  14351479.36844  24687959.1024                   24687957.9264
   2497168.87347   1972252.91144  23164654.0784                   23164654.1254
  -7100430.69248  -5504440.92645  22147532.7584                   22147530.7544
 -10416788.68847  -8093399.59845  22209284.6254                   22209284.5164
 11  8 22 18 47 30.0000000  0  9G17G07G08G11G13G19G26G28G24
  -5846341.74948  -4526531.44745  22411576.7584                   22411576.8054
  -3044898.23147  -2327326.18546  20617046.1334                   20617044.1884
 -13101514.70448 -10161103.28946  20273764.6884                   20273762.7114
  -8249257.38748  -6392203.79745  21700264.3524   21700262.3874   21537017.71346
  16782711.18442                  24730436.6254                   24730442.0664
  18445634.05346  14379300.92644  24694752.4224                   24694751.7544
   2388135.02047   1887291.51644  23143905.4774                   23143905.7814
  -7194140.05748  -5577461.19345  22129700.5394                   22129698.1994
 -10514361.45747  -8169430.28945  22190717.6884                   22190716.9694
 11  8 22 18 48  0.0000000  0  9G17G07G08G11G13G19G26G28G24
  -5991263.29247  -4639457.26945  22383998.9304                   22383998.4614
  -3083528.05348  -2357427.37146  20609695.4454                   20609693.1254
 -13200075.60148 -10237904.00446  20255008.8524                   20255007.7154
  -8301327.00148  -6432777.52945  21690355.8594   21690353.5274   21576131.05945
  16813188.76642                  24737879.4224                   24737885.8754
  18481316.66146  14407105.46243  24701543.9224                   24701541.8874
   2279634.55447   1802745.70044  23123259.1884                   23123258.8284
  -7287867.15048  -5650495.28645  22111864.6564                   22111862.3794
 -10611491.92347  -8245116.34245  22172233.5164                   22172234.2664
 11  8 22 18 48 30.0000000  0  9G17G07G08G11G13G19G26G28G24
  -6135898.17147  -4752159.68645  22356475.1564                   22356474.7624
  -3121711.34248  -2387180.60946  20602429.5314                   20602426.8754
 -13298224.51147 -10314383.66446  20236331.8914                   20236330.4384
  -8352861.12348  -6472933.98245  21680548.8204   21680546.3054   21615111.18845
  16843562.48543                  24745298.5314                   24745302.9534
  18516981.77546  14434896.36343  24708330.0634                   24708328.3164
   2171674.99947   1718621.38144  23102714.4144                   23102714.4964
  -7381605.49148  -5723538.14045  22094026.4304                   22094024.7894
 -10708171.45446  -8320451.01445  22153836.3054                   22153836.5204
 11  8 22 18 49  0.0000000  0  8G17G07G08G11G19G26G28G24
  -6280240.45047  -4864634.14945  22329007.8524                   22329007.6334
  -3159443.20947  -2416582.09346  20595248.8364                   20595247.4184
 -13395954.77047 -10390537.13446  20217734.2584                   20217732.6604
  -8403855.32648  -6512669.71145  21670844.9774   21670843.0984
  18552631.79046  14462675.61943  24715114.4614                   24715112.3954
   2064262.04747   1634922.95044  23082274.6484                   23082273.7034
  -7475350.97548  -5796586.54745  22076187.7194                   22076185.7424
 -10804393.53146  -8395429.22745  22135525.6644                   22135525.4654
 11  8 22 18 49 30.0000000  0  8G17G07G08G11G19G26G28G24
  -6424292.14447  -4976882.17445  22301596.1024                   22301595.4144
  -3196726.35248  -2445633.92746  20588154.3204                   20588152.6644
 -13493267.11748 -10466364.93846  20199216.4384                   20199214.3094
  -8454312.88947  -6551987.31045  21661242.7424   21661241.4384
  18588261.57046  14490439.00943  24721895.0554                   24721891.8674
   1957393.71747   1551648.95044  23061937.9144                   23061938.8954
  -7569106.81348  -5869643.03145  22058346.5314                   22058344.2344
 -10900159.35747  -8470051.90545  22117301.8754                   22117302.2114
 11  8 22 18 50  0.0000000  0  8G17G07G08G11G19G26G28G24
  -6568037.18647  -5088891.24345  22274242.0084                   22274241.8914
  -3233545.62947  -2474324.31346  20581148.0864                   20581146.2344
 -13590144.17048 -10541853.57446  20180781.1884                   20180779.4694
  -8504219.17848  -6590875.32745  21651746.8364   21651744.4534
  18623884.24346  14518196.86443  24728674.2274                   24728672.2114
   1851085.97047   1468811.74744  23041708.2894                   23041708.5394
  -7662858.68147  -5942696.42845  22040505.9064                   22040503.9614
 -10995452.19146  -8544306.05145  22099168.6804                   22099168.8524
 11  8 22 18 50 30.0000000  0  8G17G07G08G11G19G26G28G24
  -6711469.75747  -5200656.81546  22246947.9224                   22246947.6414
  -3269896.27048  -2502649.52146  20574230.7894                   20574228.7894
 -13686579.09447 -10616997.66646  20162430.2194                   20162428.7704
  -8553569.72248  -6629330.30245  21642355.4774   21642353.5514
  18659501.97946  14545950.87443  24735452.0634                   24735449.1954
   1745344.25647   1386415.64144  23021587.1024                   23021586.5084
  -7756601.86548  -6015743.04845  22022667.4224                   22022665.1914
 -11090265.36447  -8618186.41645  22081126.0394                   22081125.9384
 11  8 22 18 51  0.0000000  0  8G17G07G08G11G19G26G28G24
  -6854594.30947  -5312182.39245  22219712.6094                   22219712.2274
  -3305784.01148  -2530614.03146  20567401.6334                   20567399.2934
 -13782575.72348 -10691800.24446  20144162.7274                   20144161.2194
  -8602370.58948  -6667356.94845  21633069.3594   21633067.0164
  18695107.28246  14573695.24443  24742227.1094                   24742224.1994
   1640163.70947   1304456.79344  23001570.7894                   23001570.8984
  -7850342.62047  -6088787.79045  22004828.7814                   22004826.4734
 -11184602.72547  -8691696.01145  22063174.4224                   22063174.4494
 11  8 22 18 51 30.0000000  0  8G17G07G08G11G19G26G28G24
  -6997418.24847  -5423473.71646  22192533.3134                   22192533.1724
  -3341217.07747  -2558224.24846  20560658.9304                   20560656.7854
 -13878139.60848 -10766265.62046  20125977.5474                   20125975.7854
  -8650630.28247  -6704961.91045  21623885.0394   21623883.3164
  18730689.50246  14601421.54343  24748998.4454                   24748995.0474
   1535536.99347   1222929.46844  22981661.9844                   22981660.6094
  -7944089.65547  -6161837.41645  21986989.4614                   21986987.5664
 -11278470.66947  -8764839.84045  22045311.8364                   22045311.9654
 11  8 22 18 52  0.0000000  0  8G17G07G08G11G19G26G28G24
  -7139940.96248  -5534530.33545  22165412.4534                   22165412.1524
  -3376195.79947  -2585480.43446  20554002.8054                   20554000.4614
 -13973269.45648 -10840392.78946  20107875.1024                   20107873.0984
  -8698350.06648  -6742146.16945  21614804.4844   21614802.3134
  18766245.94146  14629127.84543  24755763.9384                   24755761.9964
   1431464.57447   1141834.09544  22961856.7504                   22961856.9844
  -8037843.53047  -6234892.36245  21969149.0084                   21969147.0084
 -11371868.21047  -8837617.13745  22027538.8834                   22027538.9024
 11  8 22 18 52 30.0000000  0  8G17G07G08G11G19G26G28G24
  -7282158.73548  -5645349.30945  22138348.9224                   22138349.2194
  -3410716.80848  -2612379.95646  20547433.5394                   20547431.4494
 -14067960.19847 -10914177.79746  20089855.6724                   20089854.0634
  -8745527.04248  -6778907.47045  21605827.2424   21605825.3794
  18801777.66246  14656814.81943  24762526.2114                   24762523.5944
   1327950.22247   1061173.55444  22942159.4064                   22942158.9614
  -8131601.55647  -6307950.54345  21951307.3204                   21951304.9884
 -11464790.36847  -8910024.00845  22009856.4384                   22009856.5634
 11  8 22 18 53  0.0000000  0  8G17G07G08G11G19G26G28G24
  -7424075.62047  -5755933.83845  22111343.3594                   22111342.8754
  -3444785.43648  -2638926.97246  20540950.9384                   20540949.0004
 -14162214.52047 -10987622.73146  20071919.9924                   20071918.1094
  -8792166.86948  -6815250.19245  21596952.0704   21596949.6724
  18837277.25346  14684476.82743  24769281.3524                   24769279.5044
   1224989.77647    980944.63444  22922566.0704                   22922566.3444
  -8225369.35647  -6381016.36245  21933463.8134                   21933461.4844
 -11557240.71147  -8982063.19545  21992264.0634                   21992263.5864
 11  8 22 18 53 30.0000000  0  7G17G07G08G11G26G28G24
  -7565692.73848  -5866284.79145  22084394.5164                   22084394.0394
  -3478404.16348  -2665123.43146  20534552.9844                   20534551.4844
 -14256033.02248 -11060728.06546  20054066.9694                   20054064.9304
  -8838272.32047  -6851176.53345  21588178.0234   21588176.5434
   1122581.32247    901145.85544  22903078.9304                   22903079.1724
  -8319149.56447  -6454091.83345  21915618.2974                   21915616.0784
 -11649220.05447  -9053735.39045  21974760.4224                   21974760.6054
 11  8 22 18 54  0.0000000  0  7G17G07G08G11G26G28G24
  -7707010.79248  -5976402.70345  22057501.9614                   22057501.8674
  -3511574.50648  -2690970.49346  20528241.0164                   20528239.2114
 -14349415.37047 -11133493.55446  20036297.0004                   20036294.8014
  -8883845.87447  -6886688.42445  21579506.3674   21579504.1214
   1020724.17047    821776.67244  22883696.1024                   22883695.9494
  -8412944.17247  -6527178.53445  21897769.2894                   21897766.7234
 -11740728.40447  -9125040.56845  21957347.2504                   21957347.4414
 11  8 22 18 54 30.0000000  0  7G17G07G08G11G26G28G24
  -7848014.57347  -6086275.72845  22030670.0634                   22030669.7814
  -3544282.02248  -2716456.90746  20522016.8834                   20522014.9224
 -14442344.99448 -11205906.24746  20018612.4774                   20018610.5704
  -8928873.58848  -6921774.95545  21570937.9064   21570934.9534
    919433.35747    742848.74444  22864421.3524                   22864420.2114
  -8506739.01347  -6600265.40946  21879921.1564                   21879918.6644
 -11831749.65747  -9195966.21145  21940026.0944                   21940026.9414
 11  8 22 18 55  0.0000000  0  7G17G07G08G11G26G28G24
  -7988697.10348  -6195898.41845  22003898.8054                   22003898.5904
  -3576520.73748  -2741578.02746  20515882.5704                   20515880.5514
 -14534813.56147 -11277959.68946  20001016.3754                   20001015.3444
  -8973349.38548  -6956431.43345  21562473.7424   21562472.2234
    818715.56747    664367.31544  22845255.3594                   22845254.3204
  -8600528.12047  -6673347.82445  21862072.9774                   21862071.1334
 -11922276.10247  -9266506.28445  21922799.8754                   21922799.5554
 11  8 22 18 55 30.0000000  0  7G17G07G08G11G26G28G24
  -8129061.86747  -6305273.49945  21977188.5784                   21977187.8094
  -3608295.66348  -2766337.74846  20509835.9614                   20509833.5554
 -14626823.97748 -11349656.12146  19983507.6954                   19983506.3444
  -9017279.23548  -6990662.50445  21554114.3914   21554112.3794
    718566.66747    586329.22244  22826197.3754                   22826198.3054
  -8694316.84147  -6746429.93445  21844226.0634                   21844224.1724
 -12012310.91647  -9336663.25245  21905666.4694                   21905666.8834
 11  8 22 18 56  0.0000000  0  7G17G07G08G11G26G28G24
  -8269113.62148  -6414404.69245  21950537.5704                   21950537.0594
  -3639612.21948  -2790740.29046  20503876.6024                   20503874.4964
 -14718379.42648 -11420998.05146  19966085.3204                   19966083.8554
  -9060669.13248  -7024472.83445  21545857.8444   21545855.4344
    618981.86146    508730.71144  22807246.4064                   22807247.1484
  -8788110.97648  -6819516.27245  21826377.7974                   21826375.3364
 -12101857.97847  -9406440.15145  21888626.4844                   21888626.9184
 11  8 22 18 56 30.0000000  0  7G17G07G08G11G26G28G24
  -8408855.38748  -6523294.32346  21923945.7734                   21923945.5004
  -3670474.24748  -2814788.66046  20498003.4844                   20498001.6174
 -14809482.18548 -11491987.21746  19948749.1564                   19948747.9064
  -9103523.33747  -7057865.71445  21537702.9454   21537701.0634
    519957.89447    431569.15944  22788403.3204                   22788403.0744
  -8881914.24648  -6892609.71945  21808527.5084                   21808525.0354
 -12190919.48347  -9475838.70745  21871678.6484                   21871678.4614
 11  8 22 18 57  0.0000000  0  7G17G07G08G11G26G28G24
  -8548286.74948  -6631942.08746  21897412.6094                   21897412.4494
  -3700882.42348  -2838483.37346  20492217.2974                   20492215.9264
 -14900130.18548 -11562622.02846  19931499.2814                   19931497.7664
  -9145842.85047  -7090841.98645  21529649.4844   21529647.7304
    421494.88347    354844.76344  22769666.4384                   22769666.5354
  -8975727.52348  -6965710.95245  21790675.3594                   21790672.9454
 -12279494.33747  -9544858.04745  21854823.3524                   21854823.1484
 11  8 22 18 57 30.0000000  0  7G17G07G08G11G26G28G24
  -7111980.24148  -5512742.16746  22170732.4844                   22170732.4384
  -2155414.40148  -1634222.62146  20786309.7274                   20786308.0704
 -13414896.95548 -10405297.44946  20214129.9614                   20214127.9344
  -7612205.46947  -5895799.88045  21821490.9304   21821488.8554
   1899018.49947   1506161.83744  23050829.7114                   23050829.0744
  -7494126.14248  -5811216.37845  22072614.6644                   22072612.5744
 -10792156.36247  -8385893.37745  22137854.3444                   22137853.9144
 11  8 22 18 58  0.0000000  0  7G17G07G08G11G26G28G24
  -7250785.24048  -5620901.85246  22144318.7734                   22144318.5274
  -2184912.54048  -1657208.20846  20780696.5554                   20780694.5824
 -13504627.28648 -10475217.19246  20197054.5314                   20197053.4264
  -7653455.36547  -5927942.66645  21813641.9614   21813639.5904
   1801681.90447   1430315.11644  23032306.7344                   23032306.0594
  -7587957.27848  -5884331.55045  22054759.3134                   22054756.8634
 -10879750.96947  -8454148.87745  22121184.8674                   22121185.3204
 11  8 22 18 58 30.0000000  0  7G17G07G08G11G26G28G24
  -7389277.81948  -5728818.11546  22117964.7734                   22117964.3054
  -2213958.29948  -1679841.30946  20775169.5004                   20775166.9774
 -13593898.18948 -10544778.95746  20180067.0314                   20180065.2504
  -7694173.56447  -5959671.14345  21805893.1644   21805890.9224
   1704907.05347   1354906.12644  23013891.5474                   23013890.6724
  -7681799.92048  -5957455.67645  22036901.4694                   22036899.3404
 -10966855.41947  -8522022.45945  22104609.9384                   22104609.6684
 11  8 22 18 59  0.0000000  0  7G17G07G08G11G26G28G24
  -7527455.24448  -5836488.78746  22091670.5004                   22091669.5594
  -2242549.98148  -1702120.57346  20769728.8204                   20769726.9344
 -13682705.88148 -10613979.75846  20163167.4614                   20163165.9774
  -7734359.07547  -5990984.55545  21798246.2194   21798243.9924
   1608696.17847   1279936.60844  22995582.6884                   22995582.6954
  -7775652.42048  -6030587.46845  22019042.0314                   22019040.1884
 -11053466.23247  -8589511.40645  22088128.3284                   22088127.9734
 11  8 22 18 59 30.0000000  0  7G17G07G08G11G26G28G24
  -7665322.53348  -5943917.78846  22065434.9614                   22065434.4774
  -2270693.19348  -1724050.38946  20764372.8364                   20764371.6844
 -13771053.68648 -10682822.22146  20146355.6254                   20146353.6174
  -7774018.43447  -6021887.96245  21790699.4064   21790696.6414
   1513044.06846   1205402.52144  22977381.3754                   22977381.6254
  -7869520.62247  -6103731.52445  22001179.3834                   22001177.1214
 -11139587.97547  -8656619.23745  22071740.2584                   22071739.9574
 11  8 22 19  0  0.0000000  0  7G17G07G08G11G26G28G24
  -7802874.68248  -6051101.23746  22039259.9534                   22039258.8594
  -2298384.15648  -1745627.80146  20759103.6414                   20759101.9104
 -13858935.73848 -10751301.75046  20129631.8594                   20129630.2974
  -7813147.90247  -6052378.46245  21783253.3594   21783250.6684
   1417955.47446   1131307.51644  22959286.3444                   22959286.4344
  -7963400.34748  -6176884.56045  21983314.9844                   21983312.1054
 -11225214.93947  -8723341.52545  22055445.6644                   22055444.7624
 11  8 22 19  0 30.0000000  0  7G17G07G08G11G26G28G24
  -7940105.70048  -6158034.44846  22013145.2734                   22013144.9494
  -2325617.96448  -1766848.99546  20753921.1174                   20753919.3954
 -13946345.04848 -10819412.91546  20112998.8204                   20112997.5274
  -7851743.43047  -6082452.92745  21775908.6094   21775906.4224
   1323435.78847   1057655.79444  22941299.6804                   22941299.5904
  -8057286.78148  -6250042.81946  21965448.6564                   21965446.1214
 -11310340.46247  -8789673.08845  22039246.8204                   22039246.9344
 11  8 22 19  1  0.0000000  0  7G17G07G08G11G26G28G24
  -8077012.86548  -6264715.30446  21987092.8364                   21987092.3364
  -2352392.93248  -1787712.64646  20748826.4614                   20748824.5474
 -14033278.04948 -10887152.92146  20096455.7664                   20096454.6884
  -7889803.89847  -6112110.42445  21768666.3674   21768663.7034
   1229487.29947    984449.18344  22923422.4924                   22923422.3524
  -8151178.24148  -6323204.99446  21947581.7344                   21947579.8324
 -11394961.41747  -8855611.48045  22023144.1174                   22023143.8794
 11  8 22 19  1 30.0000000  0  7G17G07G08G11G26G28G24
  -8213597.32848  -6371144.70446  21961101.4304                   21961100.7974
  -2378711.46748  -1808220.64446  20743818.7734                   20743816.0234
 -14119734.79948 -10954521.82646  20080003.6724                   20080002.2034
  -7927332.15447  -6141353.23845  21761524.7504   21761522.4964
   1136108.22747    911686.24844  22905652.2344                   22905652.7194
  -8245076.90048  -6396372.78545  21929713.7734                   21929711.0864
 -11479078.63547  -8921157.37345  22007137.5864                   22007136.7234
 11  8 22 19  2  0.0000000  0  7G17G07G08G11G26G28G24
  -8349854.52848  -6477319.08946  21935172.4304                   21935172.1024
  -2404570.33648  -1828370.44546  20738897.6724                   20738895.4964
 -14205709.50248 -11021515.11746  20063643.1024                   20063641.7704
  -7964325.48648  -6170179.20745  21754484.9694   21754482.4024
   1043302.93046    839370.45144  22887992.5164                   22887992.9964
  -8338979.24647  -6469543.44746  21911844.2664                   21911841.9614
 -11562686.69047  -8986306.47745  21991226.9384                   21991227.2424
 11  8 22 19  2 30.0000000  0  7G17G07G08G11G26G28G24
  -8485780.31348  -6583235.23546  21909306.3674                   21909305.9774
  -2429965.89648  -1848159.24146  20734064.6094                   20734062.8014
 -14291196.57548 -11088128.42746  20047375.6564                   20047373.9844
  -8000780.41847  -6198585.64045  21747548.1884   21747545.7194
    951075.18047    767504.64744  22870442.4224                   22870442.3834
  -8432881.45948  -6542714.00246  21893975.3834                   21893973.1484
 -11645780.94447  -9051055.22945  21975414.6414                   21975414.4574
 11  8 22 19  3  0.0000000  0  7G17G07G08G11G26G28G24
  -8621373.47348  -6688892.20446  21883504.3444                   21883503.7774
  -2454898.04948  -1867586.93646  20729320.5864                   20729318.2704
 -14376194.22048 -11154360.38046  20031201.2114                   20031199.8364
  -8036698.06647  -6226573.44245  21740713.7664   21740711.0124
    859425.41246    696089.23244  22853002.2664                   22853002.3984
  -8526783.30848  -6615884.27045  21876106.1484                   21876103.7624
 -11728359.91347  -9115402.46045  21959700.1254                   21959700.3874
 11  8 22 19  3 30.0000000  0  7G17G07G08G11G26G28G24
  -8756635.63647  -6794291.22246  21857764.5944                   21857764.1954
  -2479369.94548  -1886655.99846  20724663.8674                   20724661.7384
 -14460702.57748 -11220211.05646  20015119.2114                   20015118.0904
  -8072082.28147  -6254145.58745  21733979.6024   21733977.7304
    768351.20247    625122.31444  22835671.0004                   22835671.2934
  -8620687.69947  -6689056.51646  21858237.0314                   21858234.7234
 -11810424.86747  -9179349.15245  21944084.0634                   21944084.2154
 11  8 22 19  4  0.0000000  0  7G17G07G08G11G26G28G24
  -8891565.84348  -6899431.59346  21832088.6644                   21832087.3714
  -2503381.53648  -1905366.37446  20720094.4304                   20720092.4264
 -14544719.62148 -11285678.89446  19999131.7344                   19999130.7664
  -8106933.42247  -6281302.32445  21727347.5944   21727345.4384
    677853.59847    554604.69844  22818449.4304                   22818450.0274
  -8714594.15848  -6762230.37146  21840367.1954                   21840365.3164
 -11891973.91747  -9242893.86345  21928565.5944                   21928565.9144
 11  8 22 19  4 30.0000000  0  7G17G07G08G11G26G28G24
  -9026165.74948  -7004314.59646  21806474.5634                   21806473.7734
  -2526935.65348  -1923720.28346  20715612.2584                   20715610.2734
 -14628246.17248 -11350764.53846  19983236.4224                   19983235.7114
  -8141254.70447  -6308046.18945  21720817.0234   21720813.9924
    587930.18447    484534.50044  22801337.9844                   22801337.8244
  -8808505.37348  -6835407.93646  21822496.6484                   21822494.2274
 -11973008.36247  -9306037.56645  21913145.3834                   21913145.2234
 11  8 22 19  5  0.0000000  0  7G17G07G08G11G26G28G24
  -9160433.13048  -7108938.48346  21780924.1884                   21780924.0084
  -2550031.10948  -1941716.78046  20711217.5704                   20711215.6564
 -14711279.09648 -11415465.53146  19967436.3444                   19967435.2544
  -8175045.67147  -6334376.83245  21714386.1884   21714384.9344
    498582.67647    414913.05544  22784335.9224                   22784335.0434
  -8902419.79948  -6908588.00346  21804625.7424                   21804622.9844
 -12053525.51747  -9368778.19445  21897823.4384                   21897823.6914
 11  8 22 19  5 30.0000000  0  7G17G07G08G11G26G28G24
  -9294367.84547  -7213303.13846  21755437.4144                   21755436.7384
  -2572669.00548  -1959356.74246  20706909.5554                   20706907.6024
 -14793817.38548 -11479781.10546  19951730.1564                   19951728.5044
  -8208307.82247  -6360295.38845  21708056.8444   21708054.8054
    409810.49147    345739.89944  22767443.0944                   22767441.8014
  -8996337.96648  -6981770.97146  21786753.1804                   21786750.7424
 -12133525.08847  -9431115.53845  21882600.3834                   21882600.0314
 11  8 22 19  6  0.0000000  0  7G17G07G08G11G26G28G24
  -9427970.34747  -7317408.93246  21730013.9614                   21730012.8164
  -2594850.94848  -1976641.41746  20702688.5704                   20702686.7584
 -14875860.28348 -11543710.65446  19936117.9534                   19936116.5864
  -8241043.51847  -6385803.76445  21701827.4304   21701825.3444
    321612.57346    277014.24644  22750659.7274                   22750659.9064
  -9090261.16948  -7054957.88146  21768880.3984                   21768877.7194
 -12213006.86947  -9493049.37645  21867474.8674                   21867475.2584
 11  8 22 19  6 30.0000000  0  7G17G07G08G11G26G28G24
  -9561240.66747  -7421255.87846  21704653.1884                   21704652.5044
  -2616577.89448  -1993571.55146  20698554.2894                   20698552.1564
 -14957406.57548 -11607253.22946  19920600.0634                   19920598.7974
  -8273254.39847  -6410903.16045  21695697.7424   21695696.0704
    233988.34446    208735.61144  22733984.7894                   22733985.0704
  -9184190.16348  -7128149.29845  21751006.0944                   21751003.8404
 -12291970.47647  -9554579.46445  21852449.1024                   21852448.8984
 11  8 22 19  7  0.0000000  0  7G17G07G08G11G26G28G24
  -9694172.46547  -7524839.06346  21679356.9534                   21679356.0784
  -2637845.08448  -2010143.43746  20694507.0474                   20694504.8874
 -15038448.95648 -11670403.16346  19905178.5634                   19905177.3134
  -8304936.11748  -6435590.24645  21689669.7734   21689667.0984
    146943.44946    140908.42444  22717420.9384                   22717420.7734
  -9278119.46848  -7201340.95346  21733131.9534                   21733129.4964
 -12370409.09147  -9615700.47545  21837522.7114                   21837522.7624
 11  8 22 19  7 30.0000000  0  7G17G07G08G11G26G28G24
  -9826763.21447  -7628156.48446  21654125.9224                   21654125.0084
  -2658650.94048  -2026355.83346  20690547.8134                   20690546.4734
 -15118983.73448 -11733157.55846  19889852.9534                   19889851.1414
  -8336087.86148  -6459864.33045  21683741.0474   21683739.5124
     60479.92546     73534.21944  22700967.6024                   22700967.2774
  -9372046.97148  -7274531.21246  21715257.8204                   21715255.2894
 -12448319.73047  -9676410.05345  21822696.5164                   21822696.8874
 11  8 22 19  8  0.0000000  0  7G17G07G08G11G26G28G24
  -9959017.83547  -7731211.98546  21628958.4844                   21628957.7194
  -2679001.23048  -2042213.24846  20686675.3284                   20686673.8284
 -15199014.47748 -11795519.19346  19874623.7504                   19874622.2584
  -8366716.08548  -6483730.49645  21677912.8284   21677910.4734
    -25407.63047      6608.85344  22684623.9924                   22684622.9774
  -9465978.16148  -7347724.35046  21697383.8834                   21697381.7664
 -12525706.85047  -9736711.69945  21807970.4694                   21807970.2974
 11  8 22 19  8 30.0000000  0  7G17G07G08G11G26G28G24
  -8515505.20048  -6606396.89646  21903649.9304                   21903649.1054
  -1123470.35148   -830111.31446  20982683.2034                   20982681.4924
 -13703111.58248 -10629880.58546  20159284.7424                   20159282.8674
  -6821395.14548  -5279584.31845  21971977.6094   21971976.0514
   1464709.21947   1167738.84644  22968183.1334                   22968183.2384
  -7984484.09148  -6193313.37046  21979302.8754                   21979300.3364
 -11027141.15047  -8568998.15245  22093138.0634                   22093137.5354
 11  8 22 19  9  0.0000000  0  7G17G07G08G11G26G28G24
  -8647072.74547  -6708917.00146  21878613.3364                   21878612.7114
  -1142899.01048   -845250.58046  20978986.2664                   20978984.0984
 -13782117.47748 -10691443.65246  20144250.3284                   20144248.4654
  -6850967.05547  -5302627.38145  21966350.4064   21966348.3754
   1379985.82847   1101720.58944  22952061.0634                   22952061.4144
  -8078410.14448  -6266502.51746  21961429.1334                   21961426.7274
 -11103465.89647  -8628472.00345  22078614.0474                   22078613.8754
 11  8 22 19  9 30.0000000  0  7G17G07G08G11G26G28G24
  -8778296.25647  -6811169.03646  21853642.3204                   21853641.4574
  -1161868.23448   -860031.84146  20975376.7504                   20975375.0044
 -13860609.44048 -10752606.23646  20129313.8054                   20129312.4774
  -6880013.13447  -5325260.71145  21960822.6024   21960821.0944
   1295843.86847   1036155.43144  22936049.2424                   22936049.3164
  -8172334.08848  -6339689.99346  21943556.3054                   21943554.1644
 -11179258.51547  -8687531.17445  22064190.5864                   22064191.0784
 11  8 22 19 10  0.0000000  0  7G17G07G08G11G26G28G24
  -8909178.49948  -6913155.15546  21828736.3754                   21828735.5124
  -1180381.83248   -874458.07246  20971853.4454                   20971851.7854
 -13938588.68848 -10813369.30546  20114474.7894                   20114473.1724
  -6908537.59548  -5347487.56645  21955395.0634   21955392.6764
   1212280.25847    971040.91044  22920147.7504                   22920148.3404
  -8266258.83848  -6412878.12146  21925682.8834                   21925680.6414
 -11254521.12847  -8746177.37245  22049869.0164                   22049868.8164
 11  8 22 19 10 30.0000000  0  7G17G07G08G11G26G28G24
  -9039716.12647  -7014872.73546  21803895.7344                   21803894.6564
  -1198437.01248   -888527.08446  20968417.4774                   20968416.1684
 -14016050.75848 -10873729.38846  20099734.3834                   20099733.0594
  -6936538.99747  -5369306.84045  21950066.6024   21950064.5434
   1129297.73547    906379.21844  22904356.7274                   22904357.0864
  -8360181.40448  -6486064.53946  21907810.0394                   21907807.7074
 -11329249.79047  -8804407.49545  22035648.7894                   22035648.5434
 11  8 22 19 11  0.0000000  0  7G17G07G08G11G26G28G24
  -9169908.92448  -7116321.62446  21779120.9384                   21779120.0904
  -1216035.29148   -902240.08346  20965068.7974                   20965067.3244
 -14092994.17947 -10933685.32346  20085092.5394                   20085090.6094
  -6964018.94247  -5390719.80745  21944836.8054   21944835.4304
   1046895.60247    842169.72444  22888676.5004                   22888675.5274
  -8454102.77048  -6559250.01446  21889937.3524                   21889934.7424
 -11403443.95948  -8862221.11045  22021529.9224                   22021530.0084
 11  8 22 19 11 30.0000000  0  7G17G07G08G11G26G28G24
  -9299753.91748  -7217499.48746  21754411.6414                   21754411.4454
  -1233175.09948   -915595.82546  20961807.4064                   20961805.8094
 -14169415.55248 -10993234.46346  20070549.7664                   20070548.1334
  -6990976.41147  -5411725.63945  21939707.5704   21939705.1294
    965075.77347    778414.01644  22873106.6484                   22873106.1884
  -8548020.27648  -6632432.47546  21872065.5704                   21872063.0204
 -11477100.64747  -8919615.93245  22007513.5784                   22007513.4384
 11  8 22 19 12  0.0000000  0  7G17G07G08G11G26G28G24
  -9429243.45847  -7318400.38946  21729770.7584                   21729770.3874
  -1249849.82548   -928589.17446  20958633.7974                   20958632.4774
 -14245305.99548 -11052369.89746  20056108.2814                   20056107.1294
  -7017405.62847  -5432319.84745  21934678.0864   21934675.9884
    883845.32147    715117.54644  22857648.7114                   22857648.9024
  -8641926.62748  -6705606.26546  21854195.3444                   21854192.7624
 -11550211.95147  -8976585.78045  21993600.6334                   21993600.9844
 11  8 22 19 12 30.0000000  0  7G17G07G08G11G26G28G24
  -9558385.28348  -7419030.33846  21705195.8754                   21705195.2894
  -1266068.82247   -941227.40146  20955547.9384                   20955546.5594
 -14320672.51447 -11111097.07846  20041766.6724                   20041765.3284
  -7043316.40647  -5452510.09945  21929747.1804   21929745.4884
    803195.63447    652273.62344  22842301.8444                   22842301.4804
  -8735830.30048  -6778777.96646  21836326.5704                   21836323.8284
 -11622785.39447  -9033136.50445  21979790.3284                   21979790.7034
 11  8 22 19 13  0.0000000  0  7G17G07G08G11G26G28G24
  -9687184.97747  -7519393.69146  21680686.2424                   21680685.3954
  -1281837.98947   -953515.11346  20952547.0314                   20952545.8794
 -14395519.12848 -11169419.12646  20027524.1484                   20027522.7734
  -7068715.41947  -5472301.56145  21924914.7894   21924912.1804
    723120.93447    589877.74244  22827063.7814                   22827064.6094
  -8829736.38748  -6851951.51946  21818456.2504                   21818454.0234
 -11694825.92547  -9089271.99045  21966082.0314                   21966081.4344
 11  8 22 19 13 30.0000000  0  7G17G07G08G11G26G28G24
  -9815636.00147  -7619485.34946  21656242.9454                   21656242.0704
  -1297152.77447   -965448.76346  20949632.7344                   20949630.8014
 -14469839.04148 -11227330.76346  20013381.4224                   20013380.1454
  -7093598.84647  -5491691.27045  21920179.6334   21920177.2114
    643626.21847    527933.80344  22811937.1334                   22811936.8284
  -8923639.51848  -6925122.80146  21800587.5164                   21800584.9694
 -11766327.24647  -9144987.30445  21952475.6484                   21952475.6414
 11  8 22 19 14  0.0000000  0  7G17G07G08G11G26G28G24
  -9943744.06348  -7719309.77346  21631864.9694                   21631864.0044
  -1312019.81747   -977033.52346  20946803.8364                   20946802.2274
 -14543636.69447 -11284835.45346  19999338.1564                   19999337.2344
  -7117973.99948  -5510684.89345  21915541.2424   21915539.2344
    564705.06947    466436.77544  22796918.2504                   22796918.3954
  -9017545.52748  -6998296.31646  21782717.1484                   21782715.1294
 -11837294.38347  -9200286.36145  21938970.6724                   21938970.5984
 11  8 22 19 14 30.0000000  0  7G17G07G08G11G26G28G24
 -10071512.05248  -7818869.20446  21607551.0234                   21607550.1914
  -1326443.35847   -988272.69446  20944059.2894                   20944058.0084
 -14616914.03748 -11341934.69646  19985393.9774                   19985392.6334
  -7141845.45647  -5529286.08045  21910997.8674   21910996.2664
    486353.85547    405383.87544  22782008.6884                   22782008.7934
  -9111457.84448  -7071474.73746  21764846.6724                   21764844.8094
 -11907729.94447  -9255171.21445  21925567.6804                   21925567.5354
 11  8 22 19 15  0.0000000  0  7G17G07G08G11G26G28G24
 -10198939.09148  -7918162.96046  21583302.2814                   21583301.8834
  -1340423.61347   -999166.45346  20941398.8364                   20941397.5434
 -14689669.36147 -11398627.17346  19971549.1484                   19971547.7464
  -7165213.96748  -5547495.34045  21906551.5084   21906548.6844
    408573.14947    344775.56044  22767207.2664                   22767207.3364
  -9205375.64148  -7144657.43846  21746975.1024                   21746972.6954
 -11977632.82447  -9309640.99245  21912265.0704                   21912265.3284
 11  8 22 19 15 30.0000000  0  7G17G07G08G11G26G28G24
 -10326024.49748  -8017190.51046  21559118.9224                   21559117.8714
  -1353961.22147  -1009715.28546  20938822.5314                   20938821.7544
 -14761901.35547 -11454911.85746  19957803.3204                   19957802.2194
  -7188081.16347  -5565313.96845  21902199.8054   21902197.4494
    331361.96747    284610.97144  22752514.5234                   22752514.2424
  -9299298.70748  -7217844.23546  21729101.7344                   21729099.1334
 -12047002.40447  -9363695.20345  21899064.5004                   21899064.7854
 11  8 22 19 16  0.0000000  0  7G17G07G08G11G26G28G24
 -10452764.57848  -8115948.97346  21535001.1484                   21534999.8594
  -1367053.64547  -1019917.23946  20936331.0474                   20936329.6094
 -14833604.92747 -11510784.79346  19944158.8914                   19944157.1844
  -7210444.81647  -5582740.22345  21897944.3594   21897941.7974
    254723.82847    224892.90644  22737931.1644                   22737931.1024
  -9393223.32048  -7291032.24646  21711228.3134                   21711225.7074
 -12115834.32547  -9417330.46545  21885966.6024                   21885966.2734
 11  8 22 19 16 30.0000000  0  7G17G07G08G11G26G28G24
 -10579163.65747  -8214441.72146  21510948.0784                   21510946.9064
  -1379706.37147  -1029776.55746  20933923.7584                   20933921.9454
 -14904783.55647 -11566248.69246  19930614.0944                   19930612.8094
  -7232311.47947  -5599779.19645  21893783.2274   21893781.0314
    178653.21247    165617.06744  22723454.7734                   22723455.4494
  -9487154.59048  -7364225.43346  21693354.1884                   21693351.6844
 -12184133.10747  -9470550.29645  21872969.6414                   21872969.3794
 11  8 22 19 17  0.0000000  0  7G17G07G08G11G26G28G24
 -10705226.92747  -8312672.80946  21486959.0394                   21486957.9454
  -1391926.14747  -1039298.49946  20931598.1644                   20931596.5164
 -14975441.76047 -11621307.04246  19917168.2504                   19917167.0744
  -7253688.04148  -5616436.30445  21889715.3284   21889712.8754
    103143.86047    106778.57944  22709086.5944                   22709087.1804
  -9581097.42948  -7437427.64746  21675477.4844                   21675474.5904
 -12251903.83247  -9523358.65045  21860073.3524                   21860073.0084
 11  8 22 19 17 30.0000000  0  7G17G07G08G11G26G28G24
 -10830951.41747  -8410639.90946  21463034.3364                   21463033.2344
  -1403711.17547  -1048481.70146  20929356.1724                   20929354.9024
 -15045575.56548 -11675956.78746  19903822.3834                   19903820.8984
  -7274573.29447  -5632710.54945  21885741.0634   21885739.0594
     28198.07247     48379.24044  22694824.8834                   22694824.4654
  -9675049.13948  -7510636.77146  21657598.9144                   21657596.8554
 -12319143.12447  -9575752.88945  21847278.5084                   21847278.0004
 11  8 22 19 18  0.0000000  0  7G17G07G08G11G26G28G24
 -10956338.48347  -8508344.08146  21439173.9534                   21439173.0164
  -1415063.87847  -1057328.01446  20927195.4774                   20927193.8524
 -15115185.20847 -11730198.09546  19890576.1254                   19890574.5514
  -7294970.57447  -5648604.57545  21881859.0944   21881857.6054
    -46186.29347     -9582.63044  22680669.4224                   22680669.5314
  -9769011.24148  -7583853.99346  21639718.1884                   21639716.2234
 -12385852.13847  -9627733.93645  21834583.5634                   21834583.7464
 11  8 22 19 18 30.0000000  0  7G17G07G08G11G26G28G24
 -11081390.77247  -8605787.39446  21415377.4924                   21415376.7894
  -1425988.56447  -1065840.82246  20925116.5004                   20925114.8054
 -15184272.56848 -11784032.41946  19877429.2114                   19877428.3674
  -7314884.68547  -5664122.07645  21878069.8834   21878067.9304
   -120013.07847    -67110.02444  22666621.4534                   22666621.4384
  -9862986.87747  -7657081.77346  21621835.6254                   21621833.0944
 -12452033.42447  -9679303.76045  21821989.9304                   21821989.4024
 11  8 22 19 19  0.0000000  0  7G17G07G08G11G26G28G24
 -11206107.51947  -8702969.22946  21391644.8594                   21391643.3364
  -1436485.49247  -1074020.29646  20923119.1414                   20923117.4384
 -15252836.04648 -11837458.53946  19864382.1094                   19864380.5084
  -7334316.82947  -5679264.03645  21874372.5234   21874370.1484
   -193282.43947   -124203.08544  22652678.7034                   22652678.0824
  -9956974.94748  -7730319.23046  21603950.1724                   21603947.4344
 -12517686.13847  -9730461.72045  21809496.4454                   21809496.7304
 11  8 22 19 19 30.0000000  0  7G17G07G08G11G26G28G24
  -9755063.40447  -7572285.47246  21667769.1954                   21667768.0434
    128865.34048    145733.54646  21220995.6174                   21220994.1484
 -13745451.34848 -10662873.07546  20151228.0234                   20151226.0164
  -5777847.04047  -4466430.46045  22170558.4144   22170556.3714
   1309428.08947   1046740.16844  22938634.2584                   22938635.4924
  -8475551.81347  -6575963.54546  21885855.5314                   21885853.2464
 -11007386.97947  -8553605.21945  22096897.5314                   22096896.6174
 11  8 22 19 20  0.0000000  0  7G17G07G08G11G26G28G24
  -9879104.98748  -7668941.21446  21644164.7814                   21644163.7274
    119223.82748    138220.62846  21219161.0784                   21219159.6254
 -13812960.42948 -10715477.58446  20138381.4224                   20138379.8404
  -5796316.46447  -4480822.25745  22167043.8834   22167041.6484
   1237274.69147    990516.74144  22924904.2974                   22924904.5354
  -8569561.63448  -6649217.94146  21867966.3134                   21867963.6454
 -11071977.92847  -8603935.84345  22084605.6724                   22084605.2974
 11  8 22 19 20 30.0000000  0  7G17G07G08G11G26G28G24
 -10002807.21148  -7765332.51446  21620625.0474                   21620623.9224
    110010.30247    131041.20646  21217407.5634                   21217406.1524
 -13879939.38548 -10767669.01346  20125636.1884                   20125634.4384
  -5814305.59847  -4494839.78445  22163621.1484   22163618.7074
   1165679.62647    934728.36744  22911280.3204                   22911281.0704
  -8663580.37148  -6722479.31046  21850075.0314                   21850072.3984
 -11136036.10147  -8653851.28745  22072415.8444                   22072415.7664
 11  8 22 19 21  0.0000000  0  7G17G07G08G11G26G28G24
 -10126168.67447  -7861458.29846  21597149.9694                   21597148.8834
    101224.56247    124195.12246  21215735.7814                   21215734.0314
 -13946385.71148 -10819445.38046  20112991.2504                   20112990.1414
  -5831814.96947  -4508483.48445  22160288.6484   22160287.3954
   1094643.56247    879375.58044  22897762.9694                   22897762.2424
  -8757606.82047  -6795746.66546  21832182.0004                   21832180.0634
 -11199559.87947  -8703350.35645  22060327.6804                   22060327.4964
 11  8 22 19 21 30.0000000  0  7G17G07G08G11G26G28G24
 -10249186.08447  -7957315.97246  21573740.7504                   21573739.1294
     92868.61548    117683.94146  21214145.6094                   21214144.4454
 -14012295.67948 -10870803.82946  20100449.0784                   20100447.7304
  -5848843.37347  -4521752.38944  22157048.1254   22157046.3714
   1024168.27546    824459.74544  22884351.6644                   22884351.3874
  -8851637.90847  -6869017.65346  21814288.5084                   21814286.3284
 -11262546.11147  -8752430.53545  22048342.1414                   22048341.8244
 11  8 22 19 22  0.0000000  0  7G17G07G08G11G26G28G24
 -10371858.65747  -8052904.97046  21550396.4224                   21550395.5124
     84941.77248    111507.11446  21212637.3134                   21212635.8164
 -14077667.32347 -10921742.78546  20088009.4064                   20088007.6764
  -5865392.03847  -4534647.47944  22153899.2344   22153897.1564
    954253.71646    769980.82544  22871047.1414                   22871046.8794
  -8945672.58447  -6942291.42146  21796394.3284                   21796391.9264
 -11324993.83147  -8801091.09045  22036458.5004                   22036458.1884
 11  8 22 19 22 30.0000000  0  7G17G07G08G11G26G28G24
 -10494189.51347  -8148227.67146  21527117.9614                   21527116.7194
     77439.59448    105661.20546  21211210.4224                   21211209.0354
 -14142503.07648 -10972264.17846  20075671.5864                   20075669.9384
  -5881466.23247  -4547172.86645  22150840.5704   22150838.1644
    884895.59646    715935.51344  22857848.8284                   22857849.3134
  -9039714.25448  -7015570.65246  21778498.9534                   21778496.8674
 -11386906.18147  -8849334.48845  22024676.8834                   22024676.4024
 11  8 22 19 23  0.0000000  0  7G17G07G08G11G26G28G24
 -10616174.06647  -8243280.53646  21503904.8134                   21503903.7624
     70365.58048    100148.93946  21209863.8594                   21209862.1214
 -14206797.50048 -11022363.76446  20063437.0474                   20063435.1414
  -5897062.94147  -4559326.16345  22147872.8284   22147870.8094
    816097.45946    662326.57544  22844757.1884                   22844757.2814
  -9133757.80647  -7088851.34346  21760602.8834                   21760600.8594
 -11448278.27647  -8897156.90345  22012998.1724                   22012998.2934
 11  8 22 19 23 30.0000000  0  7G17G07G08G11G26G28G24
 -10737813.39147  -8338064.40046  21480757.9614                   21480756.6884
     63717.18148     94968.30146  21208598.7424                   21208597.2384
 -14270550.88048 -11072041.74346  20051305.1024                   20051303.3094
  -5912185.18447  -4571109.77145  22144995.2114   22144993.1804
    747857.22546    609152.32244  22831771.2114                   22831771.8984
  -9227804.38347  -7162134.40046  21742706.6644                   21742704.3134
 -11509111.28247  -8944559.26645  22001421.7814                   22001421.8954
 11  8 22 19 24  0.0000000  0  7G17G07G08G11G26G28G24
 -10859107.99247  -8432579.63646  21457675.7114                   21457674.8954
     57492.74547     90118.04646  21207414.2424                   21207412.6644
 -14333762.79047 -11121297.78646  20039276.1954                   20039274.5664
  -5926835.24947  -4582525.41344  22142207.1724   22142204.9184
    680173.68746    556411.90744  22818891.7274                   22818891.8874
  -9321854.05647  -7235419.85546  21724809.6954                   21724807.1024
 -11569405.70347  -8991541.93145  21989948.8284                   21989948.4734
 11  8 22 19 24 30.0000000  0  7G17G07G08G11G26G28G24
 -10980051.31147  -8526821.14646  21434661.5554                   21434660.1914
     51697.54347     85602.25146  21206311.5164                   21206310.1524
 -14396426.24848 -11170126.48046  20027351.3594                   20027350.0984
  -5941008.61747  -4593569.64545  22139510.1724   22139508.3954
    613052.01947    504109.27844  22806119.3754                   22806119.4184
  -9415900.52247  -7308702.82546  21706912.9144                   21706910.8364
 -11629154.90347  -9038099.75945  21978578.7114                   21978578.1454
 11  8 22 19 25  0.0000000  0  7G17G07G08G11G26G28G24
 -11100644.90747  -8620790.15846  21411713.0944                   21411712.2854
     46328.37147     81418.42146  21205289.8984                   21205288.0434
 -14458542.17948 -11218528.53546  20015531.5314                   20015529.9264
  -5954709.40147  -4604245.58145  22136902.4454   22136901.9574
    546489.16547    452242.10044  22793452.4304                   22793453.1334
  -9509945.39247  -7381984.53346  21689016.9064                   21689014.6334
 -11688360.66647  -9084234.14245  21967312.3524                   21967312.5084
 11  8 22 19 25 30.0000000  0  7G17G07G08G11G26G28G24
 -11220893.69147  -8714490.46746  21388830.5004                   21388829.5784
     41379.42247     77562.04946  21204347.7504                   21204346.6724
 -14520114.39848 -11266506.91446  20003814.4534                   20003813.1024
  -5967943.36347  -4614557.79445  22134384.6804   22134382.9304
    480479.54647    400806.00344  22780891.4064                   22780891.4774
  -9603993.04247  -7455268.42546  21671120.2734                   21671117.9614
 -11747027.54347  -9129948.59245  21956148.1954                   21956147.8594
 11  8 22 19 26  0.0000000  0  7G17G07G08G11G26G28G24
 -11340794.52447  -8807919.66746  21366014.0634                   21366012.9064
     36852.40047     74034.43546  21203486.6174                   21203485.7704
 -14581139.10948 -11314058.64946  19992201.9924                   19992200.4804
  -5980709.81447  -4624505.71944  22131955.0164   22131953.1254
    415025.18447    349802.58844  22768435.8914                   22768435.9734
  -9698040.23348  -7528551.95946  21653223.8984                   21653221.1764
 -11805152.52147  -9175240.80345  21945087.0084                   21945087.6094
 11  8 22 19 26 30.0000000  0  7G17G07G08G11G26G28G24
 -11460345.86047  -8901076.52246  21343264.0004                   21343263.2504
     32746.99248     70835.36546  21202705.5004                   21202704.3164
 -14641614.23548 -11361182.15546  19980693.9304                   19980692.6564
  -5993009.97447  -4634090.27445  22129614.6484   22129612.8554
    350125.96847    299231.76444  22756086.1414                   22756086.4454
  -9792085.48847  -7601833.97546  21635327.7194                   21635325.8714
 -11862734.57847  -9220109.94545  21934129.8594                   21934129.3284
 11  8 22 19 27  0.0000000  0  7G17G07G08G11G26G28G24
 -11579547.17047  -8993960.61346  21320580.8524                   21320579.6214
     29062.71147     67964.43746  21202004.5234                   21202003.0784
 -14701537.93448 -11407875.96946  19969291.1564                   19969289.9264
  -6004844.56547  -4643312.07545  22127362.4224   22127360.7664
    285781.70447    249093.34644  22743841.3594                   22743841.9024
  -9886127.69547  -7675113.62946  21617431.8594                   21617429.2734
 -11919772.78547  -9264555.31045  21923275.7034                   21923276.0354
 11  8 22 19 27 30.0000000  0  7G17G07G08G11G26G28G24
 -11698400.39947  -9086573.49546  21297964.2504                   21297963.0554
     25796.34347     65419.16346  21201382.7344                   21201381.5634
 -14760911.99648 -11454141.50046  19957992.4844                   19957990.4264
  -6016217.53747  -4652174.16644  22125198.4454   22125196.5474
    221989.34847    199384.97744  22731702.2034                   22731702.3674
  -9980168.41047  -7748392.12346  21599536.4144                   21599534.0784
 -11976269.10247  -9308578.44045  21912524.5554                   21912525.0124
 11  8 22 19 28  0.0000000  0  7G17G07G08G11G26G28G24
 -11816906.49248  -9178915.87146  21275412.6414                   21275411.8324
     22945.65547     63197.78146  21200840.2664                   21200839.1294
 -14819736.76948 -11499979.02246  19946798.4454                   19946797.1334
  -6027131.72647  -4660678.78944  22123121.4774   22123119.9104
    158746.71247    150104.99244  22719667.1804                   22719667.6884
 -10074208.04147  -7821669.76546  21581641.3834                   21581639.2734
 -12032224.48147  -9352180.05045  21901877.0234                   21901877.1374
 11  8 22 19 28 30.0000000  0  7G17G07G08G11G26G28G24
 -11935063.92648  -9270986.57246  21252928.5704                   21252927.5004
     20510.34947     61300.07846  21200376.9614                   21200375.7464
 -14878009.87248 -11545386.65346  19935709.3524                   19935707.7384
  -6037587.86347  -4668826.45844  22121131.9224   22121130.1174
     96053.70047    101253.28444  22707737.5004                   22707738.0434
 -10168245.45547  -7894945.66146  21563746.5944                   21563744.7274
 -12087637.78047  -9395359.25445  21891332.1954                   21891331.9144
 11  8 22 19 29  0.0000000  0  7G17G07G08G11G26G28G24
 -12052873.20148  -9362785.97646  21230509.7504                   21230508.9614
     18488.94347     59724.91646  21199992.1644                   21199991.0904
 -14935731.00348 -11590364.17946  19924725.3524                   19924723.8634
  -6047588.17847  -4676618.96244  22119228.8674   22119226.9104
     33908.85546     52828.67744  22695911.8594                   22695912.1174
 -10262280.52748  -7968219.75946  21545852.2814                   21545850.1254
 -12142509.42547  -9438116.36845  21880890.3914                   21880890.7854
 11  8 22 19 29 30.0000000  0  7G17G07G08G11G26G28G24
 -12170333.21848  -9454313.22846  21208157.8524                   21208157.2384
     16881.62648     58472.39746  21199686.7274                   21199685.2274
 -14992898.48948 -11634910.30046  19913846.8834                   19913845.6374
  -6057133.45047  -4684056.87544  22117412.2974   22117410.3524
    -27687.64147      4831.38844  22684191.0234                   22684190.3094
 -10356311.49648  -8041490.64546  21527958.6094                   21527956.8324
 -12196838.29347  -9480450.58045  21870552.1024                   21870552.0704
 11  8 22 19 30  0.0000000  0  7G17G07G08G11G26G28G24
 -10712014.35747  -8317960.84746  21485667.0084                   21485665.7384
   1591112.08048   1285145.41746  21499252.7974                   21499251.7034
 -13474084.19048 -10451418.66146  20202867.8204                   20202866.1724
  -4490800.09347  -3463537.40844  22415476.2034   22415473.6994
   1486690.28347   1184866.07345  22972367.0554                   22972368.0824
  -8874909.29048  -6887151.27746  21809860.5634                   21809858.0274
 -10675197.28747  -8294756.30045  22160110.0944                   22160110.0664
 11  8 22 19 30 30.0000000  0  7G17G07G08G11G26G28G24
 -10828762.82448  -8408933.65446  21463450.5084                   21463449.2734
   1590340.72348   1284544.31246  21499105.9614                   21499104.7154
 -13530129.72448 -10495090.53546  20192202.5864                   20192200.8404
  -4499428.83247  -3470261.15645  22413833.7504   22413832.1214
   1426199.06447   1137730.06944  22960855.7734                   22960855.5904
  -8968918.57848  -6960405.26546  21791971.0944                   21791968.5664
 -10728428.44347  -8336235.14545  22149981.3834                   22149981.1094
 11  8 22 19 31  0.0000000  0  7G17G07G08G11G26G28G24
 -10945152.03347  -8499626.51446  21441301.9454                   21441300.5234
   1589988.89548   1284270.09746  21499039.4924                   21499037.8634
 -13585609.56548 -10538321.61246  20181645.1724                   20181643.7544
  -4507598.58647  -3476627.21544  22412279.4924   22412277.2154
   1366262.20647   1091025.97844  22949450.8834                   22949450.5664
  -9062912.61648  -7033647.36746  21774084.4454                   21774081.8984
 -10781107.50747  -8377283.77745  22139956.5394                   22139957.0044
 11  8 22 19 31 30.0000000  0  7G17G07G08G11G26G28G24
 -11061175.10247  -8590034.07746  21419223.7584                   21419222.8204
   1590062.11248   1284327.09346  21499053.1564                   21499051.8984
 -13640516.31448 -10581106.12446  20171196.5784                   20171195.3914
  -4515304.39447  -3482631.78044  22410813.2734   22410810.8674
   1306885.34647   1044758.27844  22938151.2504                   22938151.8284
  -9156884.13948  -7106871.93346  21756202.5554                   21756200.0044
 -10833227.68447  -8417896.93545  22130038.8054                   22130038.6134
 11  8 22 19 32  0.0000000  0  7G17G07G08G11G26G28G24
 -11176828.66847  -8680153.69046  21397215.1024                   21397214.4024
   1590562.45248   1284716.91346  21499147.8204                   21499147.0434
 -13694845.74048 -10623440.77246  20160857.9534                   20160856.8984
  -4522544.89147  -3488273.76844  22409435.2114   22409432.8714
   1248070.81747    998928.73344  22926959.5864                   22926959.6134
  -9250829.10648  -7180075.81246  21738325.1414                   21738322.7384
 -10884785.50847  -8458071.85545  22120227.8524                   22120227.2074
 11  8 22 19 32 30.0000000  0  7G17G07G08G11G26G28G24
 -11292105.74847  -8769979.96946  21375278.7194                   21375277.5904
   1591495.26048   1285443.71446  21499325.9304                   21499325.0864
 -13748590.97348 -10665320.20946  20150631.0084                   20150629.7734
  -4529315.33547  -3493549.47445  22408147.2894   22408145.9924
   1189823.62047    953541.26744  22915875.4774                   22915876.0314
  -9344740.61348  -7253253.60546  21720454.1564                   21720451.7304
 -10935774.60747  -8497803.64745  22110524.8284                   22110524.6954
 11  8 22 19 33  0.0000000  0  7G17G07G08G11G26G28G24
 -11406996.75747  -8859505.39646  21353416.0554                   21353415.0744
   1592869.11748   1286514.19146  21499587.3754                   21499586.2034
 -13801741.50648 -10706736.23546  20140516.7894                   20140515.9534
  -4535607.84147  -3498452.77745  22406949.7734   22406947.7154
   1132152.42647    908602.64144  22904900.6174                   22904901.1884
  -9438608.02248  -7326397.04246  21702592.1884                   21702589.6954
 -10986185.45447  -8537084.83845  22100931.1644                   22100931.7194
 11  8 22 19 33 30.0000000  0  7G17G07G08G11G26G28G24
 -11521499.58848  -8948728.35146  21331626.7034                   21331625.7154
   1594684.33148   1287928.57446  21499933.0004                   21499931.8404
 -13854294.65648 -10747686.78746  20130516.2344                   20130515.3594
  -4541422.59847  -3502983.80745  22405843.1804   22405841.2584
   1075057.93647    864113.40044  22894036.0784                   22894036.5164
  -9532428.94948  -7399504.26846  21684738.7194                   21684736.4924
 -11036016.43047  -8575914.19345  22091449.1334                   22091448.9654
 11  8 22 19 34  0.0000000  0  7G17G07G08G11G26G28G24
 -11635613.89848  -9037648.55946  21309911.7194                   21309910.2624
   1596940.13247   1289686.27646  21500362.1414                   21500361.2814
 -13906249.31448 -10788170.97046  20120629.6334                   20120628.0744
  -4546761.09747  -3507143.72844  22404827.4064   22404825.2894
   1018539.34947    820072.91344  22883280.9384                   22883281.4804
  -9626202.25248  -7472574.37446  21666893.8914                   21666891.9344
 -11085267.04747  -8614291.32545  22082076.9924                   22082077.0434
 11  8 22 19 34 30.0000000  0  7G17G07G08G11G26G28G24
 -11749326.66848  -9126255.87946  21288272.7734                   21288271.3204
   1599648.08247   1291796.29746  21500877.5944                   21500876.3054
 -13957592.00248 -10828178.29046  20110859.8674                   20110858.0944
  -4551612.01547  -3510923.67344  22403904.4614   22403902.3054
    962608.45147    776490.36344  22872637.8594                   22872638.7384
  -9719914.29948  -7545596.74246  21649061.2664                   21649058.8484
 -11133924.40547  -8652206.16645  22072818.0474                   22072818.1994
 11  8 22 19 35  0.0000000  0  7G17G07G08G11G26G28G24
 -11862634.48948  -9214547.67346  21266711.2114                   21266709.7624
   1602810.17648   1294260.19946  21501479.2424                   21501478.3754
 -14008318.83548 -10867705.72946  20101206.2974                   20101204.6294
  -4555974.27547  -3514322.89244  22403074.2504   22403072.2424
    907267.00447    733367.14844  22862106.2584                   22862106.5354
  -9813561.19948  -7618568.35746  21631240.8284                   21631238.7814
 -11181985.35447  -8689656.27345  22063672.2344                   22063672.6994
 11  8 22 19 35 30.0000000  0  7G17G07G08G11G26G28G24
 -11975537.57848  -9302524.07746  21245225.9454                   21245224.9224
   1606425.11347   1297076.96846  21502166.9224                   21502166.2624
 -14058429.48548 -10906753.02046  20091670.7584                   20091669.1604
  -4559850.21347  -3517343.17844  22402336.4924   22402335.3524
    852513.57047    690702.09245  22851687.6024                   22851688.1564
  -9907142.40048  -7691488.78246  21613432.8674                   21613430.5204
 -11229450.32047  -8726641.98645  22054640.0704                   22054639.9694
 11  8 22 19 36  0.0000000  0  7G17G07G08G11G26G28G24
 -12088037.87448  -9390186.62946  21223818.0704                   21223816.6724
   1610489.23147   1300243.74746  21502940.2034                   21502939.3554
 -14107925.64648 -10945321.49746  20082251.8444                   20082250.5984
  -4563243.36947  -3519987.22344  22401690.6884   22401689.4924
    798344.74247    648492.56544  22841379.7584                   22841379.7274
 -10000659.24948  -7764359.05846  21595637.2584                   21595634.7234
 -11276321.68047  -8763165.12845  22045720.6564                   22045720.4264
 11  8 22 19 36 30.0000000  0  7G17G07G08G11G26G28G24
 -12200129.48348  -9477530.72246  21202487.6644                   21202486.4654
   1615007.12547   1303764.12046  21503800.4144                   21503800.0824
 -14156800.77048 -10983406.03946  20072951.6174                   20072950.2274
  -4566150.00147  -3522252.17644  22401137.8524   22401135.6454
    744765.02646    606742.10744  22831183.6254                   22831184.1174
 -10094105.13148  -7837174.02346  21577855.0634                   21577853.1294
 -11322593.69547  -8799221.27845  22036915.7734                   22036915.8094
 11  8 22 19 37  0.0000000  0  7G17G07G08G11G26G28G24
 -12311808.43947  -9564553.27446  21181235.5784                   21181234.6414
   1619981.05247   1307639.83446  21504747.2664                   21504746.2114
 -14205050.13748 -11021002.99046  20063769.6484                   20063768.8014
  -4568567.80247  -3524136.20544  22400677.7584   22400676.4454
    691777.01147    565452.70244  22821100.0784                   22821100.4024
 -10187475.41448  -7909930.08946  21560087.3444                   21560084.9454
 -11368262.64247  -8834807.49945  22028224.7584                   22028225.4064
 11  8 22 19 37 30.0000000  0  7G17G07G08G11G26G28G24
 -12423072.62747  -9651252.62246  21160063.0474                   21160061.6884
   1625412.15448   1311871.78546  21505780.3524                   21505780.1024
 -14252671.24948 -11058110.38146  20054708.1884                   20054706.0784
  -4570496.99047  -3525639.52644  22400310.4534   22400308.7894
    639381.41047    524624.92644  22811129.8444                   22811130.4344
 -10280766.99848  -7982624.83946  21542334.6094                   21542332.2854
 -11413326.87147  -8869922.49345  22019649.5864                   22019649.4534
 11  8 22 19 38  0.0000000  0  7G17G07G08G11G26G28G24
 -12533923.29147  -9737629.73846  21138968.5474                   21138967.3164
   1631297.53448   1316457.73846  21506900.3524                   21506899.8244
 -14299665.49048 -11094729.30046  20045765.4304                   20045764.1094
  -4571940.86947  -3526764.65344  22400036.1884   22400034.4574
    587575.42947    484256.58344  22801271.7894                   22801272.2504
 -10373980.60448  -8055258.82646  21524596.5234                   21524594.2774
 -11457788.10047  -8904567.63645  22011189.1954                   22011188.7934
 11  8 22 19 38 30.0000000  0  7G17G07G08G11G26G28G24
 -12644351.34647  -9823677.55446  21117954.9384                   21117953.9184
   1637644.91448   1321403.68146  21508108.7424                   21508107.6254
 -14346022.86848 -11130851.96946  20036943.8524                   20036942.2584
  -4572892.33247  -3527506.10244  22399854.6644   22399853.1454
    536366.76147    444353.69544  22791527.1954                   22791527.1994
 -10467106.10948  -8127824.16046  21506875.6254                   21506873.2194
 -11501637.43947  -8938735.97345  22002844.3134                   22002844.7114
 11  8 22 19 39  0.0000000  0  8G17G07G08G11G04G26G28G24
 -12754354.16047  -9909393.99746  21097021.8834                   21097020.9414
   1644455.77448   1326710.78446  21509404.5004                   21509403.6484
 -14391740.07748 -11166475.79646  20028244.0944                   20028242.6254
  -4573350.54347  -3527863.18144  22399767.4534   22399766.2114
  21770642.09556  16995021.16453  24480315.4304                   24480322.1174
    485756.75047    404917.26844  22781896.1644                   22781896.0864
 -10560140.50748  -8200318.48246  21489171.6884                   21489169.2664
 -11544872.37247  -8972425.52945  21994617.3204                   21994617.1214
 11  8 22 19 39 30.0000000  0  8G17G07G08G11G04G26G28G24
 -12863945.04147  -9994789.48246  21076167.4144                   21076166.5824
   1651714.91348   1332367.18446  21510786.3054                   21510785.2464
 -14436830.53148 -11201611.24746  20019663.4304                   20019662.8914
  -4573331.14347  -3527848.11544  22399771.5634   22399770.0784
  21586025.36446  16851164.15343  24445184.4774                   24445190.7424
    435730.20947    365935.51344  22772376.4144                   22772376.5784
 -10653096.24648  -8272751.53046  21471482.7894                   21471480.0234
 -11587507.14947  -9005647.46845  21986503.9844                   21986503.9494
 11  8 22 19 40  0.0000000  0  8G17G07G08G11G04G26G28G24
 -12973120.62747 -10079861.33746  21055392.0784                   21055391.0824
   1659424.27648   1338374.40346  21512252.8984                   21512252.1174
 -14481290.42348 -11236255.35046  20011203.1414                   20011202.0514
  -4572832.50047  -3527459.59344  22399865.9614   22399864.3324
  21401390.38946  16707293.06043  24410049.4144                   24410056.3134
    386289.38447    327410.14844  22762967.8594                   22762967.5594
 -10745968.95548  -8345119.87246  21453809.0704                   21453807.0084
 -11629538.49647  -9038399.16845  21978506.1484                   21978505.8134
 11  8 22 19 40 30.0000000  0  8G17G07G08G11G04G26G28G24
 -13081886.01948 -10164613.57446  21034694.9384                   21034693.5044
   1667577.92948   1344727.83646  21513804.6884                   21513804.1214
 -14525124.17148 -11270411.53546  20002862.0004                   20002860.8364
  -4571861.22147  -3526702.81144  22400051.6174   22400049.6294
  21216735.54946  16563406.43443  24374909.5704                   24374916.5004
    337428.14647    289336.39744  22753670.0314                   22753670.2274
 -10838762.48048  -8417426.51146  21436151.1334                   21436149.0984
 -11670971.20847  -9070684.40745  21970621.4924                   21970620.9344
 11  8 22 19 41  0.0000000  0  8G17G07G08G11G04G26G28G24
 -11614806.84648  -9021434.97746  21313870.7504                   21313869.3054
   3251604.54348   2579034.19846  21815235.0314                   21815234.2464
 -12992899.51648 -10076470.28546  20294434.7424                   20294433.0824
  -2994989.17347  -2297971.37644  22700120.6174   22700118.5124   22607500.14546
  17647119.44643                  24639564.0554                   24639570.4774
   1864576.88447   1479322.39244  23044277.7424                   23044277.6484
  -9356042.40248  -7262060.21146  21718303.7894                   21718301.6174
 -10136374.25547  -7874894.56545  22262645.7584                   22262645.3014
 11  8 22 19 41 30.0000000  0  8G17G07G08G11G04G26G28G24
 -11722723.85548  -9105526.13846  21293334.5084                   21293333.6024
   3260670.08148   2586098.18846  21816960.2344                   21816959.5984
 -13035451.98748 -10109628.09646  20286337.1884                   20286335.8984
  -2993051.34147  -2296461.41344  22700489.1644   22700487.4224   22422841.38246
  17503229.69643                  24604424.0004                   24604430.8164
   1816897.49647   1442169.59644  23035204.1414                   23035204.1054
  -9448647.19448  -7334219.78846  21700681.7114                   21700679.6994
 -10176583.84147  -7906226.73845  22254993.7504                   22254993.6334
 11  8 22 19 42  0.0000000  0  8G17G07G08G11G04G26G28G24
 -11830214.64148  -9189285.16046  21272879.9844                   21272878.7074
   3270191.56648   2593517.44646  21818772.3134                   21818771.8364
 -13077361.11348 -10142284.58646  20278362.0314                   20278361.1954
  -2990630.83447  -2294575.36644  22700949.9224   22700947.0664   22238187.03246
  17359343.39843                  24569285.6564                   24569291.8834
   1769809.08247   1405477.28644  23026243.1484                   23026243.8094
  -9541154.39648  -7406303.32146  21683078.5004                   21683075.7464
 -10216180.52247  -7937081.29445  22247459.1564                   22247458.6414
 11  8 22 19 42 30.0000000  0  8G17G07G08G11G04G26G28G24
 -11937271.51248  -9272706.08146  21252507.4534                   21252506.4344
   3280175.08148   2601296.73046  21820672.4144                   21820671.4964
 -13118619.40148 -10174433.93946  20270510.9614                   20270510.2424
  -2987722.28347  -2292309.00344  22701502.9534   22701501.2774   22053547.89346
  17215469.02343                  24534149.6174                   24534156.6484
   1723317.39547   1369249.92444  23017396.1334                   23017397.3014
  -9633555.16548  -7478303.91546  21665494.7344                   21665492.4264
 -10255157.13647  -7967452.71745  22240042.0864                   22240042.4264
 11  8 22 19 43  0.0000000  0  8G17G07G08G11G04G26G28G24
 -12043895.65948  -9355789.80946  21232217.8984                   21232216.8404
   3290617.48748   2609433.59046  21822659.2504                   21822658.5944
 -13159227.83647 -10206076.90646  20262783.4614                   20262782.9264
  -2984329.59747  -2289665.38444  22702148.9924   22702146.9734   21868925.23646
  17071607.54043                  24499016.0864                   24499023.5004
   1677419.52447   1333485.30044  23008662.4224                   23008662.4344
  -9725850.39248  -7550222.27546  21647931.7274                   21647929.6884
 -10293515.56747  -7997342.41145  22232742.8134                   22232742.4184
 11  8 22 19 43 30.0000000  0  8G17G07G08G11G04G26G28G24
 -12150086.15248  -9438535.63446  21212010.4454                   21212009.2894
   3301518.89448   2617928.10645  21824733.1884                   21824732.6414
 -13199184.53248 -10237212.03146  20255180.0784                   20255178.8914
  -2980452.73247  -2286644.48444  22702886.4774   22702885.4064   21684323.47546
  16927762.21943                  24463888.1884                   24463894.0434
   1632115.29747   1298183.27744  23000041.1564                   23000041.5204
  -9818037.22448  -7622056.16446  21630389.1804                   21630386.9964
 -10331254.57147  -8026749.43845  22225561.4144                   22225561.1724
 11  8 22 19 44  0.0000000  0  8G17G07G08G11G04G26G28G24
 -12255838.35647  -9520939.91846  21191886.4384                   21191884.8284
   3312882.84648   2626783.07846  21826896.4694                   21826895.4384
 -13238484.05948 -10267835.07046  20247701.5474                   20247699.9924
  -2976088.95347  -2283244.19444  22703717.1414   22703715.7034   21499750.44146
  16783939.33543                  24428765.0474                   24428770.8094
   1587408.01047   1263346.40144  22991533.6804                   22991534.9384
  -9910110.09348  -7693801.26446  21612867.8444                   21612865.9224
 -10368370.07947  -8055670.60645  22218498.4614                   22218498.0474
 11  8 22 19 44 30.0000000  0  8G17G07G08G11G04G26G28G24
 -12361155.95448  -9603005.55546  21171845.2894                   21171844.1604
   3324703.77048   2635994.09745  21829146.1644                   21829144.8754
 -13277130.67148 -10297949.35446  20240347.6644                   20240346.0084
  -2971244.47947  -2279469.30744  22704638.7034   22704636.9304   21315205.02946
  16640138.04343                  24393647.9144                   24393651.7774
   1543291.96747   1228970.20244  22983138.8134                   22983139.2894
 -10002072.17948  -7765460.03346  21595368.3524                   21595366.5474
 -10404866.43847  -8084109.33745  22211553.6724                   22211553.7234
 11  8 22 19 45  0.0000000  0  8G17G07G08G11G04G26G28G24
 -12466039.96248  -9684733.33146  21151886.4614                   21151884.9064
   3336979.15148   2645559.24346  21831482.1024                   21831481.1804
 -13315125.18648 -10327555.49846  20233117.2344                   20233116.1524
  -2965921.95147  -2275321.91844  22705651.6484   22705650.2274   21130689.46946
  16496359.92143                  24358534.2584                   24358539.5984
   1499764.66146   1195052.74044  22974855.8204                   22974856.3014
 -10093923.02948  -7837032.13046  21577889.5634                   21577887.5164
 -10440745.25947  -8112066.86245  22204725.7894                   22204726.1094
 11  8 22 19 45 30.0000000  0  8G17G07G08G11G04G26G28G24
 -12570495.63048  -9766127.35446  21132009.1884                   21132007.6454
   3349702.46748   2655473.44646  21833903.1094                   21833901.8714
 -13352472.65648 -10356657.46446  20226010.7894                   20226009.2464
  -2960128.48147  -2270807.56844  22706754.1174   22706752.8054   20946201.69046
  16352603.50643                  24323427.2734                   24323432.9184
   1456819.53147   1161588.97444  22966683.6644                   22966683.9224
 -10185666.58548  -7908520.59746  21560431.6804                   21560429.1994
 -10476012.00647  -8139547.46845  22198014.8054                   22198014.5664
 11  8 22 19 46  0.0000000  0  8G17G07G08G11G04G26G28G24
 -12674525.98948  -9847189.95046  21112212.8594                   21112211.7424
   3362869.15547   2665733.13046  21836408.9064                   21836408.0234
 -13389175.71248 -10385257.28246  20219025.9384                   20219025.1174
  -2953869.51947  -2265930.52044  22707945.0944   22707942.8674   20761741.46146
  16208868.52343                  24288326.2194                   24288331.1684
   1414451.72347   1128575.03644  22958621.3594                   22958621.8594
 -10277305.04948  -7979927.19146  21542993.2664                   21542990.6764
 -10510670.33947  -8166553.96845  22191419.9614                   22191419.4574
 11  8 22 19 46 30.0000000  0  8G17G07G08G11G04G26G28G24
 -12778136.54648  -9927925.42046  21092496.5084                   21092495.1294
   3376472.57947   2676333.11546  21838997.0004                   21838996.6294
 -13425239.70148 -10413359.13346  20212162.9384                   20212162.1884
  -2947152.05247  -2260696.16144  22709223.0084   22709221.5634   20577306.71746
  16065153.37643                  24253228.9534                   24253234.3364
   1372654.39347   1096005.64344  22950667.4144                   22950667.9104
 -10368842.70348  -8051255.23646  21525574.3134                   21525572.0234
 -10544726.26647  -8193091.04445  22184939.0164                   22184938.7854
 11  8 22 19 47  0.0000000  0  8G17G07G08G11G04G26G28G24
 -12881334.29547 -10008339.23746  21072858.2814                   21072857.2664
   3390503.99247   2687266.60546  21841666.8674                   21841666.5314
 -13460671.20748 -10440968.14046  20205421.1024                   20205419.9104
  -2939985.32047  -2255111.74444  22710586.8284   22710585.4884   20392893.33546
  15921454.91143                  24218135.3984                   24218140.8524
   1331418.65047   1063873.82644  22942820.1644                   22942821.7274
 -10460285.50548  -8122509.35546  21508173.3594                   21508170.7504
 -10578187.46847  -8219164.71245  22178571.5084                   22178571.2114
 11  8 22 19 47 30.0000000  0  8G17G07G08G11G04G26G28G24
 -12984124.03947 -10088435.13146  21053298.1484                   21053295.9024
   3404957.25347   2698528.79345  21844417.9144                   21844417.2854
 -13495474.89448 -10468087.92546  20198798.2664                   20198797.2344
  -2932375.90247  -2249182.37944  22712035.1414   22712033.2934   20208499.80646
  15777771.90843                  24183046.6024                   24183051.5634
   1290738.11746   1032174.65744  22935079.0234                   22935080.1804
 -10551637.13148  -8193692.43646  21490789.7584                   21490787.3204
 -10611059.17647  -8244779.05045  22172316.2344                   22172315.9844
 11  8 22 19 48  0.0000000  0  8G17G07G08G11G04G26G28G24
 -13086508.35547 -10168215.09246  21033814.9844                   21033813.8954
   3419828.41647   2710116.62345  21847247.7974                   21847247.2154
 -13529653.00048 -10494720.26346  20192294.1334                   20192293.4844
  -2924328.19347  -2242911.49644  22713566.7274   22713565.5164   20024126.76246
  15634104.86843                  24147961.3524                   24147965.8444
   1250608.89747   1000905.08044  22927443.5704                   22927444.0004
 -10642898.52648  -8264805.22146  21473423.0554                   21473420.5164
 -10643344.20647  -8269936.23145  22166172.3674                   22166172.2584
 11  8 22 19 48 30.0000000  0  8G17G07G08G11G04G26G28G24
 -13188493.78548 -10247684.23746  21014407.6564                   21014406.3014
   3435109.40248   2722023.78946  21850155.6174                   21850155.2894
 -13563212.35148 -10520870.44146  20185908.2274                   20185907.2544
  -2915851.03247  -2236305.93444  22715180.2034   22715178.7504   19839770.82246
  15490451.18443                  24112879.5234                   24112885.1254
   1211022.60047    970058.55244  22919910.0084                   22919911.0434
 -10734075.34348  -8335852.08546  21456072.9224                   21456070.7664
 -10675049.86247  -8294641.95145  22160139.2194                   22160139.2894
 11  8 22 19 49  0.0000000  0  8G17G07G08G11G04G26G28G24
 -13290079.37748 -10326841.82646  20995076.4614                   20995075.5474
   3450799.76148   2734249.96345  21853141.7894                   21853141.3914
 -13596151.43047 -10546537.29646  20179639.8134                   20179638.6134
  -2906944.97847  -2229366.23344  22716874.8594   22716873.5394   19655435.93846
  15346813.92543                  24077801.1954                   24077806.6174
   1171978.63047    939634.61944  22912480.4534                   22912481.3954
 -10825165.32948  -8406831.32146  21438739.0704                   21438736.7424
 -10706175.68847  -8318895.85945  22154216.3204                   22154216.3594
 11  8 22 19 49 30.0000000  0  8G17G07G08G11G04G26G28G24
 -13391269.86948 -10405691.54246  20975820.4614                   20975819.2424
   3466893.66248   2746790.58746  21856204.1724                   21856204.3554
 -13628474.70247 -10571724.29446  20173489.4534                   20173488.1684
  -2897616.89147  -2222097.62044  22718649.3984   22718648.6134   19471121.01446
  15203192.17543                  24042727.0394                   24042732.6644
   1133470.77047    909628.42744  22905152.6174                   22905153.4884
 -10916171.71148  -8477745.37246  21421421.0704                   21421418.9534
 -10736727.00346  -8342702.10945  22148402.2814                   22148402.1604
 11  8 22 19 50  0.0000000  0  8G17G07G08G11G04G26G28G24
 -13492071.47348 -10484238.22546  20956638.6094                   20956637.3204
   3483383.05347   2759639.36245  21859342.2894                   21859342.1134
 -13660188.54047 -10596436.41846  20167454.3914                   20167453.4414
  -2887874.75247  -2214506.39644  22720503.3594   22720502.4494   19286822.78346
  15059583.37543                  24007656.4064                   24007661.2854
   1095490.97047    880033.72044  22897925.3754                   22897925.5784
 -11007099.39047  -8548598.12346  21404118.1414                   21404115.8094
 -10766710.80246  -8366066.12445  22142696.6724                   22142696.8954
 11  8 22 19 50 30.0000000  0  8G17G07G08G11G04G26G28G24
 -13592484.64747 -10562482.24946  20937530.5164                   20937529.0314
   3500266.39247   2772795.12745  21862555.2734                   21862554.5124
 -13691293.31248 -10620673.94146  20161535.4064                   20161534.4884
  -2877720.99647  -2206594.45044  22722436.2504   22722434.4494   19102544.23646
  14915989.94743                  23972589.3284                   23972594.5984
   1058037.18347    850848.88744  22890798.6954                   22890799.2274
 -11097947.70648  -8619389.02746  21386830.3284                   21386827.4184
 -10796128.01747  -8388988.66045  22137098.9694                   22137099.5044
 11  8 22 19 51  0.0000000  0  8G17G07G08G11G04G26G28G24
 -13692512.11947 -10640425.71946  20918496.2034                   20918494.8984
   3517538.88647   2786254.11645  21865841.8914                   21865841.6484
 -13721791.81948 -10644439.05246  20155731.6804                   20155730.3524
  -2867160.38447  -2198365.43544  22724446.1644   22724444.5904   18918285.46546
  14772412.01543                  23937525.7974                   23937530.5664
   1021104.73647    822070.28744  22883769.7114                   22883771.1764
 -11188718.34648  -8690119.40046  21369557.4384                   21369555.1214
 -10824982.17347  -8411472.46545  22131607.9774                   22131608.4774
 11  8 22 19 51 30.0000000  0  8G17G07G08G11G04G26G28G24
 -13792154.70147 -10718069.28446  20899535.3364                   20899533.6454
   3535198.81447   2800015.00245  21869202.9694                   21869202.1374
 -13751684.85247 -10667732.38246  20150042.9064                   20150042.2504
  -2856195.63247  -2189821.53044  22726532.5084   22726530.2504   18734049.17246
  14628851.45543                  23902466.9774                   23902470.9184
    984691.30147    793696.13244  22876841.2344                   22876842.1134
 -11279410.29247  -8760788.44746  21352298.6024                   21352296.5944
 -10853274.66047  -8433518.57045  22126224.2814                   22126223.8484
 11  8 22 19 52  0.0000000  0  8G17G07G08G11G04G26G28G24
 -12315994.15648  -9567814.29846  21180439.0004                   21180437.8554
   5128659.02747   4041672.20645  22172427.7034                   22172428.1484
 -12205555.87048  -9462956.58046  20444261.8594                   20444260.6764
  -1269413.93047   -953368.28044  23028487.1414   23028485.7894   20125260.07646
  15712912.18643                  24167205.0314                   24167209.2894
   2524211.61447   1993322.27444  23169802.6724                   23169802.6724
  -9794604.74848  -7603797.12546  21634848.1174                   21634845.6414
  -9305590.01147  -7227530.56945  22420738.8754                   22420738.4804
 11  8 22 19 52 30.0000000  0  8G17G07G08G11G04G26G28G24
 -12414880.51848  -9644868.60346  21161621.4144                   21161619.7464
   5147076.00847   4056023.01545  22175933.3674                   22175932.1484
 -12234250.31948  -9485315.93546  20438801.5394                   20438800.4964
  -1257659.74147   -944209.24044  23030723.7034   23030721.8094   19941065.68146
  15569384.37044                  24132153.6414                   24132158.3634
   2488817.92447   1965742.72244  23163067.4304                   23163067.7974
  -9885149.16548  -7674351.20946  21617618.2344                   21617615.9924
  -9332774.05547  -7248712.96845  22415565.8444                   22415566.1094
 11  8 22 19 53  0.0000000  0  8G17G07G08G11G04G26G28G24
 -12513387.14848  -9721627.00046  21142876.2274                   21142875.1094
   5165870.90447   4070668.28445  22179509.6484                   22179509.1294
 -12262344.16048  -9507207.28046  20433455.4144                   20433454.4654
  -1245512.02847   -934743.56143  23033035.2734   23033033.9654   19756898.69446
  15425877.93543                  24097107.7584                   24097112.3054
   2453933.40747   1938559.93344  23156428.8594                   23156430.2234
  -9975615.60948  -7744844.54646  21600402.9694                   21600400.5514
  -9359403.10746  -7269462.89544  22410498.2344                   22410498.1884
 11  8 22 19 53 30.0000000  0  8G17G07G08G11G04G26G28G24
 -12611518.05048  -9798092.64846  21124202.3754                   21124200.7734
   5185038.06347   4085603.64345  22183156.6564                   22183156.8134
 -12289841.76248  -9528634.02946  20428222.8524                   20428222.1644
  -1232976.82147   -924975.91744  23035421.4454   23035419.1454   19572758.54046
  15282392.38243                  24062066.9064                   24062071.3754
   2419552.02846   1911769.17844  23149886.4774                   23149887.3794
 -10066007.18548  -7815279.55046  21583202.0944                   21583199.5354
  -9385482.06947  -7289784.19445  22405536.3054                   22405535.9614
 11  8 22 19 54  0.0000000  0  8G17G07G08G11G04G26G28G24
 -12709275.44948  -9874267.22846  21105599.6644                   21105598.4964
   5204573.73247   4100826.13545  22186874.3204                   22186874.2074
 -12316745.22748  -9549597.81046  20423103.2894                   20423102.1524
  -1220058.38247   -914909.63544  23037878.8524   23037878.0904   19388645.98346
  15138928.30743                  24027030.7504                   24027035.7934
   2385669.50447   1885367.11844  23143438.5784                   23143439.6214
 -10156324.70948  -7885656.83946  21566014.8674                   21566012.5004
  -9411013.85147  -7309679.09045  22400676.9384                   22400677.1024
 11  8 22 19 54 30.0000000  0  8G17G07G08G11G04G26G28G24
 -12806659.41748  -9950150.83746  21087068.3524                   21087067.2934
   5224476.68547   4116334.83545  22190661.9534                   22190661.6724
 -12343054.21948  -9570098.36946  20418096.9534                   20418096.0984
  -1206758.73447   -904546.34044  23040409.5004   23040409.0124   19204564.78946
  14995488.67143                  23992000.8984                   23992005.2774
   2352284.59847   1859352.85044  23137086.0234                   23137086.9774
 -10246566.45948  -7955975.08146  21548842.9694                   21548840.4574
  -9435999.13247  -7329148.16945  22395922.7274                   22395923.1024
 11  8 22 19 55  0.0000000  0  8G17G07G08G11G04G26G28G24
 -12903676.74248 -10025748.73946  21068606.8594                   21068605.6524
   5244738.83547   4132123.40945  22194518.1174                   22194518.1524
 -12368775.58948  -9590141.04146  20413202.2734                   20413201.2034
  -1193086.02647   -893892.29944  23043011.8594   23043010.7704   19020511.45646
  14852070.78343                  23956976.5634                   23956982.0164
   2319388.86247   1833719.73244  23130825.9454                   23130827.1994
 -10336737.74347  -8026238.42046  21531683.7504                   21531681.6764
  -9460445.24647  -7348197.12745  22391270.7664                   22391270.4384
 11  8 22 19 55 30.0000000  0  8G17G07G08G11G04G26G28G24
 -13000330.35248 -10101063.24346  21050214.0864                   21050213.2624
   5265355.48647   4148188.24845  22198440.9924                   22198441.0164
 -12393912.34148  -9609728.17046  20408419.0554                   20408418.2304
  -1179045.33047   -882951.58144  23045683.9304   23045682.2034   18836486.52246
  14708675.02343                  23921958.2034                   23921962.5824
   2286977.06947   1808463.73044  23124658.2504                   23124659.2034
 -10426840.38048  -8096448.26746  21514537.9224                   21514535.4654
  -9484356.01247  -7366828.90745  22386721.3134                   22386720.9064
 11  8 22 19 56  0.0000000  0  8G17G07G08G11G04G26G28G24
 -13096620.68048 -10176094.65146  21031890.5704                   21031889.4534
   5286325.00347   4164527.99745  22202431.7584                   22202431.6724
 -12418464.99448  -9628860.14846  20403746.9454                   20403746.6414
  -1164639.04447   -871725.92443  23048425.0394   23048423.3014   18652492.84547
  14565303.58343                  23886944.7974                   23886948.6564
   2255047.65247   1783583.61444  23118582.4614                   23118583.2664
 -10516872.96248  -8166603.51746  21497404.8444                   21497402.3484
  -9507732.44547  -7385044.31345  22382272.7734                   22382273.0594
 11  8 22 19 56 30.0000000  0  8G17G07G08G11G04G26G28G24
 -13192548.80748 -10250843.83546  21013635.8754                   21013634.5084
   5307644.71047   4181140.66145  22206488.7274                   22206488.4264
 -12442434.69748  -9647537.88546  20399185.6724                   20399184.6684
  -1149869.76247   -860217.41843  23051236.3524   23051233.9064   18468533.10347
  14421958.52343                  23851938.8984                   23851942.4774
   2223597.48147   1759076.89344  23112597.7344                   23112598.2344
 -10606834.73048  -8236703.58846  21480286.1334                   21480283.9844
  -9530576.43147  -7402844.85045  22377926.1334                   22377925.8714
 11  8 22 19 57  0.0000000  0  8G17G07G08G11G04G26G28G24
 -13288112.86548 -10325309.33946  20995450.7114                   20995449.2274
   5329315.29147   4198026.69845  22210612.4614                   22210612.6564
 -12465819.84448  -9665760.13246  20394735.3914                   20394734.4144
  -1134737.35247   -848426.01843  23054114.9774   23054114.3754   18284612.59847
  14278644.04443                  23816939.2734                   23816942.8714
   2192626.81947   1734943.83444  23106703.7974                   23106705.8134
 -10696722.42648  -8306745.94346  21463180.9224                   21463178.6414
  -9552886.67047  -7420229.48644  22373679.8754                   22373680.3404
 11  8 22 19 57 30.0000000  0  8G17G07G08G11G04G26G28G24
 -13383319.24748 -10399496.11146  20977333.3674                   20977332.3594
   5351328.85047   4215180.03545  22214801.6954                   22214801.9104
 -12488626.63748  -9683531.70446  20390395.5634                   20390394.6914
  -1119250.78847   -836358.62844  23057061.8134   23057061.1134   18100728.26847
  14135357.79743                  23781947.2974                   23781950.9614
   2162127.48846   1711178.06244  23100900.1644                   23100901.4844
 -10786540.86748  -8376734.34646  21446088.8754                   21446086.0864
  -9574670.32047  -7437203.76045  22369534.7114                   22369534.8134
 11  8 22 19 58  0.0000000  0  8G17G07G08G11G04G26G28G24
 -13478166.11048 -10473402.75446  20959284.9224                   20959283.9024
   5373685.67847   4232600.82545  22219055.9614                   22219056.2154
 -12510853.34048  -9700851.28146  20386166.2894                   20386165.0704
  -1103409.77847   -824015.06944  23060077.3364   23060075.2074   17916885.35847
  13992103.79543                  23746962.5164                   23746967.1334
   2132099.28647   1687779.39644  23095186.4304                   23095186.8164
 -10876286.62748  -8446666.10946  21429010.9844                   21429008.9964
  -9595926.53847  -7453767.04945  22365490.0634                   22365490.4064
 11  8 22 19 58 30.0000000  0  8G17G07G08G11G04G26G28G24
 -13572657.28748 -10547032.23546  20941303.9144                   20941303.1054
   5396380.21847   4250284.78045  22223374.5474                   22223374.6954
 -12532504.18248  -9717722.11046  20382045.8754                   20382044.9734
  -1087219.68447   -811399.43043  23063157.5864   23063156.6804   17733083.69646
  13848882.00744                  23711986.4304                   23711990.1134
   2102536.88446   1664743.65444  23089561.0864                   23089561.6524
 -10965962.00048  -8516543.01846  21411946.3674                   21411944.2584
  -9616659.84747  -7469922.91945  22361544.8594                   22361544.6414
 11  8 22 19 59  0.0000000  0  8G17G07G08G11G04G26G28G24
 -13666792.24048 -10620384.13146  20923390.4774                   20923389.3284
   5419412.05447   4268231.56745  22227757.2664                   22227757.7584
 -12553578.68448  -9734143.84546  20378035.3834                   20378034.6914
  -1070681.96047   -798512.95343  23066304.3674   23066302.6644   17549327.51746
  13705695.59344                  23677018.1564                   23677022.1994
   2073438.93947   1642069.86944  23084023.8364                   23084024.2704
 -11055564.64148  -8586363.27046  21394895.6024                   21394893.3874
  -9636870.18947  -7485671.25744  22357699.3674                   22357698.8834
 11  8 22 19 59 30.0000000  0  8G17G07G08G11G04G26G28G24
 -13760568.84148 -10693456.78946  20905545.5004                   20905543.7734
   5442781.81747   4286441.66445  22232204.3284                   22232204.8054
 -12574074.68948  -9750114.80846  20374135.4534                   20374134.5904
  -1053796.21447   -785355.27044  23069518.1024   23069516.0824   17365622.45446
  13562549.04743                  23642059.7974                   23642064.7194
   2044806.09347   1619758.48344  23078575.0084                   23078576.7034
 -11145090.74548  -8656123.87246  21377859.5554                   21377857.0044
  -9656556.23547  -7501011.05344  22353952.2664                   22353952.3874
 11  8 22 20  0  0.0000000  0  8G17G07G08G11G04G26G28G24
 -13853992.20248 -10766254.21246  20887767.6884                   20887766.4144
   5466482.72547   4304909.79645  22236715.0004                   22236714.6804
 -12593997.80648  -9765639.36946  20370344.2734                   20370343.5394
  -1036569.50247   -771931.92244  23072796.7734   23072795.6454   17181966.91246
  13419441.15043                  23607111.5634                   23607115.8324
   2016631.13646   1597803.86044  23073213.6884                   23073214.6374
 -11234544.06948  -8725827.77446  21360837.0234                   21360834.0784
  -9675724.06047  -7515947.02645  22350305.2974                   22350304.4024
 11  8 22 20  0 30.0000000  0  8G17G07G08G11G04G26G28G24
 -13947058.03448 -10838773.03046  20870057.6174                   20870055.8674
   5490517.94647   4323638.42645  22241289.1174                   22241289.1884
 -12613343.75348  -9780714.18746  20366662.9534                   20366662.0594
  -1018999.17947   -758240.80944  23076139.7424   23076138.9534   16998368.73246
  13276377.87943                  23572173.2344                   23572177.8714
   1988916.61946   1576208.06644  23067939.9534                   23067941.7114
 -11323917.98148  -8795469.78446  21343829.6094                   21343827.0234
  -9694370.16947  -7530476.52744  22346757.0314                   22346756.8484
 11  8 22 20  1  0.0000000  0  8G17G07G08G11G04G26G28G24
 -14039768.14848 -10911014.66446  20852415.8364                   20852413.7584
   5514883.76847   4342624.64445  22245926.2274                   22245926.3754
 -12632114.95548  -9795341.15246  20363091.2974                   20363090.3484
  -1001089.47747   -744285.27744  23079548.5004   23079546.3324   16814829.43446
  13133360.54744                  23537246.9454                   23537251.3014
   1961658.58547   1554967.94144  23062752.7034                   23062753.3754
 -11413213.28248  -8865050.54546  21326837.2814                   21326835.0124
  -9712497.35347  -7544601.60644  22343306.9924                   22343307.0744
 11  8 22 20  1 30.0000000  0  8G17G07G08G11G04G26G28G24
 -14132130.97248 -10982985.68646  20834839.5474                   20834838.2854
   5539570.90547   4361861.28245  22250623.6564                   22250623.3834
 -12650319.42748  -9809526.50246  20359626.8754                   20359626.2114
   -982849.56047   -730072.40343  23083018.8674   23083016.8164   16631344.87046
  12990385.83444                  23502331.8134                   23502334.7114
   1934847.67347   1534076.23144  23057651.1884                   23057652.3444
 -11502436.11748  -8934574.83946  21309858.3914                   21309856.4734
  -9730114.23747  -7558329.08145  22339955.4844                   22339954.5354
 11  8 22 20  2  0.0000000  0  8G17G07G08G11G04G26G28G24
 -14224146.81648 -11054686.32746  20817329.6174                   20817328.4224
   5564577.05047   4381346.46445  22255382.2034                   22255382.4534
 -12667958.45848  -9823271.25746  20356270.3594                   20356269.9414
   -964282.19147   -715604.39443  23086552.3134   23086551.5634   16447917.78146
  12847455.87144                  23467425.9384                   23467429.2854
   1908480.91247   1513530.62444  23052633.5864                   23052634.3554
 -11591584.96848  -9004041.46446  21292894.1334                   21292892.0354
  -9747222.61547  -7571660.31145  22336699.9304                   22336699.5164
 11  8 22 20  2 30.0000000  0  8G17G07G08G11G04G26G28G24
 -14315816.04148 -11126116.88146  20799885.4844                   20799884.5234
   5589900.52647   4401078.92845  22260201.1254                   22260201.7034
 -12685032.11148  -9836575.45346  20353021.6564                   20353020.3014
   -945389.67747   -700882.99444  23090147.5634   23090146.0354   16264551.68447
  12704573.42543                  23432531.6414                   23432535.4924
   1882556.55046   1493329.72844  23047700.8364                   23047701.9184
 -11680658.67248  -9073449.54246  21275944.1644                   21275942.4184
  -9763823.44947  -7584596.05644  22333540.2424                   22333540.6454
 11  8 22 20  3  0.0000000  0  8G17G07G08G11G04G26G28G24
 -12831721.56448  -9969679.62246  21082299.1254                   21082297.2704
   7190953.42747   5648652.49145  22564871.1254                   22564871.8674
 -11126125.95948  -8621843.43946  20649671.4454                   20649670.7894
    649239.88447    541685.43444  23393595.9844   23393594.8754   17656670.61947
  13789341.63543                  23697443.7734                   23697446.7274
   3432487.76247   2701068.21844  23342643.0314                   23342644.1724
 -10194238.33247  -7915199.94046  21558800.0234                   21558798.7504
  -8204502.93847  -6369541.14744  22630269.1644                   22630269.3094
 11  8 22 20  3 30.0000000  0  8G17G07G08G11G04G26G28G24
 -12922710.02248 -10040579.71246  21064984.6804                   21064983.2464
   7216895.41547   5668866.90345  22569808.0704                   22569808.9884
 -11142081.97248  -8634276.75046  20646635.1414                   20646634.3714
    668765.55447    556900.14344  23397311.6484   23397309.9884   17473425.35447
  13646553.29443                  23662573.4614                   23662575.4774
   3407430.38347   2681542.90244  23337873.9304                   23337875.7664
 -10283168.51848  -7984496.19846  21541877.3284                   21541875.2344
  -8220103.53947  -6381697.50144  22627300.3204                   22627300.4844
 11  8 22 20  4  0.0000000  0  8G17G07G08G11G04G26G28G24
 -13013358.70248 -10111215.03646  21047734.6564                   21047733.3954
   7243144.04447   5689320.26845  22574803.0394                   22574803.7734
 -11157480.38348  -8646275.57146  20643705.1024                   20643704.0904
    688604.66547    572359.12144  23401086.9384   23401085.8444   17290245.20946
  13503815.74243                  23627714.5234                   23627716.7584
   3382803.21547   2662352.81144  23333188.4924                   23333189.9654
 -10372024.72548  -8053734.79946  21524968.6954                   21524966.2704
  -8235205.83247  -6393465.53744  22624426.7974                   22624426.3754
 11  8 22 20  4 30.0000000  0  8G17G07G08G11G04G26G28G24
 -13103667.38048 -10181585.43746  21030549.5004                   21030548.3094
   7269697.64347   5710011.26345  22579856.8054                   22579856.8674
 -11172321.30648  -8657839.98446  20640880.9144                   20640879.9264
    708755.42846    588060.97244  23404921.5864   23404920.1724   17107134.14246
  13361131.99543                  23592869.7664                   23592872.4304
   3358604.22347   2643496.37244  23328583.2974                   23328584.6414
 -10460805.00848  -8122914.25146  21508074.3594                   21508072.2664
  -8249810.49547  -6404845.79845  22621647.6174                   22621647.2584
 11  8 22 20  5  0.0000000  0  8G17G07G08G11G04G26G28G24
 -13193640.97748 -10251694.71946  21013428.0004                   21013426.4574
   7296549.88347   5730934.97245  22584966.5314                   22584966.7624
 -11186610.10148  -8668974.16146  20638161.6804                   20638160.9804
    729211.37046    604000.60644  23408813.5704   23408813.0314   16924090.84246
  13218501.09743                  23558037.2034                   23558041.0004
   3334826.72747   2624968.35744  23324058.4224                   23324059.2154
 -10549512.69948  -8192037.11746  21491193.8134                   21491191.9654
  -8263923.42447  -6415842.92844  22618961.6024                   22618961.7774
 11  8 22 20  5 30.0000000  0  8G17G07G08G11G04G26G28G24
 -13283276.49547 -10321540.57446  20996371.1094                   20996369.6564
   7323702.46347   5752092.70745  22590133.6484                   22590133.7734
 -11200344.26248  -8679676.16146  20635548.4384                   20635547.6884
    749973.55046    620178.88443  23412764.3204   23412763.6644   16741122.11146
  13075928.29944                  23523219.4304                   23523223.0394
   3311471.98047   2606769.74744  23319614.5084                   23319616.0744
 -10638142.61447  -8261099.38946  21474327.9844                   21474326.0664
  -8277542.37047  -6426455.14645  22616370.3444                   22616370.6604
 11  8 22 20  6  0.0000000  0  8G17G07G08G11G04G26G28G24
 -13372578.48548 -10391126.53546  20979377.3914                   20979376.0904
   7351149.59047   5773479.96345  22595356.4454                   22595357.1254
 -11213528.23148  -8689949.44946  20633039.8134                   20633038.9964
    771035.80246    636590.92443  23416772.5704   23416772.0164   16558227.33347
  12933413.10244                  23488416.2034                   23488419.0044
   3288533.82647   2588895.77144  23315249.5234                   23315250.9064
 -10726697.10347  -8330102.88246  21457477.2034                   21457474.8244
  -8290672.58747  -6436686.52145  22613870.7584                   22613871.9734
 11  8 22 20  6 30.0000000  0  8G17G07G08G11G04G26G28G24
 -13461546.24448 -10460452.05346  20962447.3914                   20962446.3984
   7378890.63247   5795096.21445  22600635.0704                   22600635.6524
 -11226161.66948  -8699793.74546  20630635.8444                   20630635.0124
    792397.10347    653236.02144  23420838.0704   23420837.4884   16375411.08747
  12790959.10344                  23453626.3834                   23453629.9614
   3266010.99247   2571345.44244  23310964.0084                   23310965.2304
 -10815173.42248  -8399045.46846  21440640.4064                   21440638.2974
  -8303314.30047  -6446537.22444  22611465.9694                   22611466.5904
 11  8 22 20  7  0.0000000  0  8G17G07G08G11G04G26G28G24
 -13550186.92248 -10529522.71046  20945579.7274                   20945578.4844
   7406916.88947   5816934.74445  22605968.6564                   22605969.0124
 -11238252.43547  -8709215.18746  20628334.8524                   20628333.7274
    814048.97247    670107.55643  23424957.9064   23424956.9924   16192669.86347
  12648563.50644                  23418852.6094                   23418854.3874
   3243894.58447   2554111.77244  23306754.8364                   23306756.7854
 -10903577.12548  -8467931.47546  21423817.5554                   21423815.1094
  -8315475.68347  -6456013.62444  22609151.6174                   22609152.5514
 11  8 22 20  7 30.0000000  0  8G17G07G08G11G04G26G28G24
 -13638497.06548 -10598335.81346  20928774.4694                   20928773.5164
   7435230.49647   5838997.18545  22611356.5944                   22611357.0904
 -11249797.31348  -8718211.24546  20626137.8364                   20626137.1134
    835992.97946    687206.75843  23429134.1484   23429132.5704   16010010.78447
  12506231.95644                  23384093.0554                   23384096.3484
   3222186.16347   2537196.03344  23302624.8134                   23302626.3094
 -10991902.74348  -8536756.61846  21407009.8444                   21407007.4884
  -8327154.27347  -6465113.89344  22606929.3594                   22606929.4844
 11  8 22 20  8  0.0000000  0  8G17G07G08G11G04G26G28G24
 -13726476.82148 -10666891.45146  20912032.9144                   20912031.5944
   7463829.67047   5861282.11745  22616799.4614                   22616798.9454
 -11260796.97848  -8726782.47846  20624044.4224                   20624044.1564
    858226.86747    704531.79143  23433365.6484   23433363.6024   15827437.73647
  12363967.44244                  23349351.2664                   23349353.3164
   3200883.55647   2520596.51644  23298570.5004                   23298571.4344
 -11080148.42448  -8605519.49346  21390217.6644                   21390215.0044
  -8338351.10747  -6473838.70844  22604799.0634                   22604799.4574
 11  8 22 20  8 30.0000000  0  8G17G07G08G11G04G26G28G24
 -13814129.50648 -10735192.24046  20895353.0864                   20895351.6094
   7492709.39447   5883785.71245  22622295.3284                   22622295.0204
 -11271255.37848  -8734931.93146  20622054.3984                   20622054.2194
    880745.59447    722078.78243  23437650.5004   23437648.9734   15644950.80747
  12221769.99644                  23314624.5004                   23314626.4064
   3179981.36847   2504309.00644  23294592.9774                   23294595.3164
 -11168315.57147  -8674221.16446  21373439.5554                   21373437.1884
  -8349070.64447  -6482191.62844  22602758.6724                   22602759.6094
 11  8 22 20  9  0.0000000  0  8G17G07G08G11G04G26G28G24
 -13901453.38947 -10803236.82346  20878735.8674                   20878734.6174
   7521869.90047   5906508.07345  22627844.1804                   22627844.1484
 -11281171.43648  -8742658.78546  20620167.6024                   20620167.1214
    903549.08247    739847.69243  23441989.4454   23441987.8594   15462555.21046
  12079643.71743                  23279914.9224                   23279917.5124
   3159479.39847   2488333.37844  23290692.1334                   23290692.9264
 -11256401.08747  -8742859.22146  21356677.1954                   21356674.6374
  -8359312.37947  -6490172.24044  22600810.1484                   22600810.4264
 11  8 22 20  9 30.0000000  0  8G17G07G08G11G04G26G28G24
 -13988450.57048 -10871026.81346  20862180.8834                   20862179.4264
   7551308.27747   5929446.94745  22633446.0784                   22633446.5704
 -11290546.80947  -8749964.33146  20618383.2814                   20618383.2194
    926633.88447    757835.85243  23446382.4224   23446380.4614   15280253.27546
  11937590.45743                  23245224.3524                   23245225.8204
   3139374.12647   2472666.82244  23286866.3054                   23286867.9454
 -11344404.02248  -8811432.93046  21339931.0004                   21339928.9844
  -8369078.51747  -6497782.23845  22598952.2034                   22598952.1724
 11  8 22 20 10  0.0000000  0  8G17G07G08G11G04G26G28G24
 -14075120.31848 -10938561.67346  20845688.1484                   20845686.6524
   7581024.00247   5952601.93445  22639100.3984                   22639101.1174
 -11299381.49448  -8756848.55346  20616702.2974                   20616701.8674
    949999.58047    776042.81144  23450829.0314   23450826.7034   15098049.92646
  11795613.93443                  23210552.0234                   23210554.5004
   3119664.48247   2457308.55944  23283115.7344                   23283116.8674
 -11432321.58648  -8879940.11346  21323200.8364                   21323198.7504
  -8378369.33946  -6505021.89244  22597183.2814                   22597183.9694
 11  8 22 20 10 30.0000000  0  8G17G07G08G11G04G26G28G24
 -14161464.89648 -11005843.15746  20829257.1884                   20829255.9264
   7611012.87947   5975969.73045  22644807.2814                   22644808.5084
 -11307678.35547  -8763313.71146  20615123.4534                   20615123.4774
    973641.54146    794465.06943  23455328.3054   23455325.6374   14915946.34547
  11653715.21144                  23175899.5314                   23175901.6604
   3100346.09247   2442255.18144  23279439.4844                   23279441.5004
 -11520154.34948  -8948381.23146  21306486.8594                   21306485.0784
  -8387188.42447  -6511893.94044  22595506.2734                   22595506.1214
 11  8 22 20 11  0.0000000  0  8G17G07G08G11G04G26G28G24
 -14247480.51148 -11072868.29846  20812889.3834                   20812887.6954
   7641277.37447   5999552.34245  22650566.4844                   22650567.8054
 -11315434.14948  -8769357.23246  20613647.7194                   20613648.1294
    997561.86046    813104.24443  23459879.9534   23459878.5434   14733949.97047
  11511900.00944                  23141265.6564                   23141269.1334
   3081420.74947   2427508.04644  23275837.9454                   23275839.2384
 -11607896.36948  -9016751.62046  21289790.2274                   21289788.0944
  -8395533.11347  -6518396.30344  22593917.7734                   22593917.6134
 11  8 22 20 11 30.0000000  0  8G17G07G08G11G04G26G28G24
 -14333172.79047 -11139641.49046  20796582.2034                   20796580.9804
   7671810.62047   6023344.32445  22656377.0234                   22656377.9264
 -11322655.21747  -8774984.09646  20612273.7814                   20612273.6414
   1021753.64046    831954.89143  23464482.7274   23464481.9384   14552059.53647
  11370167.35544                  23106653.0704                   23106656.2424
   3062881.24347   2413061.56444  23272310.2114                   23272311.6484
 -11695550.89647  -9085053.85946  21273110.4694                   21273108.0474
  -8403409.51746  -6524533.79044  22592419.2894                   22592419.0274
 11  8 22 20 12  0.0000000  0  8G17G07G08G11G04G26G28G24
 -14418537.46748 -11206159.40746  20780338.0004                   20780336.8874
   7702615.57747   6047348.02945  22662238.8204                   22662239.8834
 -11329337.69348  -8780191.28446  20611002.0474                   20611001.8634
   1046219.20646    851018.91143  23469138.6484   23469138.0984   14370282.71947
  11228523.23444                  23072061.9064                   23072065.2034
   3044729.74847   2398917.45644  23268856.2584                   23268858.2194
 -11783112.27448  -9153283.49646  21256448.0864                   21256445.1564
  -8410814.75747  -6530304.15244  22591009.4534                   22591009.8014
 11  8 22 20 12 30.0000000  0  8G17G07G08G11G04G26G28G24
 -14503573.26848 -11272421.06846  20764156.4454                   20764154.5634
   7733691.77547   6071563.10945  22668152.8984                   22668153.9104
 -11335480.85847  -8784978.22446  20609833.1174                   20609832.6844
   1070958.46146    870296.16043  23473847.0784   23473845.3204   14188624.89347
  11086971.80944                  23037493.7814                   23037496.8484
   3026965.61147   2385075.14844  23265475.3914                   23265477.5904
 -11870576.68748  -9221437.57046  21239803.7424                   21239801.7974
  -8417748.44846  -6535707.05744  22589690.0864                   22589690.8954
 11  8 22 20 13  0.0000000  0  8G17G07G08G11G04G26G28G24
 -14588283.50848 -11338429.03446  20748036.4064                   20748035.0274
   7765034.08847   6095985.54845  22674116.8594                   22674118.3404
 -11341088.76548  -8789348.09646  20608766.2584                   20608765.8324
   1095966.05046    889782.48443  23478604.8524   23478604.8444   14007086.24147
  10945513.27744                  23002947.9614                   23002950.5824
   3009583.28747   2371530.38844  23262167.9064                   23262170.0634
 -11957945.38848  -9289517.07946  21223178.2974                   21223176.6024
  -8424214.90547  -6540745.89644  22588460.4614                   22588460.8524
 11  8 22 20 13 30.0000000  0  8G17G07G08G11G04G26G28G24
 -14672666.73348 -11404182.18746  20731978.4304                   20731977.3634
   7796643.38647   6120616.05245  22680132.3054                   22680132.2854
 -11346159.95448  -8793299.72746  20607800.9454                   20607800.8914
   1121242.41746    909478.31843  23483416.0394   23483415.3284   13825673.10347
  10804152.51444                  22968426.2274                   22968429.5434
   2992583.06847   2358283.31144  23258932.7344                   23258934.6134
 -12045214.32148  -9357518.84646  21206571.0084                   21206569.0594
  -8430213.21547  -6545419.94944  22587318.4064                   22587318.6804
 11  8 22 20 14  0.0000000  0  8G17G07G08G11G04G26G28G24
 -14756722.73448 -11469680.35746  20715983.5944                   20715981.9614
   7828518.04347   6145453.30945  22686198.0704                   22686198.6994
 -11350695.21848  -8796833.77646  20606938.0314                   20606937.9024
   1146785.54646    929381.99443  23488276.6254   23488275.6294   13644388.93547
  10662892.27644                  22933928.8444                   22933931.4884
   2975962.62347   2345332.22744  23255770.5004                   23255771.9064
 -12132381.47748  -9425441.30546  21189983.9774                   21189981.7114
  -8435744.79947  -6549730.31644  22586266.1564                   22586265.7774
 11  8 22 20 14 30.0000000  0  8G17G07G08G11G04G26G28G24
 -13265029.16948 -10307321.74046  20999843.5084                   20999841.7734
   9436075.42447   7398095.28044  22992106.3834                   22992106.7034
  -9779275.68148  -7572351.08746  20905969.3134                   20905968.6994
   2748012.91746   2177091.51043  23792980.3594   23792979.6914   15038663.43447
  11749340.07544                  23199250.2274                   23199252.8094
   4535140.51647   3560275.93244  23552472.5704                   23552474.2074
 -10644022.15448  -8265680.78946  21473209.5784                   21473206.8094
  -6865390.74747  -5326077.83144  22885094.1954                   22885095.1884
 11  8 22 20 15  0.0000000  0  8G17G07G08G11G04G26G28G24
 -13348431.51548 -10372310.57646  20983972.5394                   20983971.1644
   9468476.26547   7423342.59044  22998271.8594                   22998272.1524
  -9782742.02848  -7575052.21046  20905309.9384                   20905309.0784
   2774084.73946   2197407.16343  23797941.3284   23797939.6804   14857648.67147
  11608289.75544                  23164803.6884                   23164806.7544
   4519273.77147   3547912.10944  23549453.2664                   23549454.4454
 -10730979.81348  -8333440.00346  21456661.3444                   21456659.2544
  -6869992.34847  -5329663.52644  22884218.6024                   22884219.2704
 11  8 22 20 15 30.0000000  0  8G17G07G08G11G04G26G28G24
 -13431504.37048 -10437042.66446  20968164.1954                   20968162.7464
   9501140.60147   7448795.16644  23004488.0234                   23004488.7734
  -9785672.47348  -7577335.72246  20904751.9694                   20904752.2774
   2800420.68846   2217928.66143  23802952.7344   23802951.4344   14676776.93647
  11467350.85444                  23130384.7974                   23130388.5004
   4503783.43547   3535841.60444  23546505.3674                   23546507.1094
 -10817826.94948  -8401113.09746  21440135.6564                   21440133.1214
  -6874127.96847  -5332886.12544  22883432.1804                   22883432.3484
 11  8 22 20 16  0.0000000  0  8G17G07G08G11G04G26G28G24
 -13514242.45948 -10501513.87946  20952419.4534                   20952417.6684
   9534072.28947   7474456.06744  23010754.3364                   23010755.7234
  -9788061.79348  -7579197.59546  20904297.7034                   20904297.4224
   2827025.07746   2238659.27944  23808015.8204   23808014.6334   14496057.81847
  11326530.89544                  23095995.8834                   23095998.0234
   4488673.10447   3524067.21644  23543629.5864                   23543631.7544
 -10904555.96648  -8468694.16146  21423631.4774                   21423629.0234
  -6877793.06947  -5335742.09044  22882733.9144                   22882734.6684
 11  8 22 20 16 30.0000000  0  8G17G07G08G11G04G26G28G24
 -13596650.25448 -10565727.74146  20936737.8754                   20936736.6524
   9567265.47647   7500320.71645  23017071.5164                   23017072.7304
  -9789915.39448  -7580642.02846  20903944.9224                   20903944.5514
   2853891.43646   2259594.07743  23813128.5314   23813127.4884   14315490.50246
  11185829.21844                  23061633.9064                   23061637.7114
   4473936.16347   3512583.79844  23540825.7194                   23540827.8054
 -10991169.04848  -8536184.87646  21407149.8364                   21407147.0234
  -6880993.37347  -5338235.88044  22882124.5474                   22882125.5204
 11  8 22 20 17  0.0000000  0  8G17G07G08G11G04G26G28G24
 -13678723.96248 -10629681.27346  20921120.0394                   20921118.4534
   9600722.80047   7526391.20445  23023438.1804                   23023439.4614
  -9791229.92348  -7581666.41146  20903694.4694                   20903694.6054
   2881022.11146   2280734.81443  23818291.2584   23818290.0664   14135083.28647
  11045252.28544                  23027303.7664                   23027306.3094
   4459574.78547   3501392.99044  23538092.8364                   23538094.4844
 -11077659.60448  -8603580.12046  21390690.8674                   21390689.0514
  -6883725.94847  -5340365.19944  22881605.6804                   22881605.9534
 11  8 22 20 17 30.0000000  0  8G17G07G08G11G04G26G28G24
 -13760459.64048 -10693371.40746  20905566.2114                   20905564.6764
   9634446.74847   7552669.43745  23029856.1884                   23029856.7114
  -9792002.22848  -7582268.27546  20903548.1254                   20903547.9144
   2908419.79447   2302083.56543  23823504.9924   23823504.2664   13954843.62547
  10904805.91744                  22993005.7114                   22993008.5044
   4445590.66947   3490496.16744  23535431.6804                   23535433.9414
 -11164022.02148  -8670875.50046  21374256.5474                   21374254.1844
  -6885988.06247  -5342127.94844  22881175.3444                   22881174.7034
 11  8 22 20 18  0.0000000  0  8G17G07G08G11G04G26G28G24
 -13841856.37048 -10756797.41746  20890076.7034                   20890075.6414
   9668436.44047   7579154.75445  23036323.9924                   23036325.5314
  -9792232.32248  -7582447.64446  20903504.2894                   20903504.1564
   2936083.60647   2323639.72143  23828768.3754   23828768.4654   13774776.69847
  10764494.13244                  22958739.7734                   22958742.3054
   4431982.99647   3479892.65644  23532842.6174                   23532843.8484
 -11250253.01948  -8738068.50646  21357847.6484                   21357845.7774
  -6887779.62947  -5343523.97944  22880834.0314                   22880834.1334
 11  8 22 20 18 30.0000000  0  8G17G07G08G11G04G26G28G24
 -13922911.12048 -10819956.94946  20874652.3284                   20874651.0474
   9702693.80147   7605848.63545  23042843.1254                   23042844.2154
  -9791917.78548  -7582202.62446  20903563.8284                   20903563.6804
   2964014.92647   2345404.35043  23834084.1724   23834083.0434   13594889.54947
  10624322.45944                  22924508.6724                   22924511.2234
   4418752.88847   3469583.37344  23530325.1644                   23530326.4734
 -11336347.15348  -8805154.84646  21341464.5394                   21341462.3634
  -6889098.74647  -5344551.90444  22880582.4224                   22880583.7344
 11  8 22 20 19  0.0000000  0  8G17G07G08G11G04G26G28G24
 -14003625.56848 -10882851.32746  20859292.9064                   20859291.8164
   9737215.74647   7632748.70645  23049412.2894                   23049413.6684
  -9791061.32748  -7581535.32446  20903727.1484                   20903726.9454
   2992210.65546   2367375.05943  23839449.3754   23839448.2274   13415184.34247
  10484292.49944                  22890311.6484                   22890313.6564
   4405896.72247   3459565.47444  23527877.8674                   23527880.4844
 -11422303.65348  -8872133.94246  21325107.0554                   21325105.4224
  -6889948.48247  -5345214.08144  22880421.3134                   22880422.1884
 11  8 22 20 19 30.0000000  0  8G17G07G08G11G04G26G28G24
 -14083997.33848 -10945478.66746  20843998.7344                   20843997.6374
   9772002.99547   7659855.51044  23056031.9224                   23056033.7774
  -9789661.07248  -7580444.28246  20903994.2344                   20903993.4414
   3020671.49846   2389552.29343  23844864.4844   23844865.3954   13235667.44947
  10344409.33244                  22856150.5864                   22856153.3054
   4393414.44647   3449838.86744  23525503.9224                   23525505.3404
 -11508118.19148  -8939002.41446  21308777.3284                   21308774.8754
  -6890327.42647  -5345509.40144  22880349.3984                   22880350.0904
 11  8 22 20 20  0.0000000  0  8G17G07G08G11G04G26G28G24
 -14164031.53048 -11007842.96846  20828768.7114                   20828766.9804
   9807049.34747   7687164.16344  23062701.5554                   23062703.0554
  -9787722.59847  -7578933.84546  20904362.5394                   20904362.8134
   3049390.79346   2411930.81543  23850331.2664   23850330.0634   13056337.93247
  10204672.14844                  22822025.3444                   22822027.6374
   4381299.59447   3440398.64244  23523198.1884                   23523200.6254
 -11593793.29748  -9005762.24446  21292474.2034                   21292471.9024
  -6890241.87146  -5345442.77044  22880365.2194                   22880366.0704
 11  8 22 20 20 30.0000000  0  8G17G07G08G11G04G26G28G24
 -14243729.35348 -11069945.16546  20813602.3914                   20813600.6724
   9842352.62547   7714673.03344  23069419.4774                   23069420.6254
  -9785248.22248  -7577005.81746  20904833.5474                   20904833.2304
   3078366.27446   2434509.08343  23855844.6484   23855843.6604   12877198.84247
  10065083.38244                  22787936.0394                   22787938.8594
   4369549.27846   3431242.42244  23520962.0474                   23520964.6214
 -11679327.66348  -9072412.41146  21276197.1094                   21276195.2504
  -6889693.81047  -5345015.76344  22880469.6564                   22880470.2814
 11  8 22 20 21  0.0000000  0  8G17G07G08G11G04G26G28G24
 -14323088.11348 -11131783.15546  20798501.2114                   20798499.5984
   9877913.68147   7742382.83044  23076186.5314                   23076187.6564
  -9782236.08747  -7574658.77446  20905407.1414                   20905407.2114
   3107598.80446   2457287.60843  23861407.7114   23861406.8244   12698256.76447
   9925648.12644                  22753883.8914                   22753886.8524
   4358163.67847   3422370.38544  23518795.4844                   23518798.0314
 -11764716.34048  -9138949.03846  21259948.9844                   21259946.1414
  -6888681.71247  -5344227.14944  22880662.2584                   22880662.5744
 11  8 22 20 21 30.0000000  0  8G17G07G08G11G04G26G28G24
 -14402105.22648 -11193354.93046  20783464.9534                   20783463.2704
   9913733.51946   7770294.21444  23083003.2114                   23083003.5044
  -9778684.24147  -7571891.17646  20906082.8524                   20906082.2154
   3137089.28646   2480267.13843  23867019.2034   23867018.3834   12519517.96747
   9786371.26844                  22719871.0164                   22719873.6564
   4347143.56147   3413783.14644  23516699.3594                   23516700.3984
 -11849954.71248  -9205368.55046  21243728.1024                   21243725.9064
  -6887204.45347  -5343076.04544  22880943.6254                   22880944.4654
 11  8 22 20 22  0.0000000  0  8G17G07G08G11G04G26G28G24
 -14480788.60648 -11254666.65246  20768491.7344                   20768490.3954
   9949803.13247   7798400.23344  23089867.0864                   23089868.6884
  -9774601.17047  -7568709.62646  20906860.1644                   20906859.5704
   3166828.57146   2503440.48043  23872678.5554   23872677.5664   12340979.13947
   9647250.23444                  22685896.0864                   22685899.1844
   4336479.21447   3405473.13144  23514670.0944                   23514671.6024
 -11935047.85447  -9271674.89346  21227535.2974                   21227532.9734
  -6885270.91347  -5341569.46044  22881311.8204                   22881312.1914
 11  8 22 20 22 30.0000000  0  8G17G07G08G11G04G26G28G24
 -14559134.81648 -11315715.63846  20753583.1414                   20753581.0944
   9986124.45447   7826702.37844  23096779.2274                   23096780.5434
  -9769984.72248  -7565112.45046  20907738.1724                   20907737.8284
   3196818.67646   2526809.41043  23878385.3284   23878384.4694   12162647.72347
   9508290.84144                  22651960.7974                   22651963.8834
   4326171.97047   3397441.40344  23512708.2424                   23512710.0004
 -12019989.88648  -9337863.48846  21211371.6094                   21211369.3834
  -6882878.50747  -5339705.28944  22881767.0704                   22881767.5314
 11  8 22 20 23  0.0000000  0  8G17G07G08G11G04G26G28G24
 -14637151.81148 -11376508.10346  20738736.6954                   20738735.0744
  10022688.26647   7855193.48845  23103737.0474                   23103737.7464
  -9764843.45748  -7561106.34246  20908717.0084                   20908716.4224
   3227049.93646   2550366.11343  23884138.7034   23884137.8634   11984519.47547
   9369489.70844                  22618064.1564                   22618066.3244
   4316212.10346   3389680.31344  23510812.9694                   23510814.7774
 -12104786.51248  -9403938.79046  21195235.4774                   21195232.6804
  -6880036.45847  -5337490.75044  22882307.7734                   22882307.8014
 11  8 22 20 23 30.0000000  0  8G17G07G08G11G04G26G28G24
 -14714845.31748 -11437048.49746  20723952.4774                   20723950.7974
  10059487.50447   7883868.02245  23110739.9924                   23110741.7304
  -9759183.80348  -7556696.29046  20909793.8054                   20909793.5944
   3257515.49646   2574105.45943  23889935.8674   23889935.2114   11806593.18647
   9230845.97845                  22584206.1484                   22584208.1954
   4306591.86547   3382183.89944  23508982.1954                   23508984.8014
 -12189440.93948  -9469903.27746  21179126.2504                   21179123.4264
  -6876751.61247  -5334931.17944  22882933.7034                   22882933.5394
 11  8 22 20 24  0.0000000  0  8G17G07G08G11G04G26G28G24
 -14792214.90048 -11497336.48346  20709229.2274                   20709228.3554
  10096521.14747   7912725.23645  23117787.2894                   23117789.1764
  -9753006.52548  -7551882.88946  20910969.5784                   20910969.2194
   3288214.52347   2598026.71743  23895778.3914   23895777.1334   11628873.15547
   9092362.93444                  22550386.8754                   22550389.0594
   4297309.87547   3374951.03344  23507216.5234                   23507218.6024
 -12273950.19148  -9535754.65746  21163044.6804                   21163042.2934
  -6873024.51647  -5332026.97344  22883642.4844                   22883642.7624
